<?xml version="1.0" encoding="UTF-8" standalone="no" ?>
<gpx xmlns="http://www.topografix.com/GPX/1/1" xmlns:xsi="http://www.w3.org/2001/XMLSchema-instance" xsi:schemaLocation="http://www.topografix.com/GPX/1/1 http://www.topografix.com/GPX/1/1/gpx.xsd" version="1.1" creator="VisuGPX - https://www.visugpx.com">
  <metadata>
    <name>27.08.2022 jour 5 Refuge des Arolles - Arêches</name>
    <desc><![CDATA[Départ montée sur la piste de ski, puis impraticable (portages difficiles) jusque sur les hauteurs du lac tournant. c'était mon choix pour rejoindre Arêches. puis 1700 d- pour finir. Bon raid dans l'ensemble, bonne météo.]]></desc>
  </metadata>
  <trk>
    <name><![CDATA[Retour areches 😭]]></name>
    <extensions>
      <line xmlns="http://www.topografix.com/GPX/gpx_style/0/2">
        <color>0000FF</color>
        <width>4</width>
      </line>
    </extensions>
    <trkseg>
      <trkpt lat="45.65698" lon="6.53355">
        <ele>1903.8</ele>
        <time>2022-08-27T06:41:29Z</time>
      </trkpt>
      <trkpt lat="45.65698" lon="6.53355">
        <ele>1903.8</ele>
        <time>2022-08-27T06:41:30Z</time>
      </trkpt>
      <trkpt lat="45.65697" lon="6.53351">
        <ele>1903.8</ele>
        <time>2022-08-27T06:41:41Z</time>
      </trkpt>
      <trkpt lat="45.65696" lon="6.5335">
        <ele>1903.8</ele>
        <time>2022-08-27T06:41:42Z</time>
      </trkpt>
      <trkpt lat="45.65692" lon="6.53347">
        <ele>1903.8</ele>
        <time>2022-08-27T06:41:46Z</time>
      </trkpt>
      <trkpt lat="45.65676" lon="6.53324">
        <ele>1903.6</ele>
        <time>2022-08-27T06:41:55Z</time>
      </trkpt>
      <trkpt lat="45.65655" lon="6.53285">
        <ele>1902</ele>
        <time>2022-08-27T06:42:01Z</time>
      </trkpt>
      <trkpt lat="45.65652" lon="6.53277">
        <ele>1901.6</ele>
        <time>2022-08-27T06:42:02Z</time>
      </trkpt>
      <trkpt lat="45.6565" lon="6.53269">
        <ele>1900.8</ele>
        <time>2022-08-27T06:42:03Z</time>
      </trkpt>
      <trkpt lat="45.65649" lon="6.53261">
        <ele>1900.4</ele>
        <time>2022-08-27T06:42:04Z</time>
      </trkpt>
      <trkpt lat="45.65648" lon="6.53253">
        <ele>1900</ele>
        <time>2022-08-27T06:42:05Z</time>
      </trkpt>
      <trkpt lat="45.65648" lon="6.53246">
        <ele>1899.6</ele>
        <time>2022-08-27T06:42:06Z</time>
      </trkpt>
      <trkpt lat="45.65647" lon="6.53233">
        <ele>1899.6</ele>
        <time>2022-08-27T06:42:10Z</time>
      </trkpt>
      <trkpt lat="45.65647" lon="6.53233">
        <ele>1902.4</ele>
        <time>2022-08-27T06:42:20Z</time>
      </trkpt>
      <trkpt lat="45.65648" lon="6.53232">
        <ele>1902.6</ele>
        <time>2022-08-27T06:42:31Z</time>
      </trkpt>
      <trkpt lat="45.65647" lon="6.53224">
        <ele>1903.6</ele>
        <time>2022-08-27T06:42:42Z</time>
      </trkpt>
      <trkpt lat="45.65647" lon="6.53221">
        <ele>1904.6</ele>
        <time>2022-08-27T06:42:51Z</time>
      </trkpt>
      <trkpt lat="45.65648" lon="6.53213">
        <ele>1905.6</ele>
        <time>2022-08-27T06:43:02Z</time>
      </trkpt>
      <trkpt lat="45.65646" lon="6.53206">
        <ele>1907.6</ele>
        <time>2022-08-27T06:43:15Z</time>
      </trkpt>
      <trkpt lat="45.65647" lon="6.532">
        <ele>1908.4</ele>
        <time>2022-08-27T06:43:30Z</time>
      </trkpt>
      <trkpt lat="45.65644" lon="6.53192">
        <ele>1910.4</ele>
        <time>2022-08-27T06:43:41Z</time>
      </trkpt>
      <trkpt lat="45.65642" lon="6.53187">
        <ele>1912.2</ele>
        <time>2022-08-27T06:43:52Z</time>
      </trkpt>
      <trkpt lat="45.6564" lon="6.53184">
        <ele>1913.2</ele>
        <time>2022-08-27T06:44:01Z</time>
      </trkpt>
      <trkpt lat="45.65638" lon="6.53181">
        <ele>1913.8</ele>
        <time>2022-08-27T06:44:09Z</time>
      </trkpt>
      <trkpt lat="45.65636" lon="6.53177">
        <ele>1914.8</ele>
        <time>2022-08-27T06:44:17Z</time>
      </trkpt>
      <trkpt lat="45.65633" lon="6.53172">
        <ele>1916.4</ele>
        <time>2022-08-27T06:44:28Z</time>
      </trkpt>
      <trkpt lat="45.65632" lon="6.53167">
        <ele>1917.8</ele>
        <time>2022-08-27T06:44:38Z</time>
      </trkpt>
      <trkpt lat="45.6563" lon="6.53166">
        <ele>1918.4</ele>
        <time>2022-08-27T06:44:52Z</time>
      </trkpt>
      <trkpt lat="45.65629" lon="6.53163">
        <ele>1919.2</ele>
        <time>2022-08-27T06:44:59Z</time>
      </trkpt>
      <trkpt lat="45.65628" lon="6.53161">
        <ele>1919.8</ele>
        <time>2022-08-27T06:45:10Z</time>
      </trkpt>
      <trkpt lat="45.65629" lon="6.53157">
        <ele>1920.4</ele>
        <time>2022-08-27T06:45:19Z</time>
      </trkpt>
      <trkpt lat="45.65629" lon="6.53155">
        <ele>1921.2</ele>
        <time>2022-08-27T06:45:29Z</time>
      </trkpt>
      <trkpt lat="45.65626" lon="6.53151">
        <ele>1921.8</ele>
        <time>2022-08-27T06:45:37Z</time>
      </trkpt>
      <trkpt lat="45.65624" lon="6.53148">
        <ele>1922.8</ele>
        <time>2022-08-27T06:45:45Z</time>
      </trkpt>
      <trkpt lat="45.6562" lon="6.53146">
        <ele>1924</ele>
        <time>2022-08-27T06:45:55Z</time>
      </trkpt>
      <trkpt lat="45.65619" lon="6.53145">
        <ele>1924.8</ele>
        <time>2022-08-27T06:46:17Z</time>
      </trkpt>
      <trkpt lat="45.65613" lon="6.53137">
        <ele>1926</ele>
        <time>2022-08-27T06:46:30Z</time>
      </trkpt>
      <trkpt lat="45.65609" lon="6.53132">
        <ele>1927.8</ele>
        <time>2022-08-27T06:46:40Z</time>
      </trkpt>
      <trkpt lat="45.65608" lon="6.53131">
        <ele>1928.6</ele>
        <time>2022-08-27T06:46:55Z</time>
      </trkpt>
      <trkpt lat="45.65602" lon="6.53123">
        <ele>1930.2</ele>
        <time>2022-08-27T06:47:09Z</time>
      </trkpt>
      <trkpt lat="45.65598" lon="6.53114">
        <ele>1931.6</ele>
        <time>2022-08-27T06:47:21Z</time>
      </trkpt>
      <trkpt lat="45.65596" lon="6.53109">
        <ele>1932.8</ele>
        <time>2022-08-27T06:47:30Z</time>
      </trkpt>
      <trkpt lat="45.65592" lon="6.53105">
        <ele>1933.6</ele>
        <time>2022-08-27T06:47:39Z</time>
      </trkpt>
      <trkpt lat="45.65587" lon="6.531">
        <ele>1934.6</ele>
        <time>2022-08-27T06:47:49Z</time>
      </trkpt>
      <trkpt lat="45.65584" lon="6.53096">
        <ele>1935.4</ele>
        <time>2022-08-27T06:47:58Z</time>
      </trkpt>
      <trkpt lat="45.65583" lon="6.53094">
        <ele>1936.4</ele>
        <time>2022-08-27T06:48:05Z</time>
      </trkpt>
      <trkpt lat="45.6558" lon="6.53091">
        <ele>1937</ele>
        <time>2022-08-27T06:48:18Z</time>
      </trkpt>
      <trkpt lat="45.65578" lon="6.53087">
        <ele>1937.8</ele>
        <time>2022-08-27T06:48:26Z</time>
      </trkpt>
      <trkpt lat="45.65575" lon="6.53083">
        <ele>1939.2</ele>
        <time>2022-08-27T06:48:36Z</time>
      </trkpt>
      <trkpt lat="45.65573" lon="6.53082">
        <ele>1939.8</ele>
        <time>2022-08-27T06:48:54Z</time>
      </trkpt>
      <trkpt lat="45.65568" lon="6.53076">
        <ele>1941</ele>
        <time>2022-08-27T06:49:05Z</time>
      </trkpt>
      <trkpt lat="45.65564" lon="6.53069">
        <ele>1942.4</ele>
        <time>2022-08-27T06:49:16Z</time>
      </trkpt>
      <trkpt lat="45.65561" lon="6.53066">
        <ele>1943.6</ele>
        <time>2022-08-27T06:49:25Z</time>
      </trkpt>
      <trkpt lat="45.65558" lon="6.5306">
        <ele>1944.6</ele>
        <time>2022-08-27T06:49:35Z</time>
      </trkpt>
      <trkpt lat="45.65555" lon="6.53056">
        <ele>1945.8</ele>
        <time>2022-08-27T06:49:45Z</time>
      </trkpt>
      <trkpt lat="45.65554" lon="6.53054">
        <ele>1946.6</ele>
        <time>2022-08-27T06:49:52Z</time>
      </trkpt>
      <trkpt lat="45.6555" lon="6.53049">
        <ele>1947.4</ele>
        <time>2022-08-27T06:50:02Z</time>
      </trkpt>
      <trkpt lat="45.65544" lon="6.53041">
        <ele>1949.2</ele>
        <time>2022-08-27T06:50:15Z</time>
      </trkpt>
      <trkpt lat="45.65538" lon="6.53035">
        <ele>1950.6</ele>
        <time>2022-08-27T06:50:26Z</time>
      </trkpt>
      <trkpt lat="45.65536" lon="6.53034">
        <ele>1951.6</ele>
        <time>2022-08-27T06:50:36Z</time>
      </trkpt>
      <trkpt lat="45.6553" lon="6.5303">
        <ele>1952.6</ele>
        <time>2022-08-27T06:50:47Z</time>
      </trkpt>
      <trkpt lat="45.65527" lon="6.5303">
        <ele>1953.8</ele>
        <time>2022-08-27T06:50:55Z</time>
      </trkpt>
      <trkpt lat="45.65519" lon="6.53024">
        <ele>1955.6</ele>
        <time>2022-08-27T06:51:10Z</time>
      </trkpt>
      <trkpt lat="45.65515" lon="6.53017">
        <ele>1956.8</ele>
        <time>2022-08-27T06:51:20Z</time>
      </trkpt>
      <trkpt lat="45.65509" lon="6.53014">
        <ele>1958.2</ele>
        <time>2022-08-27T06:51:30Z</time>
      </trkpt>
      <trkpt lat="45.65502" lon="6.53012">
        <ele>1959.2</ele>
        <time>2022-08-27T06:51:41Z</time>
      </trkpt>
      <trkpt lat="45.65496" lon="6.53009">
        <ele>1960</ele>
        <time>2022-08-27T06:51:51Z</time>
      </trkpt>
      <trkpt lat="45.65493" lon="6.53008">
        <ele>1960.6</ele>
        <time>2022-08-27T06:51:58Z</time>
      </trkpt>
      <trkpt lat="45.65491" lon="6.53006">
        <ele>1961.6</ele>
        <time>2022-08-27T06:52:06Z</time>
      </trkpt>
      <trkpt lat="45.65487" lon="6.53003">
        <ele>1962</ele>
        <time>2022-08-27T06:52:16Z</time>
      </trkpt>
      <trkpt lat="45.65477" lon="6.52998">
        <ele>1963.8</ele>
        <time>2022-08-27T06:52:29Z</time>
      </trkpt>
      <trkpt lat="45.65471" lon="6.52995">
        <ele>1965.2</ele>
        <time>2022-08-27T06:52:41Z</time>
      </trkpt>
      <trkpt lat="45.65466" lon="6.52991">
        <ele>1967</ele>
        <time>2022-08-27T06:52:57Z</time>
      </trkpt>
      <trkpt lat="45.65461" lon="6.5299">
        <ele>1968.4</ele>
        <time>2022-08-27T06:53:10Z</time>
      </trkpt>
      <trkpt lat="45.65458" lon="6.52989">
        <ele>1969.4</ele>
        <time>2022-08-27T06:53:19Z</time>
      </trkpt>
      <trkpt lat="45.65454" lon="6.52986">
        <ele>1970.8</ele>
        <time>2022-08-27T06:53:29Z</time>
      </trkpt>
      <trkpt lat="45.65447" lon="6.52983">
        <ele>1973.2</ele>
        <time>2022-08-27T06:53:43Z</time>
      </trkpt>
      <trkpt lat="45.65443" lon="6.52981">
        <ele>1975</ele>
        <time>2022-08-27T06:53:55Z</time>
      </trkpt>
      <trkpt lat="45.65439" lon="6.52979">
        <ele>1976.4</ele>
        <time>2022-08-27T06:54:06Z</time>
      </trkpt>
      <trkpt lat="45.65437" lon="6.52979">
        <ele>1977.2</ele>
        <time>2022-08-27T06:54:26Z</time>
      </trkpt>
      <trkpt lat="45.65432" lon="6.52975">
        <ele>1979</ele>
        <time>2022-08-27T06:54:39Z</time>
      </trkpt>
      <trkpt lat="45.65427" lon="6.52973">
        <ele>1980</ele>
        <time>2022-08-27T06:54:47Z</time>
      </trkpt>
      <trkpt lat="45.65421" lon="6.52971">
        <ele>1981.8</ele>
        <time>2022-08-27T06:54:57Z</time>
      </trkpt>
      <trkpt lat="45.65416" lon="6.52969">
        <ele>1983.4</ele>
        <time>2022-08-27T06:55:08Z</time>
      </trkpt>
      <trkpt lat="45.65408" lon="6.52969">
        <ele>1984.6</ele>
        <time>2022-08-27T06:55:19Z</time>
      </trkpt>
      <trkpt lat="45.654" lon="6.52968">
        <ele>1985.6</ele>
        <time>2022-08-27T06:55:31Z</time>
      </trkpt>
      <trkpt lat="45.654" lon="6.52967">
        <ele>1986</ele>
        <time>2022-08-27T06:55:45Z</time>
      </trkpt>
      <trkpt lat="45.654" lon="6.52968">
        <ele>1986</ele>
        <time>2022-08-27T06:55:59Z</time>
      </trkpt>
      <trkpt lat="45.654" lon="6.52968">
        <ele>1986.4</ele>
        <time>2022-08-27T06:56:37Z</time>
      </trkpt>
      <trkpt lat="45.65399" lon="6.52966">
        <ele>1986.6</ele>
        <time>2022-08-27T06:57:15Z</time>
      </trkpt>
      <trkpt lat="45.65398" lon="6.52965">
        <ele>1986.6</ele>
        <time>2022-08-27T06:57:16Z</time>
      </trkpt>
      <trkpt lat="45.65397" lon="6.52965">
        <ele>1986.6</ele>
        <time>2022-08-27T06:57:17Z</time>
      </trkpt>
      <trkpt lat="45.65396" lon="6.52964">
        <ele>1986.6</ele>
        <time>2022-08-27T06:57:18Z</time>
      </trkpt>
      <trkpt lat="45.65382" lon="6.52955">
        <ele>1986.4</ele>
        <time>2022-08-27T06:57:32Z</time>
      </trkpt>
      <trkpt lat="45.65376" lon="6.52945">
        <ele>1986.4</ele>
        <time>2022-08-27T06:57:42Z</time>
      </trkpt>
      <trkpt lat="45.65373" lon="6.52937">
        <ele>1987.8</ele>
        <time>2022-08-27T06:57:54Z</time>
      </trkpt>
      <trkpt lat="45.6537" lon="6.52926">
        <ele>1990</ele>
        <time>2022-08-27T06:58:08Z</time>
      </trkpt>
      <trkpt lat="45.65369" lon="6.52923">
        <ele>1991.6</ele>
        <time>2022-08-27T06:58:17Z</time>
      </trkpt>
      <trkpt lat="45.65367" lon="6.52918">
        <ele>1992.4</ele>
        <time>2022-08-27T06:58:26Z</time>
      </trkpt>
      <trkpt lat="45.65366" lon="6.52913">
        <ele>1993.6</ele>
        <time>2022-08-27T06:58:35Z</time>
      </trkpt>
      <trkpt lat="45.65364" lon="6.52908">
        <ele>1994.8</ele>
        <time>2022-08-27T06:58:45Z</time>
      </trkpt>
      <trkpt lat="45.65362" lon="6.529">
        <ele>1996</ele>
        <time>2022-08-27T06:58:56Z</time>
      </trkpt>
      <trkpt lat="45.65359" lon="6.52891">
        <ele>1998</ele>
        <time>2022-08-27T06:59:09Z</time>
      </trkpt>
      <trkpt lat="45.65358" lon="6.52888">
        <ele>1999</ele>
        <time>2022-08-27T06:59:18Z</time>
      </trkpt>
      <trkpt lat="45.65355" lon="6.5288">
        <ele>2000.8</ele>
        <time>2022-08-27T06:59:32Z</time>
      </trkpt>
      <trkpt lat="45.65351" lon="6.52873">
        <ele>2002.8</ele>
        <time>2022-08-27T06:59:44Z</time>
      </trkpt>
      <trkpt lat="45.65349" lon="6.52871">
        <ele>2003.6</ele>
        <time>2022-08-27T06:59:51Z</time>
      </trkpt>
      <trkpt lat="45.65347" lon="6.52868">
        <ele>2004.4</ele>
        <time>2022-08-27T07:00:00Z</time>
      </trkpt>
      <trkpt lat="45.65346" lon="6.52865">
        <ele>2005.4</ele>
        <time>2022-08-27T07:00:08Z</time>
      </trkpt>
      <trkpt lat="45.65343" lon="6.52861">
        <ele>2006.2</ele>
        <time>2022-08-27T07:00:17Z</time>
      </trkpt>
      <trkpt lat="45.65341" lon="6.52857">
        <ele>2007.2</ele>
        <time>2022-08-27T07:00:26Z</time>
      </trkpt>
      <trkpt lat="45.65338" lon="6.52854">
        <ele>2008.2</ele>
        <time>2022-08-27T07:00:36Z</time>
      </trkpt>
      <trkpt lat="45.65334" lon="6.52847">
        <ele>2009.6</ele>
        <time>2022-08-27T07:00:47Z</time>
      </trkpt>
      <trkpt lat="45.65331" lon="6.52842">
        <ele>2011.2</ele>
        <time>2022-08-27T07:00:57Z</time>
      </trkpt>
      <trkpt lat="45.65331" lon="6.52841">
        <ele>2012.6</ele>
        <time>2022-08-27T07:01:08Z</time>
      </trkpt>
      <trkpt lat="45.65328" lon="6.52837">
        <ele>2012.8</ele>
        <time>2022-08-27T07:01:20Z</time>
      </trkpt>
      <trkpt lat="45.65323" lon="6.52832">
        <ele>2014.4</ele>
        <time>2022-08-27T07:01:32Z</time>
      </trkpt>
      <trkpt lat="45.65321" lon="6.52828">
        <ele>2016</ele>
        <time>2022-08-27T07:01:41Z</time>
      </trkpt>
      <trkpt lat="45.65318" lon="6.52825">
        <ele>2017</ele>
        <time>2022-08-27T07:01:51Z</time>
      </trkpt>
      <trkpt lat="45.65314" lon="6.52822">
        <ele>2018</ele>
        <time>2022-08-27T07:02:01Z</time>
      </trkpt>
      <trkpt lat="45.65307" lon="6.52817">
        <ele>2019.8</ele>
        <time>2022-08-27T07:02:13Z</time>
      </trkpt>
      <trkpt lat="45.65301" lon="6.52813">
        <ele>2021.6</ele>
        <time>2022-08-27T07:02:25Z</time>
      </trkpt>
      <trkpt lat="45.65297" lon="6.5281">
        <ele>2022.8</ele>
        <time>2022-08-27T07:02:33Z</time>
      </trkpt>
      <trkpt lat="45.65292" lon="6.52807">
        <ele>2024.4</ele>
        <time>2022-08-27T07:02:45Z</time>
      </trkpt>
      <trkpt lat="45.65286" lon="6.52804">
        <ele>2025.6</ele>
        <time>2022-08-27T07:02:58Z</time>
      </trkpt>
      <trkpt lat="45.65278" lon="6.528">
        <ele>2027.8</ele>
        <time>2022-08-27T07:03:13Z</time>
      </trkpt>
      <trkpt lat="45.65272" lon="6.52799">
        <ele>2029.4</ele>
        <time>2022-08-27T07:03:25Z</time>
      </trkpt>
      <trkpt lat="45.65265" lon="6.52797">
        <ele>2031.2</ele>
        <time>2022-08-27T07:03:39Z</time>
      </trkpt>
      <trkpt lat="45.65259" lon="6.52798">
        <ele>2032.8</ele>
        <time>2022-08-27T07:03:51Z</time>
      </trkpt>
      <trkpt lat="45.65253" lon="6.52798">
        <ele>2033.6</ele>
        <time>2022-08-27T07:04:03Z</time>
      </trkpt>
      <trkpt lat="45.65247" lon="6.52791">
        <ele>2035.4</ele>
        <time>2022-08-27T07:04:16Z</time>
      </trkpt>
      <trkpt lat="45.65244" lon="6.52784">
        <ele>2037.2</ele>
        <time>2022-08-27T07:04:27Z</time>
      </trkpt>
      <trkpt lat="45.65239" lon="6.52779">
        <ele>2038.8</ele>
        <time>2022-08-27T07:04:38Z</time>
      </trkpt>
      <trkpt lat="45.65237" lon="6.52776">
        <ele>2039.6</ele>
        <time>2022-08-27T07:04:49Z</time>
      </trkpt>
      <trkpt lat="45.65231" lon="6.52769">
        <ele>2041.6</ele>
        <time>2022-08-27T07:05:01Z</time>
      </trkpt>
      <trkpt lat="45.65227" lon="6.52765">
        <ele>2043.4</ele>
        <time>2022-08-27T07:05:11Z</time>
      </trkpt>
      <trkpt lat="45.65221" lon="6.52758">
        <ele>2044.8</ele>
        <time>2022-08-27T07:05:22Z</time>
      </trkpt>
      <trkpt lat="45.65217" lon="6.52755">
        <ele>2046.6</ele>
        <time>2022-08-27T07:05:33Z</time>
      </trkpt>
      <trkpt lat="45.65213" lon="6.52752">
        <ele>2047.6</ele>
        <time>2022-08-27T07:05:43Z</time>
      </trkpt>
      <trkpt lat="45.65211" lon="6.52749">
        <ele>2048.8</ele>
        <time>2022-08-27T07:05:52Z</time>
      </trkpt>
      <trkpt lat="45.65209" lon="6.52746">
        <ele>2049.8</ele>
        <time>2022-08-27T07:06:02Z</time>
      </trkpt>
      <trkpt lat="45.65204" lon="6.52738">
        <ele>2051.4</ele>
        <time>2022-08-27T07:06:15Z</time>
      </trkpt>
      <trkpt lat="45.65202" lon="6.52733">
        <ele>2052.8</ele>
        <time>2022-08-27T07:06:24Z</time>
      </trkpt>
      <trkpt lat="45.65197" lon="6.52726">
        <ele>2054.4</ele>
        <time>2022-08-27T07:06:35Z</time>
      </trkpt>
      <trkpt lat="45.65192" lon="6.5272">
        <ele>2055.4</ele>
        <time>2022-08-27T07:06:43Z</time>
      </trkpt>
      <trkpt lat="45.65192" lon="6.5272">
        <ele>2055.4</ele>
        <time>2022-08-27T07:06:52Z</time>
      </trkpt>
      <trkpt lat="45.65192" lon="6.5272">
        <ele>2055.4</ele>
        <time>2022-08-27T07:07:17Z</time>
      </trkpt>
      <trkpt lat="45.65192" lon="6.5272">
        <ele>2055.2</ele>
        <time>2022-08-27T07:07:45Z</time>
      </trkpt>
      <trkpt lat="45.65192" lon="6.5272">
        <ele>2055.8</ele>
        <time>2022-08-27T07:08:01Z</time>
      </trkpt>
      <trkpt lat="45.65192" lon="6.52718">
        <ele>2055.8</ele>
        <time>2022-08-27T07:08:09Z</time>
      </trkpt>
      <trkpt lat="45.65192" lon="6.52718">
        <ele>2055.8</ele>
        <time>2022-08-27T07:08:21Z</time>
      </trkpt>
      <trkpt lat="45.65191" lon="6.52718">
        <ele>2056</ele>
        <time>2022-08-27T07:08:43Z</time>
      </trkpt>
      <trkpt lat="45.65191" lon="6.52719">
        <ele>2056.2</ele>
        <time>2022-08-27T07:08:57Z</time>
      </trkpt>
      <trkpt lat="45.65189" lon="6.52716">
        <ele>2056.2</ele>
        <time>2022-08-27T07:09:17Z</time>
      </trkpt>
      <trkpt lat="45.65188" lon="6.52715">
        <ele>2056.2</ele>
        <time>2022-08-27T07:09:18Z</time>
      </trkpt>
      <trkpt lat="45.65187" lon="6.52714">
        <ele>2056.2</ele>
        <time>2022-08-27T07:09:19Z</time>
      </trkpt>
      <trkpt lat="45.65179" lon="6.52705">
        <ele>2056.2</ele>
        <time>2022-08-27T07:09:26Z</time>
      </trkpt>
      <trkpt lat="45.65163" lon="6.52693">
        <ele>2057</ele>
        <time>2022-08-27T07:09:36Z</time>
      </trkpt>
      <trkpt lat="45.65146" lon="6.52684">
        <ele>2058.2</ele>
        <time>2022-08-27T07:09:47Z</time>
      </trkpt>
      <trkpt lat="45.65133" lon="6.52678">
        <ele>2060</ele>
        <time>2022-08-27T07:09:58Z</time>
      </trkpt>
      <trkpt lat="45.6512" lon="6.52674">
        <ele>2062</ele>
        <time>2022-08-27T07:10:09Z</time>
      </trkpt>
      <trkpt lat="45.65106" lon="6.52673">
        <ele>2063.8</ele>
        <time>2022-08-27T07:10:20Z</time>
      </trkpt>
      <trkpt lat="45.65092" lon="6.52673">
        <ele>2065.8</ele>
        <time>2022-08-27T07:10:32Z</time>
      </trkpt>
      <trkpt lat="45.65078" lon="6.5267">
        <ele>2067.4</ele>
        <time>2022-08-27T07:10:44Z</time>
      </trkpt>
      <trkpt lat="45.65063" lon="6.52666">
        <ele>2069.2</ele>
        <time>2022-08-27T07:10:56Z</time>
      </trkpt>
      <trkpt lat="45.65048" lon="6.52664">
        <ele>2071.2</ele>
        <time>2022-08-27T07:11:09Z</time>
      </trkpt>
      <trkpt lat="45.65033" lon="6.52666">
        <ele>2072.4</ele>
        <time>2022-08-27T07:11:21Z</time>
      </trkpt>
      <trkpt lat="45.65019" lon="6.52671">
        <ele>2073.6</ele>
        <time>2022-08-27T07:11:32Z</time>
      </trkpt>
      <trkpt lat="45.65002" lon="6.52679">
        <ele>2074.6</ele>
        <time>2022-08-27T07:11:44Z</time>
      </trkpt>
      <trkpt lat="45.64992" lon="6.52686">
        <ele>2075.4</ele>
        <time>2022-08-27T07:11:52Z</time>
      </trkpt>
      <trkpt lat="45.64974" lon="6.52701">
        <ele>2076.8</ele>
        <time>2022-08-27T07:12:03Z</time>
      </trkpt>
      <trkpt lat="45.64964" lon="6.52716">
        <ele>2078.2</ele>
        <time>2022-08-27T07:12:12Z</time>
      </trkpt>
      <trkpt lat="45.64962" lon="6.52727">
        <ele>2079.8</ele>
        <time>2022-08-27T07:12:22Z</time>
      </trkpt>
      <trkpt lat="45.64958" lon="6.52741">
        <ele>2081.8</ele>
        <time>2022-08-27T07:12:33Z</time>
      </trkpt>
      <trkpt lat="45.64955" lon="6.52755">
        <ele>2083.6</ele>
        <time>2022-08-27T07:12:42Z</time>
      </trkpt>
      <trkpt lat="45.64952" lon="6.52765">
        <ele>2085.2</ele>
        <time>2022-08-27T07:12:50Z</time>
      </trkpt>
      <trkpt lat="45.64951" lon="6.52778">
        <ele>2087.6</ele>
        <time>2022-08-27T07:13:00Z</time>
      </trkpt>
      <trkpt lat="45.6495" lon="6.5278">
        <ele>2087.6</ele>
        <time>2022-08-27T07:13:01Z</time>
      </trkpt>
      <trkpt lat="45.64951" lon="6.5278">
        <ele>2088.6</ele>
        <time>2022-08-27T07:13:13Z</time>
      </trkpt>
      <trkpt lat="45.64953" lon="6.52787">
        <ele>2089.4</ele>
        <time>2022-08-27T07:13:24Z</time>
      </trkpt>
      <trkpt lat="45.64952" lon="6.52797">
        <ele>2091.2</ele>
        <time>2022-08-27T07:13:35Z</time>
      </trkpt>
      <trkpt lat="45.64951" lon="6.52805">
        <ele>2093.2</ele>
        <time>2022-08-27T07:13:47Z</time>
      </trkpt>
      <trkpt lat="45.64948" lon="6.52812">
        <ele>2094.2</ele>
        <time>2022-08-27T07:14:01Z</time>
      </trkpt>
      <trkpt lat="45.64947" lon="6.5282">
        <ele>2096.2</ele>
        <time>2022-08-27T07:14:13Z</time>
      </trkpt>
      <trkpt lat="45.64947" lon="6.52831">
        <ele>2098.2</ele>
        <time>2022-08-27T07:14:27Z</time>
      </trkpt>
      <trkpt lat="45.64946" lon="6.5284">
        <ele>2099.8</ele>
        <time>2022-08-27T07:14:38Z</time>
      </trkpt>
      <trkpt lat="45.64946" lon="6.52848">
        <ele>2101.4</ele>
        <time>2022-08-27T07:14:50Z</time>
      </trkpt>
      <trkpt lat="45.64947" lon="6.52856">
        <ele>2102.8</ele>
        <time>2022-08-27T07:15:01Z</time>
      </trkpt>
      <trkpt lat="45.64945" lon="6.52867">
        <ele>2105</ele>
        <time>2022-08-27T07:15:16Z</time>
      </trkpt>
      <trkpt lat="45.64944" lon="6.52872">
        <ele>2106.2</ele>
        <time>2022-08-27T07:15:25Z</time>
      </trkpt>
      <trkpt lat="45.64945" lon="6.52877">
        <ele>2107</ele>
        <time>2022-08-27T07:15:32Z</time>
      </trkpt>
      <trkpt lat="45.64946" lon="6.52886">
        <ele>2109.2</ele>
        <time>2022-08-27T07:15:47Z</time>
      </trkpt>
      <trkpt lat="45.64946" lon="6.52896">
        <ele>2110.4</ele>
        <time>2022-08-27T07:16:00Z</time>
      </trkpt>
      <trkpt lat="45.64946" lon="6.52905">
        <ele>2112</ele>
        <time>2022-08-27T07:16:12Z</time>
      </trkpt>
      <trkpt lat="45.64945" lon="6.52914">
        <ele>2113.6</ele>
        <time>2022-08-27T07:16:24Z</time>
      </trkpt>
      <trkpt lat="45.64945" lon="6.52925">
        <ele>2115.4</ele>
        <time>2022-08-27T07:16:37Z</time>
      </trkpt>
      <trkpt lat="45.64943" lon="6.52937">
        <ele>2117.2</ele>
        <time>2022-08-27T07:16:48Z</time>
      </trkpt>
      <trkpt lat="45.64943" lon="6.52944">
        <ele>2119.4</ele>
        <time>2022-08-27T07:17:00Z</time>
      </trkpt>
      <trkpt lat="45.64943" lon="6.52949">
        <ele>2120.2</ele>
        <time>2022-08-27T07:17:14Z</time>
      </trkpt>
      <trkpt lat="45.64938" lon="6.52958">
        <ele>2122.2</ele>
        <time>2022-08-27T07:17:28Z</time>
      </trkpt>
      <trkpt lat="45.64939" lon="6.52964">
        <ele>2123</ele>
        <time>2022-08-27T07:17:35Z</time>
      </trkpt>
      <trkpt lat="45.64939" lon="6.52972">
        <ele>2123.4</ele>
        <time>2022-08-27T07:17:44Z</time>
      </trkpt>
      <trkpt lat="45.64945" lon="6.52979">
        <ele>2123.8</ele>
        <time>2022-08-27T07:17:52Z</time>
      </trkpt>
      <trkpt lat="45.64945" lon="6.52979">
        <ele>2124.6</ele>
        <time>2022-08-27T07:18:02Z</time>
      </trkpt>
      <trkpt lat="45.64947" lon="6.52982">
        <ele>2124.6</ele>
        <time>2022-08-27T07:18:05Z</time>
      </trkpt>
      <trkpt lat="45.64948" lon="6.52983">
        <ele>2124.6</ele>
        <time>2022-08-27T07:18:06Z</time>
      </trkpt>
      <trkpt lat="45.64957" lon="6.52994">
        <ele>2124.8</ele>
        <time>2022-08-27T07:18:19Z</time>
      </trkpt>
      <trkpt lat="45.64964" lon="6.53002">
        <ele>2125</ele>
        <time>2022-08-27T07:18:28Z</time>
      </trkpt>
      <trkpt lat="45.64978" lon="6.5302">
        <ele>2124.2</ele>
        <time>2022-08-27T07:18:34Z</time>
      </trkpt>
      <trkpt lat="45.64979" lon="6.53022">
        <ele>2123.6</ele>
        <time>2022-08-27T07:18:39Z</time>
      </trkpt>
      <trkpt lat="45.64979" lon="6.53025">
        <ele>2124.2</ele>
        <time>2022-08-27T07:18:46Z</time>
      </trkpt>
      <trkpt lat="45.64979" lon="6.53024">
        <ele>2123.4</ele>
        <time>2022-08-27T07:19:12Z</time>
      </trkpt>
      <trkpt lat="45.64979" lon="6.53023">
        <ele>2123</ele>
        <time>2022-08-27T07:20:49Z</time>
      </trkpt>
      <trkpt lat="45.6498" lon="6.53023">
        <ele>2123</ele>
        <time>2022-08-27T07:22:33Z</time>
      </trkpt>
      <trkpt lat="45.64979" lon="6.53023">
        <ele>2123</ele>
        <time>2022-08-27T07:22:51Z</time>
      </trkpt>
      <trkpt lat="45.64974" lon="6.53019">
        <ele>2123</ele>
        <time>2022-08-27T07:22:59Z</time>
      </trkpt>
      <trkpt lat="45.64975" lon="6.53019">
        <ele>2123.6</ele>
        <time>2022-08-27T07:23:31Z</time>
      </trkpt>
      <trkpt lat="45.64972" lon="6.53016">
        <ele>2123.6</ele>
        <time>2022-08-27T07:23:36Z</time>
      </trkpt>
      <trkpt lat="45.64971" lon="6.53015">
        <ele>2123.6</ele>
        <time>2022-08-27T07:23:37Z</time>
      </trkpt>
      <trkpt lat="45.6497" lon="6.53017">
        <ele>2123.4</ele>
        <time>2022-08-27T07:23:43Z</time>
      </trkpt>
      <trkpt lat="45.64971" lon="6.53017">
        <ele>2123.4</ele>
        <time>2022-08-27T07:23:44Z</time>
      </trkpt>
      <trkpt lat="45.64972" lon="6.53018">
        <ele>2123.4</ele>
        <time>2022-08-27T07:23:45Z</time>
      </trkpt>
      <trkpt lat="45.64981" lon="6.53026">
        <ele>2123.4</ele>
        <time>2022-08-27T07:23:55Z</time>
      </trkpt>
      <trkpt lat="45.64984" lon="6.5303">
        <ele>2123</ele>
        <time>2022-08-27T07:24:03Z</time>
      </trkpt>
      <trkpt lat="45.64984" lon="6.53034">
        <ele>2123</ele>
        <time>2022-08-27T07:24:06Z</time>
      </trkpt>
      <trkpt lat="45.64982" lon="6.53044">
        <ele>2124.6</ele>
        <time>2022-08-27T07:24:15Z</time>
      </trkpt>
      <trkpt lat="45.64982" lon="6.53046">
        <ele>2125.8</ele>
        <time>2022-08-27T07:24:23Z</time>
      </trkpt>
      <trkpt lat="45.64981" lon="6.53047">
        <ele>2125.8</ele>
        <time>2022-08-27T07:24:34Z</time>
      </trkpt>
      <trkpt lat="45.64981" lon="6.53047">
        <ele>2125.8</ele>
        <time>2022-08-27T07:24:46Z</time>
      </trkpt>
      <trkpt lat="45.64982" lon="6.53048">
        <ele>2125.8</ele>
        <time>2022-08-27T07:24:59Z</time>
      </trkpt>
      <trkpt lat="45.64982" lon="6.53047">
        <ele>2125.6</ele>
        <time>2022-08-27T07:25:25Z</time>
      </trkpt>
      <trkpt lat="45.64981" lon="6.53049">
        <ele>2125.6</ele>
        <time>2022-08-27T07:25:33Z</time>
      </trkpt>
      <trkpt lat="45.6498" lon="6.53049">
        <ele>2125.4</ele>
        <time>2022-08-27T07:25:52Z</time>
      </trkpt>
      <trkpt lat="45.64979" lon="6.53055">
        <ele>2125</ele>
        <time>2022-08-27T07:26:03Z</time>
      </trkpt>
      <trkpt lat="45.6498" lon="6.53061">
        <ele>2124</ele>
        <time>2022-08-27T07:26:13Z</time>
      </trkpt>
      <trkpt lat="45.64976" lon="6.53066">
        <ele>2122</ele>
        <time>2022-08-27T07:26:22Z</time>
      </trkpt>
      <trkpt lat="45.64976" lon="6.5307">
        <ele>2120.8</ele>
        <time>2022-08-27T07:26:30Z</time>
      </trkpt>
      <trkpt lat="45.64975" lon="6.53077">
        <ele>2119</ele>
        <time>2022-08-27T07:26:39Z</time>
      </trkpt>
      <trkpt lat="45.64972" lon="6.53081">
        <ele>2117.2</ele>
        <time>2022-08-27T07:26:47Z</time>
      </trkpt>
      <trkpt lat="45.64973" lon="6.53081">
        <ele>2116.6</ele>
        <time>2022-08-27T07:27:10Z</time>
      </trkpt>
      <trkpt lat="45.64973" lon="6.5308">
        <ele>2116.6</ele>
        <time>2022-08-27T07:27:28Z</time>
      </trkpt>
      <trkpt lat="45.64972" lon="6.53081">
        <ele>2116.6</ele>
        <time>2022-08-27T07:27:56Z</time>
      </trkpt>
      <trkpt lat="45.64973" lon="6.53082">
        <ele>2116.8</ele>
        <time>2022-08-27T07:28:03Z</time>
      </trkpt>
      <trkpt lat="45.64972" lon="6.53082">
        <ele>2116.6</ele>
        <time>2022-08-27T07:28:16Z</time>
      </trkpt>
      <trkpt lat="45.64971" lon="6.53087">
        <ele>2116.6</ele>
        <time>2022-08-27T07:28:23Z</time>
      </trkpt>
      <trkpt lat="45.64969" lon="6.53092">
        <ele>2116.6</ele>
        <time>2022-08-27T07:28:30Z</time>
      </trkpt>
      <trkpt lat="45.64967" lon="6.53097">
        <ele>2116.6</ele>
        <time>2022-08-27T07:28:35Z</time>
      </trkpt>
      <trkpt lat="45.64966" lon="6.53098">
        <ele>2116.6</ele>
        <time>2022-08-27T07:28:36Z</time>
      </trkpt>
      <trkpt lat="45.64964" lon="6.53101">
        <ele>2113</ele>
        <time>2022-08-27T07:28:39Z</time>
      </trkpt>
      <trkpt lat="45.64962" lon="6.53109">
        <ele>2110.2</ele>
        <time>2022-08-27T07:28:48Z</time>
      </trkpt>
      <trkpt lat="45.64958" lon="6.53115">
        <ele>2108.4</ele>
        <time>2022-08-27T07:28:57Z</time>
      </trkpt>
      <trkpt lat="45.64955" lon="6.53118">
        <ele>2108.2</ele>
        <time>2022-08-27T07:29:05Z</time>
      </trkpt>
      <trkpt lat="45.64953" lon="6.53123">
        <ele>2108</ele>
        <time>2022-08-27T07:29:12Z</time>
      </trkpt>
      <trkpt lat="45.6495" lon="6.53126">
        <ele>2107.2</ele>
        <time>2022-08-27T07:29:20Z</time>
      </trkpt>
      <trkpt lat="45.64947" lon="6.53131">
        <ele>2107</ele>
        <time>2022-08-27T07:29:28Z</time>
      </trkpt>
      <trkpt lat="45.64943" lon="6.53137">
        <ele>2106</ele>
        <time>2022-08-27T07:29:36Z</time>
      </trkpt>
      <trkpt lat="45.6494" lon="6.53143">
        <ele>2104.6</ele>
        <time>2022-08-27T07:29:44Z</time>
      </trkpt>
      <trkpt lat="45.64939" lon="6.53144">
        <ele>2104.4</ele>
        <time>2022-08-27T07:29:45Z</time>
      </trkpt>
      <trkpt lat="45.64935" lon="6.53147">
        <ele>2102.2</ele>
        <time>2022-08-27T07:29:53Z</time>
      </trkpt>
      <trkpt lat="45.64933" lon="6.53148">
        <ele>2102</ele>
        <time>2022-08-27T07:29:54Z</time>
      </trkpt>
      <trkpt lat="45.64932" lon="6.53149">
        <ele>2102</ele>
        <time>2022-08-27T07:29:55Z</time>
      </trkpt>
      <trkpt lat="45.6493" lon="6.53151">
        <ele>2101.8</ele>
        <time>2022-08-27T07:29:56Z</time>
      </trkpt>
      <trkpt lat="45.64928" lon="6.53152">
        <ele>2101.6</ele>
        <time>2022-08-27T07:29:57Z</time>
      </trkpt>
      <trkpt lat="45.64927" lon="6.53154">
        <ele>2101.4</ele>
        <time>2022-08-27T07:29:58Z</time>
      </trkpt>
      <trkpt lat="45.64924" lon="6.53157">
        <ele>2101</ele>
        <time>2022-08-27T07:29:59Z</time>
      </trkpt>
      <trkpt lat="45.64921" lon="6.53159">
        <ele>2100.6</ele>
        <time>2022-08-27T07:30:00Z</time>
      </trkpt>
      <trkpt lat="45.64919" lon="6.53161">
        <ele>2100</ele>
        <time>2022-08-27T07:30:01Z</time>
      </trkpt>
      <trkpt lat="45.64916" lon="6.53164">
        <ele>2097.8</ele>
        <time>2022-08-27T07:30:05Z</time>
      </trkpt>
      <trkpt lat="45.64915" lon="6.53164">
        <ele>2097.6</ele>
        <time>2022-08-27T07:30:06Z</time>
      </trkpt>
      <trkpt lat="45.64914" lon="6.53165">
        <ele>2097.4</ele>
        <time>2022-08-27T07:30:07Z</time>
      </trkpt>
      <trkpt lat="45.64913" lon="6.53166">
        <ele>2097.4</ele>
        <time>2022-08-27T07:30:08Z</time>
      </trkpt>
      <trkpt lat="45.64912" lon="6.53167">
        <ele>2097.4</ele>
        <time>2022-08-27T07:30:09Z</time>
      </trkpt>
      <trkpt lat="45.64911" lon="6.53169">
        <ele>2097.4</ele>
        <time>2022-08-27T07:30:10Z</time>
      </trkpt>
      <trkpt lat="45.64908" lon="6.53175">
        <ele>2097.6</ele>
        <time>2022-08-27T07:30:19Z</time>
      </trkpt>
      <trkpt lat="45.64908" lon="6.53178">
        <ele>2097</ele>
        <time>2022-08-27T07:30:26Z</time>
      </trkpt>
      <trkpt lat="45.64908" lon="6.53181">
        <ele>2096.6</ele>
        <time>2022-08-27T07:30:35Z</time>
      </trkpt>
      <trkpt lat="45.64905" lon="6.53184">
        <ele>2095.4</ele>
        <time>2022-08-27T07:30:46Z</time>
      </trkpt>
      <trkpt lat="45.64898" lon="6.53186">
        <ele>2094</ele>
        <time>2022-08-27T07:30:56Z</time>
      </trkpt>
      <trkpt lat="45.64892" lon="6.53187">
        <ele>2094</ele>
        <time>2022-08-27T07:31:06Z</time>
      </trkpt>
      <trkpt lat="45.64891" lon="6.53187">
        <ele>2094</ele>
        <time>2022-08-27T07:31:07Z</time>
      </trkpt>
      <trkpt lat="45.64889" lon="6.53188">
        <ele>2094</ele>
        <time>2022-08-27T07:31:08Z</time>
      </trkpt>
      <trkpt lat="45.64887" lon="6.53188">
        <ele>2094</ele>
        <time>2022-08-27T07:31:09Z</time>
      </trkpt>
      <trkpt lat="45.64883" lon="6.53191">
        <ele>2093.4</ele>
        <time>2022-08-27T07:31:13Z</time>
      </trkpt>
      <trkpt lat="45.64881" lon="6.53193">
        <ele>2093.2</ele>
        <time>2022-08-27T07:31:14Z</time>
      </trkpt>
      <trkpt lat="45.64879" lon="6.53195">
        <ele>2093.2</ele>
        <time>2022-08-27T07:31:15Z</time>
      </trkpt>
      <trkpt lat="45.64877" lon="6.53196">
        <ele>2093</ele>
        <time>2022-08-27T07:31:16Z</time>
      </trkpt>
      <trkpt lat="45.64874" lon="6.53197">
        <ele>2092.8</ele>
        <time>2022-08-27T07:31:17Z</time>
      </trkpt>
      <trkpt lat="45.64864" lon="6.53202">
        <ele>2091.4</ele>
        <time>2022-08-27T07:31:21Z</time>
      </trkpt>
      <trkpt lat="45.64863" lon="6.53204">
        <ele>2089.4</ele>
        <time>2022-08-27T07:31:26Z</time>
      </trkpt>
      <trkpt lat="45.64863" lon="6.53205">
        <ele>2088.6</ele>
        <time>2022-08-27T07:31:38Z</time>
      </trkpt>
      <trkpt lat="45.64863" lon="6.53205">
        <ele>2088.6</ele>
        <time>2022-08-27T07:31:50Z</time>
      </trkpt>
      <trkpt lat="45.64863" lon="6.53207">
        <ele>2088.4</ele>
        <time>2022-08-27T07:32:05Z</time>
      </trkpt>
      <trkpt lat="45.64863" lon="6.53209">
        <ele>2088.4</ele>
        <time>2022-08-27T07:32:06Z</time>
      </trkpt>
      <trkpt lat="45.64862" lon="6.53211">
        <ele>2088.4</ele>
        <time>2022-08-27T07:32:07Z</time>
      </trkpt>
      <trkpt lat="45.64862" lon="6.53213">
        <ele>2088.4</ele>
        <time>2022-08-27T07:32:08Z</time>
      </trkpt>
      <trkpt lat="45.64862" lon="6.53215">
        <ele>2088.2</ele>
        <time>2022-08-27T07:32:09Z</time>
      </trkpt>
      <trkpt lat="45.64863" lon="6.53218">
        <ele>2088</ele>
        <time>2022-08-27T07:32:10Z</time>
      </trkpt>
      <trkpt lat="45.64864" lon="6.53219">
        <ele>2087.8</ele>
        <time>2022-08-27T07:32:11Z</time>
      </trkpt>
      <trkpt lat="45.64865" lon="6.5322">
        <ele>2087.6</ele>
        <time>2022-08-27T07:32:12Z</time>
      </trkpt>
      <trkpt lat="45.64867" lon="6.53221">
        <ele>2087.4</ele>
        <time>2022-08-27T07:32:13Z</time>
      </trkpt>
      <trkpt lat="45.64868" lon="6.53222">
        <ele>2087</ele>
        <time>2022-08-27T07:32:14Z</time>
      </trkpt>
      <trkpt lat="45.64879" lon="6.53231">
        <ele>2084</ele>
        <time>2022-08-27T07:32:20Z</time>
      </trkpt>
      <trkpt lat="45.64883" lon="6.53233">
        <ele>2080.8</ele>
        <time>2022-08-27T07:32:27Z</time>
      </trkpt>
      <trkpt lat="45.64883" lon="6.53234">
        <ele>2080.4</ele>
        <time>2022-08-27T07:32:28Z</time>
      </trkpt>
      <trkpt lat="45.64885" lon="6.53236">
        <ele>2080.2</ele>
        <time>2022-08-27T07:32:29Z</time>
      </trkpt>
      <trkpt lat="45.64887" lon="6.53238">
        <ele>2079.8</ele>
        <time>2022-08-27T07:32:30Z</time>
      </trkpt>
      <trkpt lat="45.64888" lon="6.53239">
        <ele>2079.4</ele>
        <time>2022-08-27T07:32:31Z</time>
      </trkpt>
      <trkpt lat="45.6489" lon="6.5324">
        <ele>2079</ele>
        <time>2022-08-27T07:32:32Z</time>
      </trkpt>
      <trkpt lat="45.64892" lon="6.5324">
        <ele>2078.6</ele>
        <time>2022-08-27T07:32:33Z</time>
      </trkpt>
      <trkpt lat="45.64893" lon="6.5324">
        <ele>2078</ele>
        <time>2022-08-27T07:32:34Z</time>
      </trkpt>
      <trkpt lat="45.64896" lon="6.53241">
        <ele>2075.6</ele>
        <time>2022-08-27T07:32:37Z</time>
      </trkpt>
      <trkpt lat="45.64897" lon="6.53241">
        <ele>2075.2</ele>
        <time>2022-08-27T07:32:38Z</time>
      </trkpt>
      <trkpt lat="45.64906" lon="6.53245">
        <ele>2073.4</ele>
        <time>2022-08-27T07:32:43Z</time>
      </trkpt>
      <trkpt lat="45.64915" lon="6.53249">
        <ele>2071.4</ele>
        <time>2022-08-27T07:32:47Z</time>
      </trkpt>
      <trkpt lat="45.64915" lon="6.53249">
        <ele>2070.2</ele>
        <time>2022-08-27T07:32:50Z</time>
      </trkpt>
      <trkpt lat="45.64915" lon="6.53248">
        <ele>2069.8</ele>
        <time>2022-08-27T07:33:18Z</time>
      </trkpt>
      <trkpt lat="45.64913" lon="6.53248">
        <ele>2069.6</ele>
        <time>2022-08-27T07:33:45Z</time>
      </trkpt>
      <trkpt lat="45.6491" lon="6.5325">
        <ele>2069.4</ele>
        <time>2022-08-27T07:33:51Z</time>
      </trkpt>
      <trkpt lat="45.64909" lon="6.5325">
        <ele>2069.2</ele>
        <time>2022-08-27T07:33:52Z</time>
      </trkpt>
      <trkpt lat="45.64908" lon="6.53251">
        <ele>2068.2</ele>
        <time>2022-08-27T07:33:58Z</time>
      </trkpt>
      <trkpt lat="45.64905" lon="6.53256">
        <ele>2067</ele>
        <time>2022-08-27T07:34:05Z</time>
      </trkpt>
      <trkpt lat="45.64904" lon="6.53258">
        <ele>2065.2</ele>
        <time>2022-08-27T07:34:14Z</time>
      </trkpt>
      <trkpt lat="45.64903" lon="6.53264">
        <ele>2064.8</ele>
        <time>2022-08-27T07:34:26Z</time>
      </trkpt>
      <trkpt lat="45.64905" lon="6.53268">
        <ele>2063.6</ele>
        <time>2022-08-27T07:34:32Z</time>
      </trkpt>
      <trkpt lat="45.6491" lon="6.53276">
        <ele>2062.4</ele>
        <time>2022-08-27T07:34:36Z</time>
      </trkpt>
      <trkpt lat="45.64914" lon="6.5328">
        <ele>2062.2</ele>
        <time>2022-08-27T07:34:37Z</time>
      </trkpt>
      <trkpt lat="45.64918" lon="6.53284">
        <ele>2062</ele>
        <time>2022-08-27T07:34:38Z</time>
      </trkpt>
      <trkpt lat="45.64922" lon="6.53288">
        <ele>2061.4</ele>
        <time>2022-08-27T07:34:39Z</time>
      </trkpt>
      <trkpt lat="45.64925" lon="6.53291">
        <ele>2061</ele>
        <time>2022-08-27T07:34:40Z</time>
      </trkpt>
      <trkpt lat="45.64927" lon="6.53296">
        <ele>2060.2</ele>
        <time>2022-08-27T07:34:41Z</time>
      </trkpt>
      <trkpt lat="45.64928" lon="6.53302">
        <ele>2059.4</ele>
        <time>2022-08-27T07:34:42Z</time>
      </trkpt>
      <trkpt lat="45.6493" lon="6.53309">
        <ele>2058.4</ele>
        <time>2022-08-27T07:34:43Z</time>
      </trkpt>
      <trkpt lat="45.64932" lon="6.53316">
        <ele>2057.2</ele>
        <time>2022-08-27T07:34:44Z</time>
      </trkpt>
      <trkpt lat="45.64933" lon="6.53323">
        <ele>2056.2</ele>
        <time>2022-08-27T07:34:45Z</time>
      </trkpt>
      <trkpt lat="45.64935" lon="6.5333">
        <ele>2055</ele>
        <time>2022-08-27T07:34:46Z</time>
      </trkpt>
      <trkpt lat="45.64937" lon="6.53336">
        <ele>2054</ele>
        <time>2022-08-27T07:34:47Z</time>
      </trkpt>
      <trkpt lat="45.6494" lon="6.53342">
        <ele>2052.8</ele>
        <time>2022-08-27T07:34:48Z</time>
      </trkpt>
      <trkpt lat="45.64942" lon="6.53348">
        <ele>2050.4</ele>
        <time>2022-08-27T07:34:49Z</time>
      </trkpt>
      <trkpt lat="45.64943" lon="6.53353">
        <ele>2049.2</ele>
        <time>2022-08-27T07:34:50Z</time>
      </trkpt>
      <trkpt lat="45.64943" lon="6.53359">
        <ele>2048</ele>
        <time>2022-08-27T07:34:51Z</time>
      </trkpt>
      <trkpt lat="45.64944" lon="6.53364">
        <ele>2047</ele>
        <time>2022-08-27T07:34:52Z</time>
      </trkpt>
      <trkpt lat="45.64947" lon="6.5337">
        <ele>2046</ele>
        <time>2022-08-27T07:34:53Z</time>
      </trkpt>
      <trkpt lat="45.64961" lon="6.53394">
        <ele>2042.6</ele>
        <time>2022-08-27T07:34:57Z</time>
      </trkpt>
      <trkpt lat="45.64968" lon="6.534">
        <ele>2040</ele>
        <time>2022-08-27T07:35:01Z</time>
      </trkpt>
      <trkpt lat="45.64968" lon="6.534">
        <ele>2039.8</ele>
        <time>2022-08-27T07:35:02Z</time>
      </trkpt>
      <trkpt lat="45.64968" lon="6.534">
        <ele>2039.6</ele>
        <time>2022-08-27T07:35:19Z</time>
      </trkpt>
      <trkpt lat="45.64968" lon="6.53398">
        <ele>2039.2</ele>
        <time>2022-08-27T07:35:37Z</time>
      </trkpt>
      <trkpt lat="45.64968" lon="6.53397">
        <ele>2038.2</ele>
        <time>2022-08-27T07:35:49Z</time>
      </trkpt>
      <trkpt lat="45.64968" lon="6.53398">
        <ele>2041.2</ele>
        <time>2022-08-27T07:35:56Z</time>
      </trkpt>
      <trkpt lat="45.64971" lon="6.53401">
        <ele>2039.4</ele>
        <time>2022-08-27T07:36:12Z</time>
      </trkpt>
      <trkpt lat="45.64978" lon="6.53408">
        <ele>2039.4</ele>
        <time>2022-08-27T07:36:14Z</time>
      </trkpt>
      <trkpt lat="45.64982" lon="6.53412">
        <ele>2039.4</ele>
        <time>2022-08-27T07:36:15Z</time>
      </trkpt>
      <trkpt lat="45.64986" lon="6.53418">
        <ele>2039.4</ele>
        <time>2022-08-27T07:36:16Z</time>
      </trkpt>
      <trkpt lat="45.6499" lon="6.53424">
        <ele>2038.8</ele>
        <time>2022-08-27T07:36:17Z</time>
      </trkpt>
      <trkpt lat="45.64993" lon="6.5343">
        <ele>2038.2</ele>
        <time>2022-08-27T07:36:18Z</time>
      </trkpt>
      <trkpt lat="45.64997" lon="6.53436">
        <ele>2037.4</ele>
        <time>2022-08-27T07:36:19Z</time>
      </trkpt>
      <trkpt lat="45.65002" lon="6.53445">
        <ele>2034.2</ele>
        <time>2022-08-27T07:36:21Z</time>
      </trkpt>
      <trkpt lat="45.65011" lon="6.53461">
        <ele>2031.6</ele>
        <time>2022-08-27T07:36:27Z</time>
      </trkpt>
      <trkpt lat="45.6501" lon="6.5346">
        <ele>2031.2</ele>
        <time>2022-08-27T07:36:42Z</time>
      </trkpt>
      <trkpt lat="45.65009" lon="6.53458">
        <ele>2031.4</ele>
        <time>2022-08-27T07:36:49Z</time>
      </trkpt>
      <trkpt lat="45.65009" lon="6.53458">
        <ele>2031.6</ele>
        <time>2022-08-27T07:37:24Z</time>
      </trkpt>
      <trkpt lat="45.65009" lon="6.53459">
        <ele>2031.4</ele>
        <time>2022-08-27T07:37:34Z</time>
      </trkpt>
      <trkpt lat="45.65011" lon="6.53461">
        <ele>2031.4</ele>
        <time>2022-08-27T07:37:36Z</time>
      </trkpt>
      <trkpt lat="45.65012" lon="6.53463">
        <ele>2031.4</ele>
        <time>2022-08-27T07:37:37Z</time>
      </trkpt>
      <trkpt lat="45.65013" lon="6.53465">
        <ele>2031.4</ele>
        <time>2022-08-27T07:37:38Z</time>
      </trkpt>
      <trkpt lat="45.65013" lon="6.53468">
        <ele>2031.4</ele>
        <time>2022-08-27T07:37:39Z</time>
      </trkpt>
      <trkpt lat="45.65014" lon="6.5347">
        <ele>2031.4</ele>
        <time>2022-08-27T07:37:40Z</time>
      </trkpt>
      <trkpt lat="45.65013" lon="6.53473">
        <ele>2031</ele>
        <time>2022-08-27T07:37:41Z</time>
      </trkpt>
      <trkpt lat="45.65012" lon="6.53475">
        <ele>2030.6</ele>
        <time>2022-08-27T07:37:42Z</time>
      </trkpt>
      <trkpt lat="45.65012" lon="6.53478">
        <ele>2030.4</ele>
        <time>2022-08-27T07:37:43Z</time>
      </trkpt>
      <trkpt lat="45.65011" lon="6.53481">
        <ele>2030</ele>
        <time>2022-08-27T07:37:44Z</time>
      </trkpt>
      <trkpt lat="45.6501" lon="6.53483">
        <ele>2029.8</ele>
        <time>2022-08-27T07:37:45Z</time>
      </trkpt>
      <trkpt lat="45.6501" lon="6.53486">
        <ele>2029.4</ele>
        <time>2022-08-27T07:37:46Z</time>
      </trkpt>
      <trkpt lat="45.65009" lon="6.53496">
        <ele>2027.6</ele>
        <time>2022-08-27T07:37:51Z</time>
      </trkpt>
      <trkpt lat="45.65009" lon="6.535">
        <ele>2026.8</ele>
        <time>2022-08-27T07:37:54Z</time>
      </trkpt>
      <trkpt lat="45.65009" lon="6.53503">
        <ele>2026.6</ele>
        <time>2022-08-27T07:37:55Z</time>
      </trkpt>
      <trkpt lat="45.6501" lon="6.53506">
        <ele>2026.2</ele>
        <time>2022-08-27T07:37:56Z</time>
      </trkpt>
      <trkpt lat="45.6501" lon="6.53508">
        <ele>2025.8</ele>
        <time>2022-08-27T07:37:57Z</time>
      </trkpt>
      <trkpt lat="45.6501" lon="6.53511">
        <ele>2025.4</ele>
        <time>2022-08-27T07:37:58Z</time>
      </trkpt>
      <trkpt lat="45.6501" lon="6.53514">
        <ele>2025</ele>
        <time>2022-08-27T07:37:59Z</time>
      </trkpt>
      <trkpt lat="45.65009" lon="6.53517">
        <ele>2024.4</ele>
        <time>2022-08-27T07:38:00Z</time>
      </trkpt>
      <trkpt lat="45.65009" lon="6.53519">
        <ele>2024</ele>
        <time>2022-08-27T07:38:01Z</time>
      </trkpt>
      <trkpt lat="45.65008" lon="6.5352">
        <ele>2023.6</ele>
        <time>2022-08-27T07:38:02Z</time>
      </trkpt>
      <trkpt lat="45.65006" lon="6.5352">
        <ele>2023.2</ele>
        <time>2022-08-27T07:38:03Z</time>
      </trkpt>
      <trkpt lat="45.65005" lon="6.5352">
        <ele>2022.8</ele>
        <time>2022-08-27T07:38:04Z</time>
      </trkpt>
      <trkpt lat="45.65" lon="6.53518">
        <ele>2020.8</ele>
        <time>2022-08-27T07:38:07Z</time>
      </trkpt>
      <trkpt lat="45.64998" lon="6.53519">
        <ele>2020.4</ele>
        <time>2022-08-27T07:38:08Z</time>
      </trkpt>
      <trkpt lat="45.64997" lon="6.5352">
        <ele>2019.8</ele>
        <time>2022-08-27T07:38:09Z</time>
      </trkpt>
      <trkpt lat="45.64997" lon="6.53522">
        <ele>2019.4</ele>
        <time>2022-08-27T07:38:10Z</time>
      </trkpt>
      <trkpt lat="45.64998" lon="6.53524">
        <ele>2018.8</ele>
        <time>2022-08-27T07:38:11Z</time>
      </trkpt>
      <trkpt lat="45.64999" lon="6.53531">
        <ele>2016.2</ele>
        <time>2022-08-27T07:38:17Z</time>
      </trkpt>
      <trkpt lat="45.65003" lon="6.53544">
        <ele>2014.2</ele>
        <time>2022-08-27T07:38:23Z</time>
      </trkpt>
      <trkpt lat="45.6501" lon="6.53562">
        <ele>2012.2</ele>
        <time>2022-08-27T07:38:29Z</time>
      </trkpt>
      <trkpt lat="45.6501" lon="6.53562">
        <ele>2009.6</ele>
        <time>2022-08-27T07:38:40Z</time>
      </trkpt>
      <trkpt lat="45.65012" lon="6.53567">
        <ele>2009.6</ele>
        <time>2022-08-27T07:38:49Z</time>
      </trkpt>
      <trkpt lat="45.65012" lon="6.53569">
        <ele>2009.6</ele>
        <time>2022-08-27T07:38:50Z</time>
      </trkpt>
      <trkpt lat="45.6501" lon="6.53571">
        <ele>2009.4</ele>
        <time>2022-08-27T07:38:51Z</time>
      </trkpt>
      <trkpt lat="45.65008" lon="6.53574">
        <ele>2009.2</ele>
        <time>2022-08-27T07:38:52Z</time>
      </trkpt>
      <trkpt lat="45.65007" lon="6.53577">
        <ele>2009</ele>
        <time>2022-08-27T07:38:53Z</time>
      </trkpt>
      <trkpt lat="45.65007" lon="6.53581">
        <ele>2008.6</ele>
        <time>2022-08-27T07:38:54Z</time>
      </trkpt>
      <trkpt lat="45.65007" lon="6.53584">
        <ele>2008.2</ele>
        <time>2022-08-27T07:38:55Z</time>
      </trkpt>
      <trkpt lat="45.65008" lon="6.53587">
        <ele>2007.8</ele>
        <time>2022-08-27T07:38:56Z</time>
      </trkpt>
      <trkpt lat="45.65009" lon="6.53589">
        <ele>2007.2</ele>
        <time>2022-08-27T07:38:57Z</time>
      </trkpt>
      <trkpt lat="45.65009" lon="6.53592">
        <ele>2006.6</ele>
        <time>2022-08-27T07:38:58Z</time>
      </trkpt>
      <trkpt lat="45.65009" lon="6.53593">
        <ele>2006</ele>
        <time>2022-08-27T07:38:59Z</time>
      </trkpt>
      <trkpt lat="45.65008" lon="6.53595">
        <ele>2003.8</ele>
        <time>2022-08-27T07:39:05Z</time>
      </trkpt>
      <trkpt lat="45.65003" lon="6.53597">
        <ele>2002.2</ele>
        <time>2022-08-27T07:39:15Z</time>
      </trkpt>
      <trkpt lat="45.65001" lon="6.53602">
        <ele>2000.2</ele>
        <time>2022-08-27T07:39:25Z</time>
      </trkpt>
      <trkpt lat="45.65" lon="6.53604">
        <ele>2000</ele>
        <time>2022-08-27T07:39:26Z</time>
      </trkpt>
      <trkpt lat="45.64999" lon="6.53605">
        <ele>1999.8</ele>
        <time>2022-08-27T07:39:27Z</time>
      </trkpt>
      <trkpt lat="45.64997" lon="6.53605">
        <ele>1999.6</ele>
        <time>2022-08-27T07:39:28Z</time>
      </trkpt>
      <trkpt lat="45.64996" lon="6.53603">
        <ele>1999</ele>
        <time>2022-08-27T07:39:30Z</time>
      </trkpt>
      <trkpt lat="45.64995" lon="6.53602">
        <ele>1998.6</ele>
        <time>2022-08-27T07:39:31Z</time>
      </trkpt>
      <trkpt lat="45.64994" lon="6.536">
        <ele>1998.2</ele>
        <time>2022-08-27T07:39:32Z</time>
      </trkpt>
      <trkpt lat="45.64989" lon="6.53595">
        <ele>1996.4</ele>
        <time>2022-08-27T07:39:37Z</time>
      </trkpt>
      <trkpt lat="45.64987" lon="6.53594">
        <ele>1994</ele>
        <time>2022-08-27T07:39:44Z</time>
      </trkpt>
      <trkpt lat="45.64982" lon="6.53589">
        <ele>1992.6</ele>
        <time>2022-08-27T07:39:53Z</time>
      </trkpt>
      <trkpt lat="45.64979" lon="6.53587">
        <ele>1991.6</ele>
        <time>2022-08-27T07:39:57Z</time>
      </trkpt>
      <trkpt lat="45.64978" lon="6.53587">
        <ele>1991.4</ele>
        <time>2022-08-27T07:39:58Z</time>
      </trkpt>
      <trkpt lat="45.64976" lon="6.53591">
        <ele>1990.2</ele>
        <time>2022-08-27T07:40:02Z</time>
      </trkpt>
      <trkpt lat="45.64976" lon="6.53594">
        <ele>1989.8</ele>
        <time>2022-08-27T07:40:03Z</time>
      </trkpt>
      <trkpt lat="45.64976" lon="6.53602">
        <ele>1987.2</ele>
        <time>2022-08-27T07:40:08Z</time>
      </trkpt>
      <trkpt lat="45.64973" lon="6.536">
        <ele>1985.2</ele>
        <time>2022-08-27T07:40:19Z</time>
      </trkpt>
      <trkpt lat="45.64965" lon="6.53597">
        <ele>1983.8</ele>
        <time>2022-08-27T07:40:26Z</time>
      </trkpt>
      <trkpt lat="45.64962" lon="6.536">
        <ele>1982.2</ele>
        <time>2022-08-27T07:40:31Z</time>
      </trkpt>
      <trkpt lat="45.6496" lon="6.53603">
        <ele>1981.8</ele>
        <time>2022-08-27T07:40:32Z</time>
      </trkpt>
      <trkpt lat="45.64959" lon="6.53606">
        <ele>1981.6</ele>
        <time>2022-08-27T07:40:33Z</time>
      </trkpt>
      <trkpt lat="45.64957" lon="6.53609">
        <ele>1981.4</ele>
        <time>2022-08-27T07:40:34Z</time>
      </trkpt>
      <trkpt lat="45.64956" lon="6.53611">
        <ele>1981</ele>
        <time>2022-08-27T07:40:35Z</time>
      </trkpt>
      <trkpt lat="45.64956" lon="6.53614">
        <ele>1980.6</ele>
        <time>2022-08-27T07:40:36Z</time>
      </trkpt>
      <trkpt lat="45.64955" lon="6.53616">
        <ele>1979</ele>
        <time>2022-08-27T07:40:37Z</time>
      </trkpt>
      <trkpt lat="45.64955" lon="6.53619">
        <ele>1978.2</ele>
        <time>2022-08-27T07:40:38Z</time>
      </trkpt>
      <trkpt lat="45.64955" lon="6.53621">
        <ele>1977.6</ele>
        <time>2022-08-27T07:40:39Z</time>
      </trkpt>
      <trkpt lat="45.64953" lon="6.53624">
        <ele>1976.2</ele>
        <time>2022-08-27T07:40:41Z</time>
      </trkpt>
      <trkpt lat="45.64952" lon="6.53626">
        <ele>1975.6</ele>
        <time>2022-08-27T07:40:42Z</time>
      </trkpt>
      <trkpt lat="45.6495" lon="6.53628">
        <ele>1975</ele>
        <time>2022-08-27T07:40:43Z</time>
      </trkpt>
      <trkpt lat="45.64947" lon="6.5363">
        <ele>1974.4</ele>
        <time>2022-08-27T07:40:44Z</time>
      </trkpt>
      <trkpt lat="45.64945" lon="6.53632">
        <ele>1973.8</ele>
        <time>2022-08-27T07:40:45Z</time>
      </trkpt>
      <trkpt lat="45.64943" lon="6.53633">
        <ele>1973.2</ele>
        <time>2022-08-27T07:40:46Z</time>
      </trkpt>
      <trkpt lat="45.64941" lon="6.53633">
        <ele>1972.6</ele>
        <time>2022-08-27T07:40:47Z</time>
      </trkpt>
      <trkpt lat="45.64938" lon="6.53633">
        <ele>1971.8</ele>
        <time>2022-08-27T07:40:48Z</time>
      </trkpt>
      <trkpt lat="45.64933" lon="6.53634">
        <ele>1969.4</ele>
        <time>2022-08-27T07:40:51Z</time>
      </trkpt>
      <trkpt lat="45.64933" lon="6.53636">
        <ele>1966.2</ele>
        <time>2022-08-27T07:40:56Z</time>
      </trkpt>
      <trkpt lat="45.64933" lon="6.53637">
        <ele>1965.4</ele>
        <time>2022-08-27T07:40:58Z</time>
      </trkpt>
      <trkpt lat="45.6493" lon="6.53647">
        <ele>1964</ele>
        <time>2022-08-27T07:41:07Z</time>
      </trkpt>
      <trkpt lat="45.6493" lon="6.53649">
        <ele>1963.8</ele>
        <time>2022-08-27T07:41:08Z</time>
      </trkpt>
      <trkpt lat="45.64927" lon="6.53668">
        <ele>1960.4</ele>
        <time>2022-08-27T07:41:14Z</time>
      </trkpt>
      <trkpt lat="45.64927" lon="6.53671">
        <ele>1959.4</ele>
        <time>2022-08-27T07:41:15Z</time>
      </trkpt>
      <trkpt lat="45.64925" lon="6.53674">
        <ele>1958.4</ele>
        <time>2022-08-27T07:41:16Z</time>
      </trkpt>
      <trkpt lat="45.64924" lon="6.53677">
        <ele>1957.6</ele>
        <time>2022-08-27T07:41:17Z</time>
      </trkpt>
      <trkpt lat="45.64914" lon="6.53698">
        <ele>1954.4</ele>
        <time>2022-08-27T07:41:21Z</time>
      </trkpt>
      <trkpt lat="45.64913" lon="6.53701">
        <ele>1951.2</ele>
        <time>2022-08-27T07:41:25Z</time>
      </trkpt>
      <trkpt lat="45.64913" lon="6.537">
        <ele>1950.6</ele>
        <time>2022-08-27T07:41:27Z</time>
      </trkpt>
      <trkpt lat="45.64913" lon="6.53703">
        <ele>1950.4</ele>
        <time>2022-08-27T07:41:42Z</time>
      </trkpt>
      <trkpt lat="45.64912" lon="6.53706">
        <ele>1950.4</ele>
        <time>2022-08-27T07:41:43Z</time>
      </trkpt>
      <trkpt lat="45.64911" lon="6.53708">
        <ele>1950.4</ele>
        <time>2022-08-27T07:41:44Z</time>
      </trkpt>
      <trkpt lat="45.64911" lon="6.5371">
        <ele>1950.4</ele>
        <time>2022-08-27T07:41:45Z</time>
      </trkpt>
      <trkpt lat="45.64912" lon="6.53712">
        <ele>1950.2</ele>
        <time>2022-08-27T07:41:46Z</time>
      </trkpt>
      <trkpt lat="45.64913" lon="6.53713">
        <ele>1950</ele>
        <time>2022-08-27T07:41:47Z</time>
      </trkpt>
      <trkpt lat="45.64914" lon="6.53715">
        <ele>1950</ele>
        <time>2022-08-27T07:41:48Z</time>
      </trkpt>
      <trkpt lat="45.64915" lon="6.53716">
        <ele>1949.8</ele>
        <time>2022-08-27T07:41:49Z</time>
      </trkpt>
      <trkpt lat="45.64917" lon="6.5372">
        <ele>1948.4</ele>
        <time>2022-08-27T07:41:56Z</time>
      </trkpt>
      <trkpt lat="45.64918" lon="6.53719">
        <ele>1947.8</ele>
        <time>2022-08-27T07:42:13Z</time>
      </trkpt>
      <trkpt lat="45.64919" lon="6.53722">
        <ele>1947.8</ele>
        <time>2022-08-27T07:42:23Z</time>
      </trkpt>
      <trkpt lat="45.64921" lon="6.53724">
        <ele>1947.8</ele>
        <time>2022-08-27T07:42:24Z</time>
      </trkpt>
      <trkpt lat="45.64923" lon="6.53726">
        <ele>1947.8</ele>
        <time>2022-08-27T07:42:25Z</time>
      </trkpt>
      <trkpt lat="45.64924" lon="6.53728">
        <ele>1947.6</ele>
        <time>2022-08-27T07:42:26Z</time>
      </trkpt>
      <trkpt lat="45.64924" lon="6.53731">
        <ele>1947.6</ele>
        <time>2022-08-27T07:42:27Z</time>
      </trkpt>
      <trkpt lat="45.64924" lon="6.53733">
        <ele>1947.4</ele>
        <time>2022-08-27T07:42:28Z</time>
      </trkpt>
      <trkpt lat="45.64923" lon="6.53736">
        <ele>1947</ele>
        <time>2022-08-27T07:42:29Z</time>
      </trkpt>
      <trkpt lat="45.64921" lon="6.53739">
        <ele>1944.4</ele>
        <time>2022-08-27T07:42:34Z</time>
      </trkpt>
      <trkpt lat="45.64921" lon="6.5374">
        <ele>1943.2</ele>
        <time>2022-08-27T07:42:48Z</time>
      </trkpt>
      <trkpt lat="45.6492" lon="6.5374">
        <ele>1943.2</ele>
        <time>2022-08-27T07:43:05Z</time>
      </trkpt>
      <trkpt lat="45.64921" lon="6.53738">
        <ele>1943</ele>
        <time>2022-08-27T07:43:25Z</time>
      </trkpt>
      <trkpt lat="45.64921" lon="6.53738">
        <ele>1943</ele>
        <time>2022-08-27T07:43:39Z</time>
      </trkpt>
      <trkpt lat="45.64922" lon="6.53739">
        <ele>1943</ele>
        <time>2022-08-27T07:43:40Z</time>
      </trkpt>
      <trkpt lat="45.64924" lon="6.53741">
        <ele>1943</ele>
        <time>2022-08-27T07:43:41Z</time>
      </trkpt>
      <trkpt lat="45.64925" lon="6.53743">
        <ele>1943</ele>
        <time>2022-08-27T07:43:42Z</time>
      </trkpt>
      <trkpt lat="45.64925" lon="6.53746">
        <ele>1943</ele>
        <time>2022-08-27T07:43:43Z</time>
      </trkpt>
      <trkpt lat="45.64924" lon="6.53749">
        <ele>1943</ele>
        <time>2022-08-27T07:43:44Z</time>
      </trkpt>
      <trkpt lat="45.64923" lon="6.53752">
        <ele>1942.6</ele>
        <time>2022-08-27T07:43:45Z</time>
      </trkpt>
      <trkpt lat="45.64923" lon="6.53753">
        <ele>1941.2</ele>
        <time>2022-08-27T07:43:51Z</time>
      </trkpt>
      <trkpt lat="45.64922" lon="6.53753">
        <ele>1941.2</ele>
        <time>2022-08-27T07:44:08Z</time>
      </trkpt>
      <trkpt lat="45.64923" lon="6.53752">
        <ele>1941.4</ele>
        <time>2022-08-27T07:44:27Z</time>
      </trkpt>
      <trkpt lat="45.64917" lon="6.53752">
        <ele>1941.2</ele>
        <time>2022-08-27T07:44:37Z</time>
      </trkpt>
      <trkpt lat="45.64912" lon="6.53748">
        <ele>1941.4</ele>
        <time>2022-08-27T07:44:45Z</time>
      </trkpt>
      <trkpt lat="45.64907" lon="6.53744">
        <ele>1942.2</ele>
        <time>2022-08-27T07:44:53Z</time>
      </trkpt>
      <trkpt lat="45.649" lon="6.53736">
        <ele>1943</ele>
        <time>2022-08-27T07:45:02Z</time>
      </trkpt>
      <trkpt lat="45.64893" lon="6.53728">
        <ele>1943.6</ele>
        <time>2022-08-27T07:45:11Z</time>
      </trkpt>
      <trkpt lat="45.64888" lon="6.53724">
        <ele>1944.2</ele>
        <time>2022-08-27T07:45:19Z</time>
      </trkpt>
      <trkpt lat="45.64887" lon="6.53723">
        <ele>1944.2</ele>
        <time>2022-08-27T07:45:20Z</time>
      </trkpt>
      <trkpt lat="45.64883" lon="6.53721">
        <ele>1945</ele>
        <time>2022-08-27T07:45:28Z</time>
      </trkpt>
      <trkpt lat="45.64882" lon="6.5372">
        <ele>1945.4</ele>
        <time>2022-08-27T07:45:33Z</time>
      </trkpt>
      <trkpt lat="45.64881" lon="6.53719">
        <ele>1945.4</ele>
        <time>2022-08-27T07:45:34Z</time>
      </trkpt>
      <trkpt lat="45.6488" lon="6.53718">
        <ele>1945.4</ele>
        <time>2022-08-27T07:45:35Z</time>
      </trkpt>
      <trkpt lat="45.64879" lon="6.53717">
        <ele>1945.4</ele>
        <time>2022-08-27T07:45:36Z</time>
      </trkpt>
      <trkpt lat="45.64878" lon="6.53716">
        <ele>1945.4</ele>
        <time>2022-08-27T07:45:37Z</time>
      </trkpt>
      <trkpt lat="45.64867" lon="6.53709">
        <ele>1945.8</ele>
        <time>2022-08-27T07:45:47Z</time>
      </trkpt>
      <trkpt lat="45.64855" lon="6.53707">
        <ele>1945.8</ele>
        <time>2022-08-27T07:45:56Z</time>
      </trkpt>
      <trkpt lat="45.64848" lon="6.53706">
        <ele>1945.2</ele>
        <time>2022-08-27T07:46:04Z</time>
      </trkpt>
      <trkpt lat="45.64838" lon="6.53703">
        <ele>1945.8</ele>
        <time>2022-08-27T07:46:15Z</time>
      </trkpt>
      <trkpt lat="45.64829" lon="6.53701">
        <ele>1946.4</ele>
        <time>2022-08-27T07:46:25Z</time>
      </trkpt>
      <trkpt lat="45.64823" lon="6.53696">
        <ele>1947.2</ele>
        <time>2022-08-27T07:46:34Z</time>
      </trkpt>
      <trkpt lat="45.64814" lon="6.53694">
        <ele>1947.6</ele>
        <time>2022-08-27T07:46:44Z</time>
      </trkpt>
      <trkpt lat="45.64806" lon="6.53692">
        <ele>1947.8</ele>
        <time>2022-08-27T07:46:53Z</time>
      </trkpt>
      <trkpt lat="45.64795" lon="6.53687">
        <ele>1948.4</ele>
        <time>2022-08-27T07:47:05Z</time>
      </trkpt>
      <trkpt lat="45.64791" lon="6.53686">
        <ele>1948.8</ele>
        <time>2022-08-27T07:47:11Z</time>
      </trkpt>
      <trkpt lat="45.64782" lon="6.53683">
        <ele>1949</ele>
        <time>2022-08-27T07:47:22Z</time>
      </trkpt>
      <trkpt lat="45.64779" lon="6.53683">
        <ele>1949.2</ele>
        <time>2022-08-27T07:47:25Z</time>
      </trkpt>
      <trkpt lat="45.64778" lon="6.53683">
        <ele>1949.2</ele>
        <time>2022-08-27T07:47:26Z</time>
      </trkpt>
      <trkpt lat="45.6477" lon="6.53681">
        <ele>1948.4</ele>
        <time>2022-08-27T07:47:36Z</time>
      </trkpt>
      <trkpt lat="45.64764" lon="6.5368">
        <ele>1947.6</ele>
        <time>2022-08-27T07:47:43Z</time>
      </trkpt>
      <trkpt lat="45.64754" lon="6.53676">
        <ele>1946.4</ele>
        <time>2022-08-27T07:47:53Z</time>
      </trkpt>
      <trkpt lat="45.64749" lon="6.53674">
        <ele>1946.2</ele>
        <time>2022-08-27T07:48:00Z</time>
      </trkpt>
      <trkpt lat="45.64746" lon="6.53671">
        <ele>1946.2</ele>
        <time>2022-08-27T07:48:01Z</time>
      </trkpt>
      <trkpt lat="45.64743" lon="6.53669">
        <ele>1945.8</ele>
        <time>2022-08-27T07:48:02Z</time>
      </trkpt>
      <trkpt lat="45.6473" lon="6.5366">
        <ele>1944.6</ele>
        <time>2022-08-27T07:48:07Z</time>
      </trkpt>
      <trkpt lat="45.64722" lon="6.53657">
        <ele>1942.8</ele>
        <time>2022-08-27T07:48:12Z</time>
      </trkpt>
      <trkpt lat="45.64714" lon="6.53649">
        <ele>1940.4</ele>
        <time>2022-08-27T07:48:18Z</time>
      </trkpt>
      <trkpt lat="45.64711" lon="6.53647">
        <ele>1938.4</ele>
        <time>2022-08-27T07:48:24Z</time>
      </trkpt>
      <trkpt lat="45.64708" lon="6.53647">
        <ele>1937.8</ele>
        <time>2022-08-27T07:48:36Z</time>
      </trkpt>
      <trkpt lat="45.64699" lon="6.53649">
        <ele>1938.4</ele>
        <time>2022-08-27T07:48:49Z</time>
      </trkpt>
      <trkpt lat="45.64692" lon="6.53647">
        <ele>1938.4</ele>
        <time>2022-08-27T07:49:00Z</time>
      </trkpt>
      <trkpt lat="45.64689" lon="6.53648">
        <ele>1938.4</ele>
        <time>2022-08-27T07:49:05Z</time>
      </trkpt>
      <trkpt lat="45.64687" lon="6.53648">
        <ele>1938.4</ele>
        <time>2022-08-27T07:49:06Z</time>
      </trkpt>
      <trkpt lat="45.64685" lon="6.53649">
        <ele>1938.4</ele>
        <time>2022-08-27T07:49:07Z</time>
      </trkpt>
      <trkpt lat="45.64682" lon="6.53649">
        <ele>1938.4</ele>
        <time>2022-08-27T07:49:08Z</time>
      </trkpt>
      <trkpt lat="45.64679" lon="6.53649">
        <ele>1938.4</ele>
        <time>2022-08-27T07:49:09Z</time>
      </trkpt>
      <trkpt lat="45.64676" lon="6.53649">
        <ele>1938.4</ele>
        <time>2022-08-27T07:49:10Z</time>
      </trkpt>
      <trkpt lat="45.64662" lon="6.53648">
        <ele>1938</ele>
        <time>2022-08-27T07:49:18Z</time>
      </trkpt>
      <trkpt lat="45.64652" lon="6.53646">
        <ele>1939</ele>
        <time>2022-08-27T07:49:24Z</time>
      </trkpt>
      <trkpt lat="45.64649" lon="6.53645">
        <ele>1939.6</ele>
        <time>2022-08-27T07:49:30Z</time>
      </trkpt>
      <trkpt lat="45.64648" lon="6.53645">
        <ele>1939.8</ele>
        <time>2022-08-27T07:49:31Z</time>
      </trkpt>
      <trkpt lat="45.64647" lon="6.53645">
        <ele>1939.8</ele>
        <time>2022-08-27T07:49:32Z</time>
      </trkpt>
      <trkpt lat="45.64646" lon="6.53644">
        <ele>1939.8</ele>
        <time>2022-08-27T07:49:33Z</time>
      </trkpt>
      <trkpt lat="45.64645" lon="6.53643">
        <ele>1939.8</ele>
        <time>2022-08-27T07:49:34Z</time>
      </trkpt>
      <trkpt lat="45.64643" lon="6.53643">
        <ele>1940</ele>
        <time>2022-08-27T07:49:35Z</time>
      </trkpt>
      <trkpt lat="45.64642" lon="6.53643">
        <ele>1940</ele>
        <time>2022-08-27T07:49:36Z</time>
      </trkpt>
      <trkpt lat="45.64631" lon="6.53638">
        <ele>1940.4</ele>
        <time>2022-08-27T07:49:43Z</time>
      </trkpt>
      <trkpt lat="45.64618" lon="6.5363">
        <ele>1941.6</ele>
        <time>2022-08-27T07:49:52Z</time>
      </trkpt>
      <trkpt lat="45.64607" lon="6.53626">
        <ele>1943.4</ele>
        <time>2022-08-27T07:50:00Z</time>
      </trkpt>
      <trkpt lat="45.64604" lon="6.53624">
        <ele>1944.2</ele>
        <time>2022-08-27T07:50:06Z</time>
      </trkpt>
      <trkpt lat="45.64603" lon="6.53624">
        <ele>1944.6</ele>
        <time>2022-08-27T07:50:18Z</time>
      </trkpt>
      <trkpt lat="45.64599" lon="6.53622">
        <ele>1945</ele>
        <time>2022-08-27T07:50:28Z</time>
      </trkpt>
      <trkpt lat="45.64592" lon="6.53619">
        <ele>1945.6</ele>
        <time>2022-08-27T07:50:39Z</time>
      </trkpt>
      <trkpt lat="45.64584" lon="6.53612">
        <ele>1946.4</ele>
        <time>2022-08-27T07:50:50Z</time>
      </trkpt>
      <trkpt lat="45.6458" lon="6.53609">
        <ele>1947.2</ele>
        <time>2022-08-27T07:51:00Z</time>
      </trkpt>
      <trkpt lat="45.64574" lon="6.53605">
        <ele>1948</ele>
        <time>2022-08-27T07:51:11Z</time>
      </trkpt>
      <trkpt lat="45.64572" lon="6.53604">
        <ele>1948.4</ele>
        <time>2022-08-27T07:51:22Z</time>
      </trkpt>
      <trkpt lat="45.64568" lon="6.53601">
        <ele>1948.4</ele>
        <time>2022-08-27T07:51:31Z</time>
      </trkpt>
      <trkpt lat="45.64561" lon="6.53599">
        <ele>1949</ele>
        <time>2022-08-27T07:51:41Z</time>
      </trkpt>
      <trkpt lat="45.64552" lon="6.53595">
        <ele>1950.2</ele>
        <time>2022-08-27T07:51:53Z</time>
      </trkpt>
      <trkpt lat="45.64542" lon="6.5359">
        <ele>1952.2</ele>
        <time>2022-08-27T07:52:07Z</time>
      </trkpt>
      <trkpt lat="45.64534" lon="6.53587">
        <ele>1954</ele>
        <time>2022-08-27T07:52:19Z</time>
      </trkpt>
      <trkpt lat="45.64529" lon="6.53589">
        <ele>1955.8</ele>
        <time>2022-08-27T07:52:31Z</time>
      </trkpt>
      <trkpt lat="45.64524" lon="6.5359">
        <ele>1956.4</ele>
        <time>2022-08-27T07:52:43Z</time>
      </trkpt>
      <trkpt lat="45.6452" lon="6.53596">
        <ele>1957.4</ele>
        <time>2022-08-27T07:52:53Z</time>
      </trkpt>
      <trkpt lat="45.64515" lon="6.53604">
        <ele>1959.4</ele>
        <time>2022-08-27T07:53:05Z</time>
      </trkpt>
      <trkpt lat="45.64505" lon="6.53605">
        <ele>1961.8</ele>
        <time>2022-08-27T07:53:19Z</time>
      </trkpt>
      <trkpt lat="45.64502" lon="6.5361">
        <ele>1963.2</ele>
        <time>2022-08-27T07:53:29Z</time>
      </trkpt>
      <trkpt lat="45.64499" lon="6.53616">
        <ele>1963.6</ele>
        <time>2022-08-27T07:53:37Z</time>
      </trkpt>
      <trkpt lat="45.64497" lon="6.53628">
        <ele>1965.2</ele>
        <time>2022-08-27T07:53:50Z</time>
      </trkpt>
      <trkpt lat="45.64494" lon="6.53633">
        <ele>1966.6</ele>
        <time>2022-08-27T07:53:59Z</time>
      </trkpt>
      <trkpt lat="45.64494" lon="6.53634">
        <ele>1967.6</ele>
        <time>2022-08-27T07:54:10Z</time>
      </trkpt>
      <trkpt lat="45.64489" lon="6.5364">
        <ele>1967.8</ele>
        <time>2022-08-27T07:54:21Z</time>
      </trkpt>
      <trkpt lat="45.64486" lon="6.5365">
        <ele>1968.4</ele>
        <time>2022-08-27T07:54:30Z</time>
      </trkpt>
      <trkpt lat="45.64485" lon="6.53656">
        <ele>1969</ele>
        <time>2022-08-27T07:54:40Z</time>
      </trkpt>
      <trkpt lat="45.64483" lon="6.53663">
        <ele>1970.6</ele>
        <time>2022-08-27T07:54:51Z</time>
      </trkpt>
      <trkpt lat="45.64483" lon="6.53667">
        <ele>1972.2</ele>
        <time>2022-08-27T07:55:01Z</time>
      </trkpt>
      <trkpt lat="45.64486" lon="6.53669">
        <ele>1973.2</ele>
        <time>2022-08-27T07:55:14Z</time>
      </trkpt>
      <trkpt lat="45.64485" lon="6.53674">
        <ele>1974.6</ele>
        <time>2022-08-27T07:55:26Z</time>
      </trkpt>
      <trkpt lat="45.64488" lon="6.53679">
        <ele>1976.4</ele>
        <time>2022-08-27T07:55:40Z</time>
      </trkpt>
      <trkpt lat="45.64491" lon="6.53682">
        <ele>1977.4</ele>
        <time>2022-08-27T07:55:49Z</time>
      </trkpt>
      <trkpt lat="45.64495" lon="6.5369">
        <ele>1978.2</ele>
        <time>2022-08-27T07:56:01Z</time>
      </trkpt>
      <trkpt lat="45.64497" lon="6.53689">
        <ele>1978.6</ele>
        <time>2022-08-27T07:56:18Z</time>
      </trkpt>
      <trkpt lat="45.64495" lon="6.53695">
        <ele>1979</ele>
        <time>2022-08-27T07:56:31Z</time>
      </trkpt>
      <trkpt lat="45.64495" lon="6.53704">
        <ele>1980.4</ele>
        <time>2022-08-27T07:56:43Z</time>
      </trkpt>
      <trkpt lat="45.64497" lon="6.53718">
        <ele>1982.2</ele>
        <time>2022-08-27T07:56:57Z</time>
      </trkpt>
      <trkpt lat="45.64498" lon="6.5373">
        <ele>1983.4</ele>
        <time>2022-08-27T07:57:08Z</time>
      </trkpt>
      <trkpt lat="45.64498" lon="6.53737">
        <ele>1984.2</ele>
        <time>2022-08-27T07:57:16Z</time>
      </trkpt>
      <trkpt lat="45.64498" lon="6.53741">
        <ele>1984.6</ele>
        <time>2022-08-27T07:57:19Z</time>
      </trkpt>
      <trkpt lat="45.64498" lon="6.53743">
        <ele>1984.6</ele>
        <time>2022-08-27T07:57:20Z</time>
      </trkpt>
      <trkpt lat="45.64499" lon="6.53746">
        <ele>1984.8</ele>
        <time>2022-08-27T07:57:22Z</time>
      </trkpt>
      <trkpt lat="45.64502" lon="6.53759">
        <ele>1985.6</ele>
        <time>2022-08-27T07:57:31Z</time>
      </trkpt>
      <trkpt lat="45.64506" lon="6.53772">
        <ele>1986.4</ele>
        <time>2022-08-27T07:57:41Z</time>
      </trkpt>
      <trkpt lat="45.64508" lon="6.53777">
        <ele>1987</ele>
        <time>2022-08-27T07:57:49Z</time>
      </trkpt>
      <trkpt lat="45.64509" lon="6.53785">
        <ele>1988.4</ele>
        <time>2022-08-27T07:58:00Z</time>
      </trkpt>
      <trkpt lat="45.6451" lon="6.53797">
        <ele>1989.4</ele>
        <time>2022-08-27T07:58:10Z</time>
      </trkpt>
      <trkpt lat="45.6451" lon="6.538">
        <ele>1989.4</ele>
        <time>2022-08-27T07:58:11Z</time>
      </trkpt>
      <trkpt lat="45.6451" lon="6.53802">
        <ele>1989.4</ele>
        <time>2022-08-27T07:58:12Z</time>
      </trkpt>
      <trkpt lat="45.6451" lon="6.53805">
        <ele>1989.4</ele>
        <time>2022-08-27T07:58:13Z</time>
      </trkpt>
      <trkpt lat="45.64514" lon="6.53825">
        <ele>1989</ele>
        <time>2022-08-27T07:58:20Z</time>
      </trkpt>
      <trkpt lat="45.64513" lon="6.53835">
        <ele>1988.8</ele>
        <time>2022-08-27T07:58:27Z</time>
      </trkpt>
      <trkpt lat="45.64512" lon="6.53833">
        <ele>1988.6</ele>
        <time>2022-08-27T07:58:47Z</time>
      </trkpt>
      <trkpt lat="45.64512" lon="6.53833">
        <ele>1988.4</ele>
        <time>2022-08-27T07:59:06Z</time>
      </trkpt>
      <trkpt lat="45.64513" lon="6.53837">
        <ele>1988.4</ele>
        <time>2022-08-27T07:59:19Z</time>
      </trkpt>
      <trkpt lat="45.64513" lon="6.5384">
        <ele>1988.4</ele>
        <time>2022-08-27T07:59:20Z</time>
      </trkpt>
      <trkpt lat="45.64513" lon="6.53842">
        <ele>1988.4</ele>
        <time>2022-08-27T07:59:21Z</time>
      </trkpt>
      <trkpt lat="45.64515" lon="6.53847">
        <ele>1987.4</ele>
        <time>2022-08-27T07:59:27Z</time>
      </trkpt>
      <trkpt lat="45.64516" lon="6.53854">
        <ele>1986.2</ele>
        <time>2022-08-27T07:59:32Z</time>
      </trkpt>
      <trkpt lat="45.64516" lon="6.53867">
        <ele>1984</ele>
        <time>2022-08-27T07:59:37Z</time>
      </trkpt>
      <trkpt lat="45.64515" lon="6.53868">
        <ele>1983.4</ele>
        <time>2022-08-27T07:59:38Z</time>
      </trkpt>
      <trkpt lat="45.64514" lon="6.53869">
        <ele>1983</ele>
        <time>2022-08-27T07:59:39Z</time>
      </trkpt>
      <trkpt lat="45.64513" lon="6.5387">
        <ele>1982.4</ele>
        <time>2022-08-27T07:59:40Z</time>
      </trkpt>
      <trkpt lat="45.64512" lon="6.53872">
        <ele>1981.8</ele>
        <time>2022-08-27T07:59:41Z</time>
      </trkpt>
      <trkpt lat="45.64512" lon="6.53875">
        <ele>1979.4</ele>
        <time>2022-08-27T07:59:46Z</time>
      </trkpt>
      <trkpt lat="45.64512" lon="6.53874">
        <ele>1977.4</ele>
        <time>2022-08-27T08:00:00Z</time>
      </trkpt>
      <trkpt lat="45.64512" lon="6.53877">
        <ele>1977.4</ele>
        <time>2022-08-27T08:00:14Z</time>
      </trkpt>
      <trkpt lat="45.64512" lon="6.53879">
        <ele>1977.4</ele>
        <time>2022-08-27T08:00:15Z</time>
      </trkpt>
      <trkpt lat="45.64512" lon="6.53882">
        <ele>1976.8</ele>
        <time>2022-08-27T08:00:20Z</time>
      </trkpt>
      <trkpt lat="45.64509" lon="6.53888">
        <ele>1976.6</ele>
        <time>2022-08-27T08:00:27Z</time>
      </trkpt>
      <trkpt lat="45.6451" lon="6.53889">
        <ele>1976.6</ele>
        <time>2022-08-27T08:00:28Z</time>
      </trkpt>
      <trkpt lat="45.6451" lon="6.53901">
        <ele>1976.4</ele>
        <time>2022-08-27T08:00:37Z</time>
      </trkpt>
      <trkpt lat="45.64508" lon="6.53909">
        <ele>1975.4</ele>
        <time>2022-08-27T08:00:48Z</time>
      </trkpt>
      <trkpt lat="45.64504" lon="6.53924">
        <ele>1974.8</ele>
        <time>2022-08-27T08:00:53Z</time>
      </trkpt>
      <trkpt lat="45.64498" lon="6.53953">
        <ele>1972.6</ele>
        <time>2022-08-27T08:01:00Z</time>
      </trkpt>
      <trkpt lat="45.64497" lon="6.53959">
        <ele>1971.2</ele>
        <time>2022-08-27T08:01:02Z</time>
      </trkpt>
      <trkpt lat="45.64496" lon="6.53961">
        <ele>1970.6</ele>
        <time>2022-08-27T08:01:03Z</time>
      </trkpt>
      <trkpt lat="45.64495" lon="6.53964">
        <ele>1969</ele>
        <time>2022-08-27T08:01:07Z</time>
      </trkpt>
      <trkpt lat="45.64496" lon="6.53968">
        <ele>1968.6</ele>
        <time>2022-08-27T08:01:15Z</time>
      </trkpt>
      <trkpt lat="45.64496" lon="6.53972">
        <ele>1968.6</ele>
        <time>2022-08-27T08:01:17Z</time>
      </trkpt>
      <trkpt lat="45.64496" lon="6.53975">
        <ele>1968.6</ele>
        <time>2022-08-27T08:01:18Z</time>
      </trkpt>
      <trkpt lat="45.64495" lon="6.53979">
        <ele>1968.6</ele>
        <time>2022-08-27T08:01:19Z</time>
      </trkpt>
      <trkpt lat="45.64497" lon="6.54002">
        <ele>1968.4</ele>
        <time>2022-08-27T08:01:24Z</time>
      </trkpt>
      <trkpt lat="45.64501" lon="6.5403">
        <ele>1966.8</ele>
        <time>2022-08-27T08:01:29Z</time>
      </trkpt>
      <trkpt lat="45.645" lon="6.54036">
        <ele>1965.8</ele>
        <time>2022-08-27T08:01:30Z</time>
      </trkpt>
      <trkpt lat="45.64499" lon="6.54043">
        <ele>1965.4</ele>
        <time>2022-08-27T08:01:31Z</time>
      </trkpt>
      <trkpt lat="45.64499" lon="6.54048">
        <ele>1965</ele>
        <time>2022-08-27T08:01:32Z</time>
      </trkpt>
      <trkpt lat="45.64499" lon="6.54053">
        <ele>1964.6</ele>
        <time>2022-08-27T08:01:33Z</time>
      </trkpt>
      <trkpt lat="45.645" lon="6.54058">
        <ele>1964.2</ele>
        <time>2022-08-27T08:01:34Z</time>
      </trkpt>
      <trkpt lat="45.64501" lon="6.54064">
        <ele>1963.6</ele>
        <time>2022-08-27T08:01:35Z</time>
      </trkpt>
      <trkpt lat="45.64502" lon="6.54069">
        <ele>1963.2</ele>
        <time>2022-08-27T08:01:36Z</time>
      </trkpt>
      <trkpt lat="45.64501" lon="6.54074">
        <ele>1961.6</ele>
        <time>2022-08-27T08:01:39Z</time>
      </trkpt>
      <trkpt lat="45.645" lon="6.5408">
        <ele>1960</ele>
        <time>2022-08-27T08:01:51Z</time>
      </trkpt>
      <trkpt lat="45.64499" lon="6.54081">
        <ele>1961</ele>
        <time>2022-08-27T08:02:02Z</time>
      </trkpt>
      <trkpt lat="45.64498" lon="6.5408">
        <ele>1961</ele>
        <time>2022-08-27T08:02:20Z</time>
      </trkpt>
      <trkpt lat="45.64499" lon="6.54084">
        <ele>1961</ele>
        <time>2022-08-27T08:02:31Z</time>
      </trkpt>
      <trkpt lat="45.645" lon="6.54092">
        <ele>1961</ele>
        <time>2022-08-27T08:02:40Z</time>
      </trkpt>
      <trkpt lat="45.64501" lon="6.541">
        <ele>1960</ele>
        <time>2022-08-27T08:02:49Z</time>
      </trkpt>
      <trkpt lat="45.645" lon="6.54109">
        <ele>1960</ele>
        <time>2022-08-27T08:02:58Z</time>
      </trkpt>
      <trkpt lat="45.64501" lon="6.5411">
        <ele>1960.8</ele>
        <time>2022-08-27T08:03:07Z</time>
      </trkpt>
      <trkpt lat="45.64504" lon="6.5411">
        <ele>1961</ele>
        <time>2022-08-27T08:03:25Z</time>
      </trkpt>
      <trkpt lat="45.64503" lon="6.54117">
        <ele>1961.2</ele>
        <time>2022-08-27T08:03:34Z</time>
      </trkpt>
      <trkpt lat="45.64504" lon="6.54125">
        <ele>1961.8</ele>
        <time>2022-08-27T08:03:42Z</time>
      </trkpt>
      <trkpt lat="45.64504" lon="6.54131">
        <ele>1962.4</ele>
        <time>2022-08-27T08:03:52Z</time>
      </trkpt>
      <trkpt lat="45.64505" lon="6.54134">
        <ele>1963.2</ele>
        <time>2022-08-27T08:04:03Z</time>
      </trkpt>
      <trkpt lat="45.64505" lon="6.54134">
        <ele>1963.6</ele>
        <time>2022-08-27T08:04:09Z</time>
      </trkpt>
      <trkpt lat="45.64505" lon="6.54137">
        <ele>1964.2</ele>
        <time>2022-08-27T08:04:14Z</time>
      </trkpt>
      <trkpt lat="45.64506" lon="6.54144">
        <ele>1965.6</ele>
        <time>2022-08-27T08:04:25Z</time>
      </trkpt>
      <trkpt lat="45.64509" lon="6.54154">
        <ele>1967.2</ele>
        <time>2022-08-27T08:04:37Z</time>
      </trkpt>
      <trkpt lat="45.6451" lon="6.54162">
        <ele>1968.8</ele>
        <time>2022-08-27T08:04:51Z</time>
      </trkpt>
      <trkpt lat="45.64509" lon="6.54165">
        <ele>1970.4</ele>
        <time>2022-08-27T08:05:02Z</time>
      </trkpt>
      <trkpt lat="45.64508" lon="6.54167">
        <ele>1971.6</ele>
        <time>2022-08-27T08:05:12Z</time>
      </trkpt>
      <trkpt lat="45.64503" lon="6.54162">
        <ele>1972.8</ele>
        <time>2022-08-27T08:05:22Z</time>
      </trkpt>
      <trkpt lat="45.64502" lon="6.54161">
        <ele>1974.2</ele>
        <time>2022-08-27T08:05:32Z</time>
      </trkpt>
      <trkpt lat="45.64502" lon="6.54168">
        <ele>1976</ele>
        <time>2022-08-27T08:05:45Z</time>
      </trkpt>
      <trkpt lat="45.64504" lon="6.54171">
        <ele>1976.4</ele>
        <time>2022-08-27T08:05:52Z</time>
      </trkpt>
      <trkpt lat="45.64504" lon="6.54173">
        <ele>1977.4</ele>
        <time>2022-08-27T08:05:59Z</time>
      </trkpt>
      <trkpt lat="45.64503" lon="6.54175">
        <ele>1978.4</ele>
        <time>2022-08-27T08:06:07Z</time>
      </trkpt>
      <trkpt lat="45.64503" lon="6.54175">
        <ele>1979.6</ele>
        <time>2022-08-27T08:06:20Z</time>
      </trkpt>
      <trkpt lat="45.64504" lon="6.54175">
        <ele>1979.6</ele>
        <time>2022-08-27T08:06:33Z</time>
      </trkpt>
      <trkpt lat="45.64506" lon="6.54175">
        <ele>1979.6</ele>
        <time>2022-08-27T08:06:45Z</time>
      </trkpt>
      <trkpt lat="45.64504" lon="6.54175">
        <ele>1979.4</ele>
        <time>2022-08-27T08:06:56Z</time>
      </trkpt>
      <trkpt lat="45.64503" lon="6.54175">
        <ele>1979.2</ele>
        <time>2022-08-27T08:07:09Z</time>
      </trkpt>
      <trkpt lat="45.645" lon="6.54176">
        <ele>1979</ele>
        <time>2022-08-27T08:07:25Z</time>
      </trkpt>
      <trkpt lat="45.645" lon="6.54178">
        <ele>1978.8</ele>
        <time>2022-08-27T08:07:41Z</time>
      </trkpt>
      <trkpt lat="45.64501" lon="6.54182">
        <ele>1977.8</ele>
        <time>2022-08-27T08:07:53Z</time>
      </trkpt>
      <trkpt lat="45.64499" lon="6.54185">
        <ele>1977.4</ele>
        <time>2022-08-27T08:08:03Z</time>
      </trkpt>
      <trkpt lat="45.64498" lon="6.54186">
        <ele>1977.8</ele>
        <time>2022-08-27T08:08:16Z</time>
      </trkpt>
      <trkpt lat="45.64497" lon="6.54186">
        <ele>1978.4</ele>
        <time>2022-08-27T08:08:28Z</time>
      </trkpt>
      <trkpt lat="45.64496" lon="6.54187">
        <ele>1979.6</ele>
        <time>2022-08-27T08:08:41Z</time>
      </trkpt>
      <trkpt lat="45.64495" lon="6.54186">
        <ele>1979.8</ele>
        <time>2022-08-27T08:08:53Z</time>
      </trkpt>
      <trkpt lat="45.64495" lon="6.54189">
        <ele>1980</ele>
        <time>2022-08-27T08:09:06Z</time>
      </trkpt>
      <trkpt lat="45.64491" lon="6.54189">
        <ele>1980.6</ele>
        <time>2022-08-27T08:09:16Z</time>
      </trkpt>
      <trkpt lat="45.64492" lon="6.5419">
        <ele>1981.2</ele>
        <time>2022-08-27T08:09:30Z</time>
      </trkpt>
      <trkpt lat="45.64492" lon="6.54195">
        <ele>1981.6</ele>
        <time>2022-08-27T08:09:45Z</time>
      </trkpt>
      <trkpt lat="45.64492" lon="6.542">
        <ele>1982.4</ele>
        <time>2022-08-27T08:09:55Z</time>
      </trkpt>
      <trkpt lat="45.64488" lon="6.54202">
        <ele>1983.6</ele>
        <time>2022-08-27T08:10:05Z</time>
      </trkpt>
      <trkpt lat="45.64488" lon="6.54205">
        <ele>1985</ele>
        <time>2022-08-27T08:10:17Z</time>
      </trkpt>
      <trkpt lat="45.64483" lon="6.54206">
        <ele>1985.8</ele>
        <time>2022-08-27T08:10:28Z</time>
      </trkpt>
      <trkpt lat="45.64476" lon="6.54208">
        <ele>1986.4</ele>
        <time>2022-08-27T08:10:38Z</time>
      </trkpt>
      <trkpt lat="45.64474" lon="6.5421">
        <ele>1986.8</ele>
        <time>2022-08-27T08:10:45Z</time>
      </trkpt>
      <trkpt lat="45.64469" lon="6.54211">
        <ele>1987</ele>
        <time>2022-08-27T08:10:52Z</time>
      </trkpt>
      <trkpt lat="45.64468" lon="6.54218">
        <ele>1987.2</ele>
        <time>2022-08-27T08:10:59Z</time>
      </trkpt>
      <trkpt lat="45.64465" lon="6.54221">
        <ele>1988.2</ele>
        <time>2022-08-27T08:11:07Z</time>
      </trkpt>
      <trkpt lat="45.64457" lon="6.54225">
        <ele>1989.2</ele>
        <time>2022-08-27T08:11:19Z</time>
      </trkpt>
      <trkpt lat="45.64455" lon="6.54226">
        <ele>1989.2</ele>
        <time>2022-08-27T08:11:21Z</time>
      </trkpt>
      <trkpt lat="45.6445" lon="6.54229">
        <ele>1989.2</ele>
        <time>2022-08-27T08:11:27Z</time>
      </trkpt>
      <trkpt lat="45.64445" lon="6.54231">
        <ele>1991</ele>
        <time>2022-08-27T08:11:39Z</time>
      </trkpt>
      <trkpt lat="45.64438" lon="6.5423">
        <ele>1991.6</ele>
        <time>2022-08-27T08:11:47Z</time>
      </trkpt>
      <trkpt lat="45.64432" lon="6.54229">
        <ele>1992</ele>
        <time>2022-08-27T08:11:55Z</time>
      </trkpt>
      <trkpt lat="45.64428" lon="6.54229">
        <ele>1992.6</ele>
        <time>2022-08-27T08:12:00Z</time>
      </trkpt>
      <trkpt lat="45.64419" lon="6.54226">
        <ele>1993.2</ele>
        <time>2022-08-27T08:12:11Z</time>
      </trkpt>
      <trkpt lat="45.64414" lon="6.54226">
        <ele>1993.6</ele>
        <time>2022-08-27T08:12:15Z</time>
      </trkpt>
      <trkpt lat="45.64411" lon="6.5423">
        <ele>1994.2</ele>
        <time>2022-08-27T08:12:21Z</time>
      </trkpt>
      <trkpt lat="45.64405" lon="6.54233">
        <ele>1994</ele>
        <time>2022-08-27T08:12:29Z</time>
      </trkpt>
      <trkpt lat="45.64398" lon="6.54237">
        <ele>1994.4</ele>
        <time>2022-08-27T08:12:37Z</time>
      </trkpt>
      <trkpt lat="45.64397" lon="6.54238">
        <ele>1994.4</ele>
        <time>2022-08-27T08:12:38Z</time>
      </trkpt>
      <trkpt lat="45.64395" lon="6.54238">
        <ele>1994.6</ele>
        <time>2022-08-27T08:12:40Z</time>
      </trkpt>
      <trkpt lat="45.64392" lon="6.54237">
        <ele>1994.6</ele>
        <time>2022-08-27T08:12:42Z</time>
      </trkpt>
      <trkpt lat="45.64385" lon="6.54245">
        <ele>1995.6</ele>
        <time>2022-08-27T08:13:04Z</time>
      </trkpt>
      <trkpt lat="45.64385" lon="6.54247">
        <ele>1995.4</ele>
        <time>2022-08-27T08:13:05Z</time>
      </trkpt>
      <trkpt lat="45.64385" lon="6.54248">
        <ele>1995.4</ele>
        <time>2022-08-27T08:13:06Z</time>
      </trkpt>
      <trkpt lat="45.64383" lon="6.54256">
        <ele>1995</ele>
        <time>2022-08-27T08:13:11Z</time>
      </trkpt>
      <trkpt lat="45.64384" lon="6.54265">
        <ele>1995</ele>
        <time>2022-08-27T08:13:17Z</time>
      </trkpt>
      <trkpt lat="45.64384" lon="6.54273">
        <ele>1995.2</ele>
        <time>2022-08-27T08:13:24Z</time>
      </trkpt>
      <trkpt lat="45.64384" lon="6.54286">
        <ele>1995.4</ele>
        <time>2022-08-27T08:13:31Z</time>
      </trkpt>
      <trkpt lat="45.64384" lon="6.54298">
        <ele>1995.4</ele>
        <time>2022-08-27T08:13:35Z</time>
      </trkpt>
      <trkpt lat="45.64385" lon="6.54306">
        <ele>1995.4</ele>
        <time>2022-08-27T08:13:37Z</time>
      </trkpt>
      <trkpt lat="45.64386" lon="6.54309">
        <ele>1995.4</ele>
        <time>2022-08-27T08:13:38Z</time>
      </trkpt>
      <trkpt lat="45.64386" lon="6.54319">
        <ele>1996</ele>
        <time>2022-08-27T08:13:45Z</time>
      </trkpt>
      <trkpt lat="45.64387" lon="6.54321">
        <ele>1997</ele>
        <time>2022-08-27T08:13:56Z</time>
      </trkpt>
      <trkpt lat="45.64387" lon="6.54318">
        <ele>1996.8</ele>
        <time>2022-08-27T08:14:15Z</time>
      </trkpt>
      <trkpt lat="45.64387" lon="6.54318">
        <ele>1996.6</ele>
        <time>2022-08-27T08:14:34Z</time>
      </trkpt>
      <trkpt lat="45.64388" lon="6.5432">
        <ele>1996.6</ele>
        <time>2022-08-27T08:14:53Z</time>
      </trkpt>
      <trkpt lat="45.64388" lon="6.54323">
        <ele>1996.8</ele>
        <time>2022-08-27T08:15:05Z</time>
      </trkpt>
      <trkpt lat="45.6439" lon="6.54321">
        <ele>1997.2</ele>
        <time>2022-08-27T08:15:22Z</time>
      </trkpt>
      <trkpt lat="45.64389" lon="6.5432">
        <ele>1997</ele>
        <time>2022-08-27T08:15:43Z</time>
      </trkpt>
      <trkpt lat="45.64386" lon="6.54322">
        <ele>1997</ele>
        <time>2022-08-27T08:16:02Z</time>
      </trkpt>
      <trkpt lat="45.64387" lon="6.54322">
        <ele>1997</ele>
        <time>2022-08-27T08:16:20Z</time>
      </trkpt>
      <trkpt lat="45.64389" lon="6.54325">
        <ele>1996.8</ele>
        <time>2022-08-27T08:16:41Z</time>
      </trkpt>
      <trkpt lat="45.64388" lon="6.54327">
        <ele>1996.8</ele>
        <time>2022-08-27T08:17:03Z</time>
      </trkpt>
      <trkpt lat="45.6439" lon="6.54325">
        <ele>1996.8</ele>
        <time>2022-08-27T08:17:25Z</time>
      </trkpt>
      <trkpt lat="45.64392" lon="6.54326">
        <ele>1996.8</ele>
        <time>2022-08-27T08:17:41Z</time>
      </trkpt>
      <trkpt lat="45.64396" lon="6.54336">
        <ele>1996.8</ele>
        <time>2022-08-27T08:17:55Z</time>
      </trkpt>
      <trkpt lat="45.64399" lon="6.5434">
        <ele>1996.8</ele>
        <time>2022-08-27T08:18:08Z</time>
      </trkpt>
      <trkpt lat="45.64406" lon="6.54344">
        <ele>1996.8</ele>
        <time>2022-08-27T08:18:20Z</time>
      </trkpt>
      <trkpt lat="45.64411" lon="6.54347">
        <ele>1996.8</ele>
        <time>2022-08-27T08:18:36Z</time>
      </trkpt>
      <trkpt lat="45.64412" lon="6.5435">
        <ele>2004.2</ele>
        <time>2022-08-27T08:18:39Z</time>
      </trkpt>
      <trkpt lat="45.64412" lon="6.54351">
        <ele>2004.2</ele>
        <time>2022-08-27T08:18:40Z</time>
      </trkpt>
      <trkpt lat="45.64413" lon="6.5436">
        <ele>2005.2</ele>
        <time>2022-08-27T08:18:50Z</time>
      </trkpt>
      <trkpt lat="45.64416" lon="6.54371">
        <ele>2006.6</ele>
        <time>2022-08-27T08:19:02Z</time>
      </trkpt>
      <trkpt lat="45.64422" lon="6.54379">
        <ele>2007.6</ele>
        <time>2022-08-27T08:19:12Z</time>
      </trkpt>
      <trkpt lat="45.64428" lon="6.54385">
        <ele>2009.2</ele>
        <time>2022-08-27T08:19:24Z</time>
      </trkpt>
      <trkpt lat="45.64436" lon="6.54391">
        <ele>2011</ele>
        <time>2022-08-27T08:19:39Z</time>
      </trkpt>
      <trkpt lat="45.64444" lon="6.544">
        <ele>2012.4</ele>
        <time>2022-08-27T08:19:52Z</time>
      </trkpt>
      <trkpt lat="45.64451" lon="6.54408">
        <ele>2013.2</ele>
        <time>2022-08-27T08:20:05Z</time>
      </trkpt>
      <trkpt lat="45.64457" lon="6.54418">
        <ele>2015</ele>
        <time>2022-08-27T08:20:20Z</time>
      </trkpt>
      <trkpt lat="45.64462" lon="6.54427">
        <ele>2016.4</ele>
        <time>2022-08-27T08:20:33Z</time>
      </trkpt>
      <trkpt lat="45.64467" lon="6.54435">
        <ele>2018.2</ele>
        <time>2022-08-27T08:20:49Z</time>
      </trkpt>
      <trkpt lat="45.64473" lon="6.54448">
        <ele>2019.8</ele>
        <time>2022-08-27T08:21:05Z</time>
      </trkpt>
      <trkpt lat="45.64471" lon="6.54453">
        <ele>2021.8</ele>
        <time>2022-08-27T08:21:18Z</time>
      </trkpt>
      <trkpt lat="45.64472" lon="6.5446">
        <ele>2023.8</ele>
        <time>2022-08-27T08:21:31Z</time>
      </trkpt>
      <trkpt lat="45.64474" lon="6.54461">
        <ele>2024.8</ele>
        <time>2022-08-27T08:21:38Z</time>
      </trkpt>
      <trkpt lat="45.64475" lon="6.54466">
        <ele>2026</ele>
        <time>2022-08-27T08:21:50Z</time>
      </trkpt>
      <trkpt lat="45.64476" lon="6.54472">
        <ele>2027.2</ele>
        <time>2022-08-27T08:22:01Z</time>
      </trkpt>
      <trkpt lat="45.64477" lon="6.54475">
        <ele>2028.4</ele>
        <time>2022-08-27T08:22:10Z</time>
      </trkpt>
      <trkpt lat="45.64478" lon="6.54481">
        <ele>2029.4</ele>
        <time>2022-08-27T08:22:20Z</time>
      </trkpt>
      <trkpt lat="45.6448" lon="6.54487">
        <ele>2030.8</ele>
        <time>2022-08-27T08:22:32Z</time>
      </trkpt>
      <trkpt lat="45.64483" lon="6.54491">
        <ele>2032.4</ele>
        <time>2022-08-27T08:22:46Z</time>
      </trkpt>
      <trkpt lat="45.6449" lon="6.54491">
        <ele>2033.8</ele>
        <time>2022-08-27T08:23:00Z</time>
      </trkpt>
      <trkpt lat="45.64497" lon="6.54499">
        <ele>2036</ele>
        <time>2022-08-27T08:23:15Z</time>
      </trkpt>
      <trkpt lat="45.64499" lon="6.54503">
        <ele>2037.2</ele>
        <time>2022-08-27T08:23:27Z</time>
      </trkpt>
      <trkpt lat="45.64503" lon="6.54504">
        <ele>2039</ele>
        <time>2022-08-27T08:23:39Z</time>
      </trkpt>
      <trkpt lat="45.64509" lon="6.5451">
        <ele>2040</ele>
        <time>2022-08-27T08:23:53Z</time>
      </trkpt>
      <trkpt lat="45.64513" lon="6.54518">
        <ele>2041.6</ele>
        <time>2022-08-27T08:24:04Z</time>
      </trkpt>
      <trkpt lat="45.64515" lon="6.54522">
        <ele>2043.4</ele>
        <time>2022-08-27T08:24:16Z</time>
      </trkpt>
      <trkpt lat="45.64514" lon="6.54527">
        <ele>2044.6</ele>
        <time>2022-08-27T08:24:27Z</time>
      </trkpt>
      <trkpt lat="45.64515" lon="6.54537">
        <ele>2046</ele>
        <time>2022-08-27T08:24:39Z</time>
      </trkpt>
      <trkpt lat="45.64517" lon="6.5454">
        <ele>2046.2</ele>
        <time>2022-08-27T08:24:43Z</time>
      </trkpt>
      <trkpt lat="45.6452" lon="6.54548">
        <ele>2046.4</ele>
        <time>2022-08-27T08:24:51Z</time>
      </trkpt>
      <trkpt lat="45.64523" lon="6.54556">
        <ele>2047</ele>
        <time>2022-08-27T08:25:00Z</time>
      </trkpt>
      <trkpt lat="45.64523" lon="6.54562">
        <ele>2047.8</ele>
        <time>2022-08-27T08:25:10Z</time>
      </trkpt>
      <trkpt lat="45.64527" lon="6.54568">
        <ele>2048.4</ele>
        <time>2022-08-27T08:25:20Z</time>
      </trkpt>
      <trkpt lat="45.64528" lon="6.54569">
        <ele>2048.6</ele>
        <time>2022-08-27T08:25:27Z</time>
      </trkpt>
      <trkpt lat="45.64528" lon="6.54569">
        <ele>2048.6</ele>
        <time>2022-08-27T08:25:36Z</time>
      </trkpt>
      <trkpt lat="45.64528" lon="6.54569">
        <ele>2048.6</ele>
        <time>2022-08-27T08:25:57Z</time>
      </trkpt>
      <trkpt lat="45.64528" lon="6.5457">
        <ele>2048.4</ele>
        <time>2022-08-27T08:26:12Z</time>
      </trkpt>
      <trkpt lat="45.64529" lon="6.54571">
        <ele>2048.6</ele>
        <time>2022-08-27T08:26:36Z</time>
      </trkpt>
      <trkpt lat="45.64531" lon="6.54576">
        <ele>2048.4</ele>
        <time>2022-08-27T08:26:43Z</time>
      </trkpt>
      <trkpt lat="45.64533" lon="6.54582">
        <ele>2048.2</ele>
        <time>2022-08-27T08:26:49Z</time>
      </trkpt>
      <trkpt lat="45.64536" lon="6.54588">
        <ele>2047.2</ele>
        <time>2022-08-27T08:26:58Z</time>
      </trkpt>
      <trkpt lat="45.64541" lon="6.54595">
        <ele>2046.2</ele>
        <time>2022-08-27T08:27:07Z</time>
      </trkpt>
      <trkpt lat="45.64542" lon="6.54604">
        <ele>2045.6</ele>
        <time>2022-08-27T08:27:16Z</time>
      </trkpt>
      <trkpt lat="45.64544" lon="6.54608">
        <ele>2044.4</ele>
        <time>2022-08-27T08:27:23Z</time>
      </trkpt>
      <trkpt lat="45.64544" lon="6.54616">
        <ele>2042.6</ele>
        <time>2022-08-27T08:27:33Z</time>
      </trkpt>
      <trkpt lat="45.64542" lon="6.54623">
        <ele>2040.8</ele>
        <time>2022-08-27T08:27:42Z</time>
      </trkpt>
      <trkpt lat="45.64542" lon="6.54625">
        <ele>2041</ele>
        <time>2022-08-27T08:27:56Z</time>
      </trkpt>
      <trkpt lat="45.64543" lon="6.54628">
        <ele>2040.8</ele>
        <time>2022-08-27T08:28:04Z</time>
      </trkpt>
      <trkpt lat="45.64546" lon="6.54639">
        <ele>2040.6</ele>
        <time>2022-08-27T08:28:13Z</time>
      </trkpt>
      <trkpt lat="45.64549" lon="6.54649">
        <ele>2041.8</ele>
        <time>2022-08-27T08:28:24Z</time>
      </trkpt>
      <trkpt lat="45.64551" lon="6.54658">
        <ele>2043</ele>
        <time>2022-08-27T08:28:33Z</time>
      </trkpt>
      <trkpt lat="45.64553" lon="6.54668">
        <ele>2043.8</ele>
        <time>2022-08-27T08:28:42Z</time>
      </trkpt>
      <trkpt lat="45.64556" lon="6.5468">
        <ele>2044.6</ele>
        <time>2022-08-27T08:28:51Z</time>
      </trkpt>
      <trkpt lat="45.64559" lon="6.54692">
        <ele>2045.4</ele>
        <time>2022-08-27T08:29:01Z</time>
      </trkpt>
      <trkpt lat="45.64562" lon="6.54703">
        <ele>2046.2</ele>
        <time>2022-08-27T08:29:10Z</time>
      </trkpt>
      <trkpt lat="45.64564" lon="6.54713">
        <ele>2046.6</ele>
        <time>2022-08-27T08:29:19Z</time>
      </trkpt>
      <trkpt lat="45.64569" lon="6.54724">
        <ele>2047</ele>
        <time>2022-08-27T08:29:29Z</time>
      </trkpt>
      <trkpt lat="45.64575" lon="6.54738">
        <ele>2046</ele>
        <time>2022-08-27T08:29:40Z</time>
      </trkpt>
      <trkpt lat="45.64579" lon="6.54752">
        <ele>2046</ele>
        <time>2022-08-27T08:29:50Z</time>
      </trkpt>
      <trkpt lat="45.64581" lon="6.54755">
        <ele>2046.2</ele>
        <time>2022-08-27T08:29:53Z</time>
      </trkpt>
      <trkpt lat="45.64584" lon="6.54759">
        <ele>2046.2</ele>
        <time>2022-08-27T08:29:57Z</time>
      </trkpt>
      <trkpt lat="45.64584" lon="6.54761">
        <ele>2046</ele>
        <time>2022-08-27T08:29:58Z</time>
      </trkpt>
      <trkpt lat="45.64586" lon="6.54765">
        <ele>2045.8</ele>
        <time>2022-08-27T08:30:02Z</time>
      </trkpt>
      <trkpt lat="45.64591" lon="6.54775">
        <ele>2045.4</ele>
        <time>2022-08-27T08:30:10Z</time>
      </trkpt>
      <trkpt lat="45.64592" lon="6.5478">
        <ele>2045.2</ele>
        <time>2022-08-27T08:30:18Z</time>
      </trkpt>
      <trkpt lat="45.64594" lon="6.54784">
        <ele>2045</ele>
        <time>2022-08-27T08:30:23Z</time>
      </trkpt>
      <trkpt lat="45.64595" lon="6.54785">
        <ele>2045</ele>
        <time>2022-08-27T08:30:24Z</time>
      </trkpt>
      <trkpt lat="45.64597" lon="6.54788">
        <ele>2044.6</ele>
        <time>2022-08-27T08:30:30Z</time>
      </trkpt>
      <trkpt lat="45.64603" lon="6.54801">
        <ele>2044</ele>
        <time>2022-08-27T08:30:35Z</time>
      </trkpt>
      <trkpt lat="45.64603" lon="6.54802">
        <ele>2043.8</ele>
        <time>2022-08-27T08:30:36Z</time>
      </trkpt>
      <trkpt lat="45.64605" lon="6.54803">
        <ele>2043.4</ele>
        <time>2022-08-27T08:30:37Z</time>
      </trkpt>
      <trkpt lat="45.64607" lon="6.54806">
        <ele>2043.2</ele>
        <time>2022-08-27T08:30:38Z</time>
      </trkpt>
      <trkpt lat="45.64609" lon="6.54809">
        <ele>2043.2</ele>
        <time>2022-08-27T08:30:39Z</time>
      </trkpt>
      <trkpt lat="45.64611" lon="6.54812">
        <ele>2043</ele>
        <time>2022-08-27T08:30:40Z</time>
      </trkpt>
      <trkpt lat="45.64613" lon="6.54814">
        <ele>2042.8</ele>
        <time>2022-08-27T08:30:41Z</time>
      </trkpt>
      <trkpt lat="45.64615" lon="6.54816">
        <ele>2042.6</ele>
        <time>2022-08-27T08:30:42Z</time>
      </trkpt>
      <trkpt lat="45.64616" lon="6.54819">
        <ele>2041.6</ele>
        <time>2022-08-27T08:30:46Z</time>
      </trkpt>
      <trkpt lat="45.64618" lon="6.54822">
        <ele>2041.2</ele>
        <time>2022-08-27T08:30:53Z</time>
      </trkpt>
      <trkpt lat="45.64619" lon="6.54824">
        <ele>2041.2</ele>
        <time>2022-08-27T08:30:54Z</time>
      </trkpt>
      <trkpt lat="45.6463" lon="6.54843">
        <ele>2040.4</ele>
        <time>2022-08-27T08:31:01Z</time>
      </trkpt>
      <trkpt lat="45.64644" lon="6.54867">
        <ele>2039</ele>
        <time>2022-08-27T08:31:07Z</time>
      </trkpt>
      <trkpt lat="45.64649" lon="6.5488">
        <ele>2038</ele>
        <time>2022-08-27T08:31:12Z</time>
      </trkpt>
      <trkpt lat="45.6465" lon="6.54883">
        <ele>2037.8</ele>
        <time>2022-08-27T08:31:13Z</time>
      </trkpt>
      <trkpt lat="45.64651" lon="6.54885">
        <ele>2037.8</ele>
        <time>2022-08-27T08:31:14Z</time>
      </trkpt>
      <trkpt lat="45.6466" lon="6.549">
        <ele>2037</ele>
        <time>2022-08-27T08:31:19Z</time>
      </trkpt>
      <trkpt lat="45.64666" lon="6.54911">
        <ele>2036</ele>
        <time>2022-08-27T08:31:23Z</time>
      </trkpt>
      <trkpt lat="45.64667" lon="6.54913">
        <ele>2035.2</ele>
        <time>2022-08-27T08:31:31Z</time>
      </trkpt>
      <trkpt lat="45.64669" lon="6.54915">
        <ele>2034.6</ele>
        <time>2022-08-27T08:31:41Z</time>
      </trkpt>
      <trkpt lat="45.64671" lon="6.54917">
        <ele>2034.6</ele>
        <time>2022-08-27T08:31:42Z</time>
      </trkpt>
      <trkpt lat="45.64677" lon="6.5493">
        <ele>2033.6</ele>
        <time>2022-08-27T08:31:47Z</time>
      </trkpt>
      <trkpt lat="45.64677" lon="6.5493">
        <ele>2032.4</ele>
        <time>2022-08-27T08:31:53Z</time>
      </trkpt>
      <trkpt lat="45.64679" lon="6.54933">
        <ele>2032.2</ele>
        <time>2022-08-27T08:31:58Z</time>
      </trkpt>
      <trkpt lat="45.6468" lon="6.54935">
        <ele>2032</ele>
        <time>2022-08-27T08:32:02Z</time>
      </trkpt>
      <trkpt lat="45.64681" lon="6.54937">
        <ele>2032</ele>
        <time>2022-08-27T08:32:07Z</time>
      </trkpt>
      <trkpt lat="45.64684" lon="6.54943">
        <ele>2031.2</ele>
        <time>2022-08-27T08:32:17Z</time>
      </trkpt>
      <trkpt lat="45.64688" lon="6.54951">
        <ele>2030.8</ele>
        <time>2022-08-27T08:32:25Z</time>
      </trkpt>
      <trkpt lat="45.64688" lon="6.54952">
        <ele>2030.8</ele>
        <time>2022-08-27T08:32:26Z</time>
      </trkpt>
      <trkpt lat="45.64689" lon="6.54953">
        <ele>2030.6</ele>
        <time>2022-08-27T08:32:27Z</time>
      </trkpt>
      <trkpt lat="45.64691" lon="6.54962">
        <ele>2029.8</ele>
        <time>2022-08-27T08:32:33Z</time>
      </trkpt>
      <trkpt lat="45.64697" lon="6.54973">
        <ele>2028.8</ele>
        <time>2022-08-27T08:32:40Z</time>
      </trkpt>
      <trkpt lat="45.64698" lon="6.5498">
        <ele>2027.6</ele>
        <time>2022-08-27T08:32:45Z</time>
      </trkpt>
      <trkpt lat="45.64699" lon="6.54981">
        <ele>2027.6</ele>
        <time>2022-08-27T08:32:46Z</time>
      </trkpt>
      <trkpt lat="45.64699" lon="6.54982">
        <ele>2027.6</ele>
        <time>2022-08-27T08:32:47Z</time>
      </trkpt>
      <trkpt lat="45.64702" lon="6.54989">
        <ele>2028</ele>
        <time>2022-08-27T08:32:54Z</time>
      </trkpt>
      <trkpt lat="45.64704" lon="6.54994">
        <ele>2029.2</ele>
        <time>2022-08-27T08:33:03Z</time>
      </trkpt>
      <trkpt lat="45.64705" lon="6.55006">
        <ele>2029.6</ele>
        <time>2022-08-27T08:33:11Z</time>
      </trkpt>
      <trkpt lat="45.64705" lon="6.55008">
        <ele>2029.6</ele>
        <time>2022-08-27T08:33:12Z</time>
      </trkpt>
      <trkpt lat="45.64706" lon="6.55012">
        <ele>2029.8</ele>
        <time>2022-08-27T08:33:16Z</time>
      </trkpt>
      <trkpt lat="45.64706" lon="6.55014">
        <ele>2029.8</ele>
        <time>2022-08-27T08:33:17Z</time>
      </trkpt>
      <trkpt lat="45.64706" lon="6.55015">
        <ele>2029.8</ele>
        <time>2022-08-27T08:33:18Z</time>
      </trkpt>
      <trkpt lat="45.64706" lon="6.55021">
        <ele>2029</ele>
        <time>2022-08-27T08:33:24Z</time>
      </trkpt>
      <trkpt lat="45.64706" lon="6.55025">
        <ele>2027.8</ele>
        <time>2022-08-27T08:33:28Z</time>
      </trkpt>
      <trkpt lat="45.64706" lon="6.55027">
        <ele>2027.6</ele>
        <time>2022-08-27T08:33:29Z</time>
      </trkpt>
      <trkpt lat="45.64708" lon="6.55037">
        <ele>2025.8</ele>
        <time>2022-08-27T08:33:35Z</time>
      </trkpt>
      <trkpt lat="45.64709" lon="6.55042">
        <ele>2024.8</ele>
        <time>2022-08-27T08:33:39Z</time>
      </trkpt>
      <trkpt lat="45.6471" lon="6.55047">
        <ele>2024.4</ele>
        <time>2022-08-27T08:33:44Z</time>
      </trkpt>
      <trkpt lat="45.64712" lon="6.55051">
        <ele>2024</ele>
        <time>2022-08-27T08:33:48Z</time>
      </trkpt>
      <trkpt lat="45.64712" lon="6.55054">
        <ele>2023.8</ele>
        <time>2022-08-27T08:33:52Z</time>
      </trkpt>
      <trkpt lat="45.64713" lon="6.55055">
        <ele>2023.8</ele>
        <time>2022-08-27T08:33:53Z</time>
      </trkpt>
      <trkpt lat="45.64714" lon="6.55057">
        <ele>2023.6</ele>
        <time>2022-08-27T08:33:54Z</time>
      </trkpt>
      <trkpt lat="45.64714" lon="6.55058">
        <ele>2023.6</ele>
        <time>2022-08-27T08:33:55Z</time>
      </trkpt>
      <trkpt lat="45.64715" lon="6.55059">
        <ele>2023.4</ele>
        <time>2022-08-27T08:33:56Z</time>
      </trkpt>
      <trkpt lat="45.64715" lon="6.55061">
        <ele>2023.2</ele>
        <time>2022-08-27T08:33:57Z</time>
      </trkpt>
      <trkpt lat="45.64716" lon="6.55065">
        <ele>2022.8</ele>
        <time>2022-08-27T08:34:02Z</time>
      </trkpt>
      <trkpt lat="45.64717" lon="6.55072">
        <ele>2022.4</ele>
        <time>2022-08-27T08:34:10Z</time>
      </trkpt>
      <trkpt lat="45.64718" lon="6.55078">
        <ele>2022.6</ele>
        <time>2022-08-27T08:34:18Z</time>
      </trkpt>
      <trkpt lat="45.64719" lon="6.55087">
        <ele>2022.8</ele>
        <time>2022-08-27T08:34:27Z</time>
      </trkpt>
      <trkpt lat="45.64719" lon="6.5509">
        <ele>2022.8</ele>
        <time>2022-08-27T08:34:29Z</time>
      </trkpt>
      <trkpt lat="45.64721" lon="6.55098">
        <ele>2023</ele>
        <time>2022-08-27T08:34:38Z</time>
      </trkpt>
      <trkpt lat="45.64722" lon="6.55106">
        <ele>2023</ele>
        <time>2022-08-27T08:34:47Z</time>
      </trkpt>
      <trkpt lat="45.64723" lon="6.55114">
        <ele>2023.2</ele>
        <time>2022-08-27T08:34:55Z</time>
      </trkpt>
      <trkpt lat="45.64724" lon="6.55119">
        <ele>2023.2</ele>
        <time>2022-08-27T08:35:01Z</time>
      </trkpt>
      <trkpt lat="45.64726" lon="6.55124">
        <ele>2023</ele>
        <time>2022-08-27T08:35:06Z</time>
      </trkpt>
      <trkpt lat="45.64727" lon="6.55126">
        <ele>2023</ele>
        <time>2022-08-27T08:35:07Z</time>
      </trkpt>
      <trkpt lat="45.6473" lon="6.55134">
        <ele>2023.2</ele>
        <time>2022-08-27T08:35:16Z</time>
      </trkpt>
      <trkpt lat="45.64731" lon="6.5514">
        <ele>2024</ele>
        <time>2022-08-27T08:35:25Z</time>
      </trkpt>
      <trkpt lat="45.64732" lon="6.55152">
        <ele>2024</ele>
        <time>2022-08-27T08:35:31Z</time>
      </trkpt>
      <trkpt lat="45.64733" lon="6.55163">
        <ele>2023.4</ele>
        <time>2022-08-27T08:35:36Z</time>
      </trkpt>
      <trkpt lat="45.64735" lon="6.55173">
        <ele>2023.6</ele>
        <time>2022-08-27T08:35:46Z</time>
      </trkpt>
      <trkpt lat="45.64735" lon="6.55175">
        <ele>2023.8</ele>
        <time>2022-08-27T08:35:47Z</time>
      </trkpt>
      <trkpt lat="45.64735" lon="6.55176">
        <ele>2024</ele>
        <time>2022-08-27T08:35:48Z</time>
      </trkpt>
      <trkpt lat="45.64737" lon="6.55187">
        <ele>2024.8</ele>
        <time>2022-08-27T08:35:57Z</time>
      </trkpt>
      <trkpt lat="45.64739" lon="6.55195">
        <ele>2025</ele>
        <time>2022-08-27T08:36:06Z</time>
      </trkpt>
      <trkpt lat="45.64737" lon="6.55204">
        <ele>2025.2</ele>
        <time>2022-08-27T08:36:17Z</time>
      </trkpt>
      <trkpt lat="45.64735" lon="6.55214">
        <ele>2025.8</ele>
        <time>2022-08-27T08:36:26Z</time>
      </trkpt>
      <trkpt lat="45.64735" lon="6.55224">
        <ele>2026.6</ele>
        <time>2022-08-27T08:36:38Z</time>
      </trkpt>
      <trkpt lat="45.64737" lon="6.55236">
        <ele>2026.8</ele>
        <time>2022-08-27T08:36:50Z</time>
      </trkpt>
      <trkpt lat="45.64739" lon="6.55245">
        <ele>2027.4</ele>
        <time>2022-08-27T08:37:01Z</time>
      </trkpt>
      <trkpt lat="45.6474" lon="6.55256">
        <ele>2028</ele>
        <time>2022-08-27T08:37:12Z</time>
      </trkpt>
      <trkpt lat="45.64745" lon="6.55264">
        <ele>2028.6</ele>
        <time>2022-08-27T08:37:24Z</time>
      </trkpt>
      <trkpt lat="45.64748" lon="6.5527">
        <ele>2028</ele>
        <time>2022-08-27T08:37:34Z</time>
      </trkpt>
      <trkpt lat="45.64748" lon="6.55276">
        <ele>2028.4</ele>
        <time>2022-08-27T08:37:42Z</time>
      </trkpt>
      <trkpt lat="45.6475" lon="6.55288">
        <ele>2029.4</ele>
        <time>2022-08-27T08:37:56Z</time>
      </trkpt>
      <trkpt lat="45.64751" lon="6.55294">
        <ele>2030.6</ele>
        <time>2022-08-27T08:38:08Z</time>
      </trkpt>
      <trkpt lat="45.64756" lon="6.55304">
        <ele>2031</ele>
        <time>2022-08-27T08:38:18Z</time>
      </trkpt>
      <trkpt lat="45.6476" lon="6.55312">
        <ele>2031.2</ele>
        <time>2022-08-27T08:38:29Z</time>
      </trkpt>
      <trkpt lat="45.64763" lon="6.55322">
        <ele>2031.8</ele>
        <time>2022-08-27T08:38:40Z</time>
      </trkpt>
      <trkpt lat="45.64766" lon="6.55329">
        <ele>2032.8</ele>
        <time>2022-08-27T08:38:52Z</time>
      </trkpt>
      <trkpt lat="45.64774" lon="6.55335">
        <ele>2032.8</ele>
        <time>2022-08-27T08:39:02Z</time>
      </trkpt>
      <trkpt lat="45.64781" lon="6.55339">
        <ele>2033.2</ele>
        <time>2022-08-27T08:39:13Z</time>
      </trkpt>
      <trkpt lat="45.6479" lon="6.5535">
        <ele>2034</ele>
        <time>2022-08-27T08:39:26Z</time>
      </trkpt>
      <trkpt lat="45.64793" lon="6.55355">
        <ele>2035.6</ele>
        <time>2022-08-27T08:39:40Z</time>
      </trkpt>
      <trkpt lat="45.64796" lon="6.55358">
        <ele>2036.4</ele>
        <time>2022-08-27T08:39:55Z</time>
      </trkpt>
      <trkpt lat="45.64797" lon="6.5536">
        <ele>2037.6</ele>
        <time>2022-08-27T08:40:07Z</time>
      </trkpt>
      <trkpt lat="45.64799" lon="6.55362">
        <ele>2038.2</ele>
        <time>2022-08-27T08:40:19Z</time>
      </trkpt>
      <trkpt lat="45.64801" lon="6.55363">
        <ele>2039.2</ele>
        <time>2022-08-27T08:40:32Z</time>
      </trkpt>
      <trkpt lat="45.64804" lon="6.55368">
        <ele>2040</ele>
        <time>2022-08-27T08:40:42Z</time>
      </trkpt>
      <trkpt lat="45.64809" lon="6.55373">
        <ele>2041</ele>
        <time>2022-08-27T08:40:52Z</time>
      </trkpt>
      <trkpt lat="45.64811" lon="6.55376">
        <ele>2042.2</ele>
        <time>2022-08-27T08:41:05Z</time>
      </trkpt>
      <trkpt lat="45.64813" lon="6.55377">
        <ele>2043.2</ele>
        <time>2022-08-27T08:41:16Z</time>
      </trkpt>
      <trkpt lat="45.64819" lon="6.55383">
        <ele>2044.2</ele>
        <time>2022-08-27T08:41:28Z</time>
      </trkpt>
      <trkpt lat="45.64824" lon="6.55387">
        <ele>2045.4</ele>
        <time>2022-08-27T08:41:41Z</time>
      </trkpt>
      <trkpt lat="45.64823" lon="6.55388">
        <ele>2046.2</ele>
        <time>2022-08-27T08:41:49Z</time>
      </trkpt>
      <trkpt lat="45.64824" lon="6.55391">
        <ele>2047.8</ele>
        <time>2022-08-27T08:42:03Z</time>
      </trkpt>
      <trkpt lat="45.64829" lon="6.55394">
        <ele>2049.2</ele>
        <time>2022-08-27T08:42:13Z</time>
      </trkpt>
      <trkpt lat="45.64834" lon="6.55392">
        <ele>2050.8</ele>
        <time>2022-08-27T08:42:23Z</time>
      </trkpt>
      <trkpt lat="45.64842" lon="6.55391">
        <ele>2051.2</ele>
        <time>2022-08-27T08:42:34Z</time>
      </trkpt>
      <trkpt lat="45.64845" lon="6.55391">
        <ele>2052.4</ele>
        <time>2022-08-27T08:42:44Z</time>
      </trkpt>
      <trkpt lat="45.64846" lon="6.55392">
        <ele>2053.8</ele>
        <time>2022-08-27T08:42:53Z</time>
      </trkpt>
      <trkpt lat="45.64853" lon="6.5539">
        <ele>2055.2</ele>
        <time>2022-08-27T08:43:04Z</time>
      </trkpt>
      <trkpt lat="45.64855" lon="6.5539">
        <ele>2056.4</ele>
        <time>2022-08-27T08:43:13Z</time>
      </trkpt>
      <trkpt lat="45.64858" lon="6.55395">
        <ele>2057.8</ele>
        <time>2022-08-27T08:43:23Z</time>
      </trkpt>
      <trkpt lat="45.64859" lon="6.55399">
        <ele>2059.2</ele>
        <time>2022-08-27T08:43:34Z</time>
      </trkpt>
      <trkpt lat="45.6486" lon="6.55399">
        <ele>2061</ele>
        <time>2022-08-27T08:43:45Z</time>
      </trkpt>
      <trkpt lat="45.6486" lon="6.55399">
        <ele>2062</ele>
        <time>2022-08-27T08:43:55Z</time>
      </trkpt>
      <trkpt lat="45.64861" lon="6.55398">
        <ele>2063.2</ele>
        <time>2022-08-27T08:44:07Z</time>
      </trkpt>
      <trkpt lat="45.64867" lon="6.554">
        <ele>2065.2</ele>
        <time>2022-08-27T08:44:22Z</time>
      </trkpt>
      <trkpt lat="45.64868" lon="6.55402">
        <ele>2065.4</ele>
        <time>2022-08-27T08:44:23Z</time>
      </trkpt>
      <trkpt lat="45.64875" lon="6.5541">
        <ele>2066.4</ele>
        <time>2022-08-27T08:44:31Z</time>
      </trkpt>
      <trkpt lat="45.64878" lon="6.55415">
        <ele>2067</ele>
        <time>2022-08-27T08:44:41Z</time>
      </trkpt>
      <trkpt lat="45.64884" lon="6.55427">
        <ele>2067.8</ele>
        <time>2022-08-27T08:44:52Z</time>
      </trkpt>
      <trkpt lat="45.6489" lon="6.55441">
        <ele>2069.2</ele>
        <time>2022-08-27T08:45:06Z</time>
      </trkpt>
      <trkpt lat="45.64893" lon="6.55447">
        <ele>2070.2</ele>
        <time>2022-08-27T08:45:19Z</time>
      </trkpt>
      <trkpt lat="45.64893" lon="6.5545">
        <ele>2072.2</ele>
        <time>2022-08-27T08:45:31Z</time>
      </trkpt>
      <trkpt lat="45.64896" lon="6.55456">
        <ele>2073.4</ele>
        <time>2022-08-27T08:45:39Z</time>
      </trkpt>
      <trkpt lat="45.649" lon="6.55464">
        <ele>2073.4</ele>
        <time>2022-08-27T08:45:50Z</time>
      </trkpt>
      <trkpt lat="45.64904" lon="6.55469">
        <ele>2074.2</ele>
        <time>2022-08-27T08:45:59Z</time>
      </trkpt>
      <trkpt lat="45.64906" lon="6.55469">
        <ele>2075.4</ele>
        <time>2022-08-27T08:46:06Z</time>
      </trkpt>
      <trkpt lat="45.64909" lon="6.55472">
        <ele>2076.8</ele>
        <time>2022-08-27T08:46:15Z</time>
      </trkpt>
      <trkpt lat="45.64911" lon="6.55477">
        <ele>2077.8</ele>
        <time>2022-08-27T08:46:25Z</time>
      </trkpt>
      <trkpt lat="45.64918" lon="6.55481">
        <ele>2078.6</ele>
        <time>2022-08-27T08:46:36Z</time>
      </trkpt>
      <trkpt lat="45.6492" lon="6.55483">
        <ele>2079.4</ele>
        <time>2022-08-27T08:46:44Z</time>
      </trkpt>
      <trkpt lat="45.64922" lon="6.55485">
        <ele>2080.8</ele>
        <time>2022-08-27T08:46:54Z</time>
      </trkpt>
      <trkpt lat="45.64924" lon="6.55486">
        <ele>2081.6</ele>
        <time>2022-08-27T08:47:03Z</time>
      </trkpt>
      <trkpt lat="45.64925" lon="6.55486">
        <ele>2082</ele>
        <time>2022-08-27T08:47:16Z</time>
      </trkpt>
      <trkpt lat="45.6493" lon="6.55489">
        <ele>2083</ele>
        <time>2022-08-27T08:47:30Z</time>
      </trkpt>
      <trkpt lat="45.64938" lon="6.55496">
        <ele>2084</ele>
        <time>2022-08-27T08:47:40Z</time>
      </trkpt>
      <trkpt lat="45.6494" lon="6.55498">
        <ele>2084</ele>
        <time>2022-08-27T08:47:43Z</time>
      </trkpt>
      <trkpt lat="45.64945" lon="6.55508">
        <ele>2084.2</ele>
        <time>2022-08-27T08:47:52Z</time>
      </trkpt>
      <trkpt lat="45.64945" lon="6.55509">
        <ele>2084.2</ele>
        <time>2022-08-27T08:47:53Z</time>
      </trkpt>
      <trkpt lat="45.64949" lon="6.55514">
        <ele>2084.6</ele>
        <time>2022-08-27T08:48:01Z</time>
      </trkpt>
      <trkpt lat="45.64952" lon="6.55521">
        <ele>2084.2</ele>
        <time>2022-08-27T08:48:09Z</time>
      </trkpt>
      <trkpt lat="45.64953" lon="6.55522">
        <ele>2082.8</ele>
        <time>2022-08-27T08:48:17Z</time>
      </trkpt>
      <trkpt lat="45.64953" lon="6.55521">
        <ele>2082.8</ele>
        <time>2022-08-27T08:48:31Z</time>
      </trkpt>
      <trkpt lat="45.64953" lon="6.55522">
        <ele>2082.8</ele>
        <time>2022-08-27T08:48:40Z</time>
      </trkpt>
      <trkpt lat="45.64954" lon="6.55524">
        <ele>2082.8</ele>
        <time>2022-08-27T08:48:49Z</time>
      </trkpt>
      <trkpt lat="45.64954" lon="6.55525">
        <ele>2082.8</ele>
        <time>2022-08-27T08:48:56Z</time>
      </trkpt>
      <trkpt lat="45.64953" lon="6.55525">
        <ele>2082.8</ele>
        <time>2022-08-27T08:49:42Z</time>
      </trkpt>
      <trkpt lat="45.64953" lon="6.55525">
        <ele>2082.8</ele>
        <time>2022-08-27T08:53:43Z</time>
      </trkpt>
      <trkpt lat="45.64954" lon="6.55523">
        <ele>2082.8</ele>
        <time>2022-08-27T08:58:07Z</time>
      </trkpt>
      <trkpt lat="45.64956" lon="6.55525">
        <ele>2082.8</ele>
        <time>2022-08-27T08:58:15Z</time>
      </trkpt>
      <trkpt lat="45.64956" lon="6.55527">
        <ele>2082.8</ele>
        <time>2022-08-27T08:58:16Z</time>
      </trkpt>
      <trkpt lat="45.64958" lon="6.55533">
        <ele>2082.8</ele>
        <time>2022-08-27T08:58:18Z</time>
      </trkpt>
      <trkpt lat="45.64968" lon="6.55547">
        <ele>2081.4</ele>
        <time>2022-08-27T08:58:23Z</time>
      </trkpt>
      <trkpt lat="45.6497" lon="6.55564">
        <ele>2079.6</ele>
        <time>2022-08-27T08:58:28Z</time>
      </trkpt>
      <trkpt lat="45.6497" lon="6.55575">
        <ele>2078.6</ele>
        <time>2022-08-27T08:58:31Z</time>
      </trkpt>
      <trkpt lat="45.64971" lon="6.55579">
        <ele>2078.2</ele>
        <time>2022-08-27T08:58:32Z</time>
      </trkpt>
      <trkpt lat="45.64972" lon="6.55582">
        <ele>2077.4</ele>
        <time>2022-08-27T08:58:33Z</time>
      </trkpt>
      <trkpt lat="45.64973" lon="6.55587">
        <ele>2077</ele>
        <time>2022-08-27T08:58:34Z</time>
      </trkpt>
      <trkpt lat="45.64973" lon="6.55593">
        <ele>2076.4</ele>
        <time>2022-08-27T08:58:35Z</time>
      </trkpt>
      <trkpt lat="45.64973" lon="6.55598">
        <ele>2075.8</ele>
        <time>2022-08-27T08:58:36Z</time>
      </trkpt>
      <trkpt lat="45.64974" lon="6.55619">
        <ele>2073.6</ele>
        <time>2022-08-27T08:58:42Z</time>
      </trkpt>
      <trkpt lat="45.64974" lon="6.5562">
        <ele>2073.4</ele>
        <time>2022-08-27T08:58:48Z</time>
      </trkpt>
      <trkpt lat="45.64973" lon="6.55625">
        <ele>2073.4</ele>
        <time>2022-08-27T08:58:54Z</time>
      </trkpt>
      <trkpt lat="45.64972" lon="6.55632">
        <ele>2073.6</ele>
        <time>2022-08-27T08:59:01Z</time>
      </trkpt>
      <trkpt lat="45.64972" lon="6.5564">
        <ele>2074.2</ele>
        <time>2022-08-27T08:59:09Z</time>
      </trkpt>
      <trkpt lat="45.64973" lon="6.55644">
        <ele>2074.4</ele>
        <time>2022-08-27T08:59:15Z</time>
      </trkpt>
      <trkpt lat="45.64973" lon="6.55662">
        <ele>2074.2</ele>
        <time>2022-08-27T08:59:21Z</time>
      </trkpt>
      <trkpt lat="45.6497" lon="6.55677">
        <ele>2073.6</ele>
        <time>2022-08-27T08:59:25Z</time>
      </trkpt>
      <trkpt lat="45.64971" lon="6.5568">
        <ele>2073.4</ele>
        <time>2022-08-27T08:59:26Z</time>
      </trkpt>
      <trkpt lat="45.64971" lon="6.55684">
        <ele>2073.2</ele>
        <time>2022-08-27T08:59:27Z</time>
      </trkpt>
      <trkpt lat="45.64971" lon="6.55687">
        <ele>2073</ele>
        <time>2022-08-27T08:59:28Z</time>
      </trkpt>
      <trkpt lat="45.64973" lon="6.55689">
        <ele>2073</ele>
        <time>2022-08-27T08:59:29Z</time>
      </trkpt>
      <trkpt lat="45.64974" lon="6.55692">
        <ele>2072.8</ele>
        <time>2022-08-27T08:59:30Z</time>
      </trkpt>
      <trkpt lat="45.64975" lon="6.55696">
        <ele>2072.8</ele>
        <time>2022-08-27T08:59:31Z</time>
      </trkpt>
      <trkpt lat="45.64975" lon="6.55699">
        <ele>2072.6</ele>
        <time>2022-08-27T08:59:32Z</time>
      </trkpt>
      <trkpt lat="45.64976" lon="6.55709">
        <ele>2071.6</ele>
        <time>2022-08-27T08:59:38Z</time>
      </trkpt>
      <trkpt lat="45.64977" lon="6.55713">
        <ele>2071.2</ele>
        <time>2022-08-27T08:59:43Z</time>
      </trkpt>
      <trkpt lat="45.64977" lon="6.55715">
        <ele>2071.2</ele>
        <time>2022-08-27T08:59:44Z</time>
      </trkpt>
      <trkpt lat="45.64977" lon="6.55717">
        <ele>2071.2</ele>
        <time>2022-08-27T08:59:45Z</time>
      </trkpt>
      <trkpt lat="45.64977" lon="6.55719">
        <ele>2070.2</ele>
        <time>2022-08-27T08:59:50Z</time>
      </trkpt>
      <trkpt lat="45.6498" lon="6.55723">
        <ele>2069.2</ele>
        <time>2022-08-27T08:59:59Z</time>
      </trkpt>
      <trkpt lat="45.64981" lon="6.55724">
        <ele>2067.8</ele>
        <time>2022-08-27T09:00:06Z</time>
      </trkpt>
      <trkpt lat="45.64984" lon="6.5573">
        <ele>2067.4</ele>
        <time>2022-08-27T09:00:18Z</time>
      </trkpt>
      <trkpt lat="45.64989" lon="6.55745">
        <ele>2067</ele>
        <time>2022-08-27T09:00:22Z</time>
      </trkpt>
      <trkpt lat="45.64991" lon="6.55747">
        <ele>2066.8</ele>
        <time>2022-08-27T09:00:23Z</time>
      </trkpt>
      <trkpt lat="45.64992" lon="6.55748">
        <ele>2066.4</ele>
        <time>2022-08-27T09:00:24Z</time>
      </trkpt>
      <trkpt lat="45.64994" lon="6.5575">
        <ele>2065.6</ele>
        <time>2022-08-27T09:00:32Z</time>
      </trkpt>
      <trkpt lat="45.64995" lon="6.55751">
        <ele>2065.8</ele>
        <time>2022-08-27T09:00:47Z</time>
      </trkpt>
      <trkpt lat="45.64996" lon="6.55753">
        <ele>2065.8</ele>
        <time>2022-08-27T09:00:48Z</time>
      </trkpt>
      <trkpt lat="45.64996" lon="6.55756">
        <ele>2065.8</ele>
        <time>2022-08-27T09:00:49Z</time>
      </trkpt>
      <trkpt lat="45.64997" lon="6.5576">
        <ele>2065.8</ele>
        <time>2022-08-27T09:00:50Z</time>
      </trkpt>
      <trkpt lat="45.64998" lon="6.55764">
        <ele>2065.8</ele>
        <time>2022-08-27T09:00:51Z</time>
      </trkpt>
      <trkpt lat="45.64998" lon="6.55768">
        <ele>2065.8</ele>
        <time>2022-08-27T09:00:52Z</time>
      </trkpt>
      <trkpt lat="45.65001" lon="6.55796">
        <ele>2064.2</ele>
        <time>2022-08-27T09:00:59Z</time>
      </trkpt>
      <trkpt lat="45.64999" lon="6.55815">
        <ele>2061.6</ele>
        <time>2022-08-27T09:01:03Z</time>
      </trkpt>
      <trkpt lat="45.64996" lon="6.55845">
        <ele>2059.4</ele>
        <time>2022-08-27T09:01:09Z</time>
      </trkpt>
      <trkpt lat="45.65001" lon="6.55865">
        <ele>2058.6</ele>
        <time>2022-08-27T09:01:15Z</time>
      </trkpt>
      <trkpt lat="45.65003" lon="6.55878">
        <ele>2057.8</ele>
        <time>2022-08-27T09:01:19Z</time>
      </trkpt>
      <trkpt lat="45.65002" lon="6.55895">
        <ele>2057.6</ele>
        <time>2022-08-27T09:01:23Z</time>
      </trkpt>
      <trkpt lat="45.65003" lon="6.55901">
        <ele>2057.2</ele>
        <time>2022-08-27T09:01:26Z</time>
      </trkpt>
      <trkpt lat="45.65004" lon="6.55903">
        <ele>2057.2</ele>
        <time>2022-08-27T09:01:27Z</time>
      </trkpt>
      <trkpt lat="45.65011" lon="6.55916">
        <ele>2057.2</ele>
        <time>2022-08-27T09:01:34Z</time>
      </trkpt>
      <trkpt lat="45.65021" lon="6.55926">
        <ele>2057.4</ele>
        <time>2022-08-27T09:01:41Z</time>
      </trkpt>
      <trkpt lat="45.65037" lon="6.55937">
        <ele>2056.6</ele>
        <time>2022-08-27T09:01:48Z</time>
      </trkpt>
      <trkpt lat="45.65053" lon="6.55944">
        <ele>2055.8</ele>
        <time>2022-08-27T09:01:54Z</time>
      </trkpt>
      <trkpt lat="45.65055" lon="6.55948">
        <ele>2055.8</ele>
        <time>2022-08-27T09:01:55Z</time>
      </trkpt>
      <trkpt lat="45.65058" lon="6.55951">
        <ele>2055.4</ele>
        <time>2022-08-27T09:01:56Z</time>
      </trkpt>
      <trkpt lat="45.6506" lon="6.55956">
        <ele>2055</ele>
        <time>2022-08-27T09:01:57Z</time>
      </trkpt>
      <trkpt lat="45.65062" lon="6.5596">
        <ele>2054.6</ele>
        <time>2022-08-27T09:01:58Z</time>
      </trkpt>
      <trkpt lat="45.65063" lon="6.55965">
        <ele>2054.2</ele>
        <time>2022-08-27T09:01:59Z</time>
      </trkpt>
      <trkpt lat="45.65068" lon="6.55972">
        <ele>2052.6</ele>
        <time>2022-08-27T09:02:02Z</time>
      </trkpt>
      <trkpt lat="45.65069" lon="6.55973">
        <ele>2052.4</ele>
        <time>2022-08-27T09:02:10Z</time>
      </trkpt>
      <trkpt lat="45.65071" lon="6.55974">
        <ele>2052.6</ele>
        <time>2022-08-27T09:02:19Z</time>
      </trkpt>
      <trkpt lat="45.65072" lon="6.55975">
        <ele>2053</ele>
        <time>2022-08-27T09:02:27Z</time>
      </trkpt>
      <trkpt lat="45.65073" lon="6.55981">
        <ele>2053.4</ele>
        <time>2022-08-27T09:02:40Z</time>
      </trkpt>
      <trkpt lat="45.65078" lon="6.55988">
        <ele>2054</ele>
        <time>2022-08-27T09:02:50Z</time>
      </trkpt>
      <trkpt lat="45.65082" lon="6.55992">
        <ele>2054.8</ele>
        <time>2022-08-27T09:02:58Z</time>
      </trkpt>
      <trkpt lat="45.65084" lon="6.55994">
        <ele>2055.4</ele>
        <time>2022-08-27T09:03:05Z</time>
      </trkpt>
      <trkpt lat="45.65087" lon="6.55997">
        <ele>2056</ele>
        <time>2022-08-27T09:03:13Z</time>
      </trkpt>
      <trkpt lat="45.65088" lon="6.56001">
        <ele>2057.4</ele>
        <time>2022-08-27T09:03:22Z</time>
      </trkpt>
      <trkpt lat="45.65088" lon="6.56002">
        <ele>2057.4</ele>
        <time>2022-08-27T09:03:38Z</time>
      </trkpt>
      <trkpt lat="45.65088" lon="6.56002">
        <ele>2057.2</ele>
        <time>2022-08-27T09:03:49Z</time>
      </trkpt>
      <trkpt lat="45.65088" lon="6.56001">
        <ele>2057</ele>
        <time>2022-08-27T09:04:10Z</time>
      </trkpt>
      <trkpt lat="45.65089" lon="6.56001">
        <ele>2057</ele>
        <time>2022-08-27T09:04:21Z</time>
      </trkpt>
      <trkpt lat="45.65089" lon="6.56">
        <ele>2057</ele>
        <time>2022-08-27T09:04:37Z</time>
      </trkpt>
      <trkpt lat="45.6509" lon="6.56">
        <ele>2056.8</ele>
        <time>2022-08-27T09:05:12Z</time>
      </trkpt>
      <trkpt lat="45.65091" lon="6.56">
        <ele>2056.8</ele>
        <time>2022-08-27T09:05:22Z</time>
      </trkpt>
      <trkpt lat="45.65092" lon="6.55999">
        <ele>2056.8</ele>
        <time>2022-08-27T09:05:23Z</time>
      </trkpt>
      <trkpt lat="45.65093" lon="6.55999">
        <ele>2056.8</ele>
        <time>2022-08-27T09:05:24Z</time>
      </trkpt>
      <trkpt lat="45.65095" lon="6.56">
        <ele>2056.8</ele>
        <time>2022-08-27T09:05:25Z</time>
      </trkpt>
      <trkpt lat="45.65097" lon="6.56">
        <ele>2056.8</ele>
        <time>2022-08-27T09:05:26Z</time>
      </trkpt>
      <trkpt lat="45.65099" lon="6.56001">
        <ele>2056.8</ele>
        <time>2022-08-27T09:05:27Z</time>
      </trkpt>
      <trkpt lat="45.65102" lon="6.56001">
        <ele>2056.6</ele>
        <time>2022-08-27T09:05:29Z</time>
      </trkpt>
      <trkpt lat="45.65103" lon="6.56002">
        <ele>2056.6</ele>
        <time>2022-08-27T09:05:30Z</time>
      </trkpt>
      <trkpt lat="45.65104" lon="6.56003">
        <ele>2056.4</ele>
        <time>2022-08-27T09:05:31Z</time>
      </trkpt>
      <trkpt lat="45.65105" lon="6.56004">
        <ele>2056.4</ele>
        <time>2022-08-27T09:05:32Z</time>
      </trkpt>
      <trkpt lat="45.65106" lon="6.56007">
        <ele>2056.8</ele>
        <time>2022-08-27T09:05:37Z</time>
      </trkpt>
      <trkpt lat="45.65105" lon="6.56009">
        <ele>2057</ele>
        <time>2022-08-27T09:05:43Z</time>
      </trkpt>
      <trkpt lat="45.65104" lon="6.56014">
        <ele>2056.2</ele>
        <time>2022-08-27T09:05:49Z</time>
      </trkpt>
      <trkpt lat="45.65105" lon="6.56016">
        <ele>2056.2</ele>
        <time>2022-08-27T09:05:50Z</time>
      </trkpt>
      <trkpt lat="45.65105" lon="6.56018">
        <ele>2056</ele>
        <time>2022-08-27T09:05:51Z</time>
      </trkpt>
      <trkpt lat="45.65106" lon="6.5602">
        <ele>2056</ele>
        <time>2022-08-27T09:05:52Z</time>
      </trkpt>
      <trkpt lat="45.65107" lon="6.56022">
        <ele>2056</ele>
        <time>2022-08-27T09:05:53Z</time>
      </trkpt>
      <trkpt lat="45.65116" lon="6.56044">
        <ele>2055.2</ele>
        <time>2022-08-27T09:06:02Z</time>
      </trkpt>
      <trkpt lat="45.6512" lon="6.56071">
        <ele>2054</ele>
        <time>2022-08-27T09:06:12Z</time>
      </trkpt>
      <trkpt lat="45.6512" lon="6.56076">
        <ele>2053.8</ele>
        <time>2022-08-27T09:06:18Z</time>
      </trkpt>
      <trkpt lat="45.65121" lon="6.56079">
        <ele>2053.2</ele>
        <time>2022-08-27T09:06:28Z</time>
      </trkpt>
      <trkpt lat="45.65122" lon="6.56081">
        <ele>2053.2</ele>
        <time>2022-08-27T09:06:29Z</time>
      </trkpt>
      <trkpt lat="45.65131" lon="6.561">
        <ele>2053.4</ele>
        <time>2022-08-27T09:06:37Z</time>
      </trkpt>
      <trkpt lat="45.65143" lon="6.5612">
        <ele>2053.2</ele>
        <time>2022-08-27T09:06:44Z</time>
      </trkpt>
      <trkpt lat="45.65161" lon="6.56133">
        <ele>2051.4</ele>
        <time>2022-08-27T09:06:52Z</time>
      </trkpt>
      <trkpt lat="45.65175" lon="6.56147">
        <ele>2050.2</ele>
        <time>2022-08-27T09:07:00Z</time>
      </trkpt>
      <trkpt lat="45.65191" lon="6.56164">
        <ele>2049.2</ele>
        <time>2022-08-27T09:07:08Z</time>
      </trkpt>
      <trkpt lat="45.6521" lon="6.56174">
        <ele>2047.6</ele>
        <time>2022-08-27T09:07:16Z</time>
      </trkpt>
      <trkpt lat="45.6522" lon="6.56176">
        <ele>2045.4</ele>
        <time>2022-08-27T09:07:23Z</time>
      </trkpt>
      <trkpt lat="45.6522" lon="6.56177">
        <ele>2044.4</ele>
        <time>2022-08-27T09:07:33Z</time>
      </trkpt>
      <trkpt lat="45.6522" lon="6.56177">
        <ele>2044.2</ele>
        <time>2022-08-27T09:07:48Z</time>
      </trkpt>
      <trkpt lat="45.65221" lon="6.56177">
        <ele>2044</ele>
        <time>2022-08-27T09:07:56Z</time>
      </trkpt>
      <trkpt lat="45.65236" lon="6.56185">
        <ele>2043.8</ele>
        <time>2022-08-27T09:08:01Z</time>
      </trkpt>
      <trkpt lat="45.65259" lon="6.56207">
        <ele>2040.8</ele>
        <time>2022-08-27T09:08:09Z</time>
      </trkpt>
      <trkpt lat="45.65271" lon="6.56217">
        <ele>2038.4</ele>
        <time>2022-08-27T09:08:16Z</time>
      </trkpt>
      <trkpt lat="45.65281" lon="6.56229">
        <ele>2037</ele>
        <time>2022-08-27T09:08:24Z</time>
      </trkpt>
      <trkpt lat="45.65289" lon="6.56236">
        <ele>2035.6</ele>
        <time>2022-08-27T09:08:31Z</time>
      </trkpt>
      <trkpt lat="45.65296" lon="6.56243">
        <ele>2033.8</ele>
        <time>2022-08-27T09:08:37Z</time>
      </trkpt>
      <trkpt lat="45.653" lon="6.56249">
        <ele>2032.8</ele>
        <time>2022-08-27T09:08:45Z</time>
      </trkpt>
      <trkpt lat="45.65308" lon="6.5626">
        <ele>2031.6</ele>
        <time>2022-08-27T09:08:52Z</time>
      </trkpt>
      <trkpt lat="45.65308" lon="6.56266">
        <ele>2031</ele>
        <time>2022-08-27T09:08:54Z</time>
      </trkpt>
      <trkpt lat="45.65306" lon="6.56269">
        <ele>2030.8</ele>
        <time>2022-08-27T09:08:55Z</time>
      </trkpt>
      <trkpt lat="45.65304" lon="6.5627">
        <ele>2030.4</ele>
        <time>2022-08-27T09:08:56Z</time>
      </trkpt>
      <trkpt lat="45.65302" lon="6.56271">
        <ele>2030</ele>
        <time>2022-08-27T09:08:57Z</time>
      </trkpt>
      <trkpt lat="45.653" lon="6.5627">
        <ele>2029.8</ele>
        <time>2022-08-27T09:08:58Z</time>
      </trkpt>
      <trkpt lat="45.65298" lon="6.5627">
        <ele>2028.6</ele>
        <time>2022-08-27T09:09:04Z</time>
      </trkpt>
      <trkpt lat="45.65298" lon="6.5627">
        <ele>2028.4</ele>
        <time>2022-08-27T09:09:35Z</time>
      </trkpt>
      <trkpt lat="45.65297" lon="6.56269">
        <ele>2028.2</ele>
        <time>2022-08-27T09:09:46Z</time>
      </trkpt>
      <trkpt lat="45.65296" lon="6.56269">
        <ele>2028.2</ele>
        <time>2022-08-27T09:09:47Z</time>
      </trkpt>
      <trkpt lat="45.65295" lon="6.56268">
        <ele>2028.2</ele>
        <time>2022-08-27T09:09:48Z</time>
      </trkpt>
      <trkpt lat="45.65294" lon="6.56268">
        <ele>2028</ele>
        <time>2022-08-27T09:09:54Z</time>
      </trkpt>
      <trkpt lat="45.65288" lon="6.56267">
        <ele>2028</ele>
        <time>2022-08-27T09:09:58Z</time>
      </trkpt>
      <trkpt lat="45.65286" lon="6.56266">
        <ele>2028</ele>
        <time>2022-08-27T09:09:59Z</time>
      </trkpt>
      <trkpt lat="45.65284" lon="6.56265">
        <ele>2028</ele>
        <time>2022-08-27T09:10:00Z</time>
      </trkpt>
      <trkpt lat="45.65263" lon="6.56264">
        <ele>2027.2</ele>
        <time>2022-08-27T09:10:08Z</time>
      </trkpt>
      <trkpt lat="45.6525" lon="6.56282">
        <ele>2025.4</ele>
        <time>2022-08-27T09:10:15Z</time>
      </trkpt>
      <trkpt lat="45.65235" lon="6.56304">
        <ele>2022.8</ele>
        <time>2022-08-27T09:10:23Z</time>
      </trkpt>
      <trkpt lat="45.65215" lon="6.56309">
        <ele>2021</ele>
        <time>2022-08-27T09:10:30Z</time>
      </trkpt>
      <trkpt lat="45.65192" lon="6.563">
        <ele>2019</ele>
        <time>2022-08-27T09:10:38Z</time>
      </trkpt>
      <trkpt lat="45.65172" lon="6.5629">
        <ele>2017.6</ele>
        <time>2022-08-27T09:10:45Z</time>
      </trkpt>
      <trkpt lat="45.65155" lon="6.56286">
        <ele>2016.8</ele>
        <time>2022-08-27T09:10:50Z</time>
      </trkpt>
      <trkpt lat="45.65136" lon="6.56286">
        <ele>2014.8</ele>
        <time>2022-08-27T09:10:56Z</time>
      </trkpt>
      <trkpt lat="45.65111" lon="6.5627">
        <ele>2012.8</ele>
        <time>2022-08-27T09:11:05Z</time>
      </trkpt>
      <trkpt lat="45.65084" lon="6.56251">
        <ele>2010.6</ele>
        <time>2022-08-27T09:11:13Z</time>
      </trkpt>
      <trkpt lat="45.65064" lon="6.56248">
        <ele>2009.2</ele>
        <time>2022-08-27T09:11:19Z</time>
      </trkpt>
      <trkpt lat="45.65045" lon="6.56262">
        <ele>2007.8</ele>
        <time>2022-08-27T09:11:25Z</time>
      </trkpt>
      <trkpt lat="45.65033" lon="6.56269">
        <ele>2006.6</ele>
        <time>2022-08-27T09:11:30Z</time>
      </trkpt>
      <trkpt lat="45.65033" lon="6.56269">
        <ele>2006</ele>
        <time>2022-08-27T09:11:35Z</time>
      </trkpt>
      <trkpt lat="45.65032" lon="6.56269">
        <ele>2005.8</ele>
        <time>2022-08-27T09:11:45Z</time>
      </trkpt>
      <trkpt lat="45.6503" lon="6.56269">
        <ele>2005.8</ele>
        <time>2022-08-27T09:11:46Z</time>
      </trkpt>
      <trkpt lat="45.65028" lon="6.56269">
        <ele>2005.8</ele>
        <time>2022-08-27T09:11:47Z</time>
      </trkpt>
      <trkpt lat="45.65026" lon="6.56268">
        <ele>2005.8</ele>
        <time>2022-08-27T09:11:48Z</time>
      </trkpt>
      <trkpt lat="45.65023" lon="6.56268">
        <ele>2005.8</ele>
        <time>2022-08-27T09:11:49Z</time>
      </trkpt>
      <trkpt lat="45.65021" lon="6.56268">
        <ele>2005.6</ele>
        <time>2022-08-27T09:11:50Z</time>
      </trkpt>
      <trkpt lat="45.64999" lon="6.56273">
        <ele>2005</ele>
        <time>2022-08-27T09:11:56Z</time>
      </trkpt>
      <trkpt lat="45.64995" lon="6.56282">
        <ele>2004.4</ele>
        <time>2022-08-27T09:11:58Z</time>
      </trkpt>
      <trkpt lat="45.64994" lon="6.56287">
        <ele>2004.2</ele>
        <time>2022-08-27T09:11:59Z</time>
      </trkpt>
      <trkpt lat="45.64995" lon="6.56292">
        <ele>2004</ele>
        <time>2022-08-27T09:12:00Z</time>
      </trkpt>
      <trkpt lat="45.64995" lon="6.56298">
        <ele>2003.4</ele>
        <time>2022-08-27T09:12:01Z</time>
      </trkpt>
      <trkpt lat="45.64996" lon="6.56304">
        <ele>2003</ele>
        <time>2022-08-27T09:12:02Z</time>
      </trkpt>
      <trkpt lat="45.64997" lon="6.5631">
        <ele>2002.6</ele>
        <time>2022-08-27T09:12:03Z</time>
      </trkpt>
      <trkpt lat="45.64995" lon="6.56339">
        <ele>2000.8</ele>
        <time>2022-08-27T09:12:08Z</time>
      </trkpt>
      <trkpt lat="45.64981" lon="6.56378">
        <ele>1998.8</ele>
        <time>2022-08-27T09:12:16Z</time>
      </trkpt>
      <trkpt lat="45.64968" lon="6.56401">
        <ele>1997.4</ele>
        <time>2022-08-27T09:12:21Z</time>
      </trkpt>
      <trkpt lat="45.64965" lon="6.56406">
        <ele>1997.2</ele>
        <time>2022-08-27T09:12:22Z</time>
      </trkpt>
      <trkpt lat="45.64943" lon="6.56448">
        <ele>1994</ele>
        <time>2022-08-27T09:12:30Z</time>
      </trkpt>
      <trkpt lat="45.6494" lon="6.56452">
        <ele>1993.4</ele>
        <time>2022-08-27T09:12:31Z</time>
      </trkpt>
      <trkpt lat="45.64936" lon="6.56455">
        <ele>1993</ele>
        <time>2022-08-27T09:12:32Z</time>
      </trkpt>
      <trkpt lat="45.64911" lon="6.56483">
        <ele>1991</ele>
        <time>2022-08-27T09:12:40Z</time>
      </trkpt>
      <trkpt lat="45.64905" lon="6.56494">
        <ele>1989.8</ele>
        <time>2022-08-27T09:12:47Z</time>
      </trkpt>
      <trkpt lat="45.64905" lon="6.56494">
        <ele>1989</ele>
        <time>2022-08-27T09:12:52Z</time>
      </trkpt>
      <trkpt lat="45.64904" lon="6.56493">
        <ele>1989</ele>
        <time>2022-08-27T09:12:53Z</time>
      </trkpt>
      <trkpt lat="45.64902" lon="6.56493">
        <ele>1989</ele>
        <time>2022-08-27T09:12:54Z</time>
      </trkpt>
      <trkpt lat="45.649" lon="6.56492">
        <ele>1989</ele>
        <time>2022-08-27T09:12:55Z</time>
      </trkpt>
      <trkpt lat="45.64897" lon="6.56491">
        <ele>1989</ele>
        <time>2022-08-27T09:12:56Z</time>
      </trkpt>
      <trkpt lat="45.64895" lon="6.56491">
        <ele>1988.8</ele>
        <time>2022-08-27T09:12:57Z</time>
      </trkpt>
      <trkpt lat="45.6489" lon="6.56492">
        <ele>1988</ele>
        <time>2022-08-27T09:13:02Z</time>
      </trkpt>
      <trkpt lat="45.6489" lon="6.56493">
        <ele>1987.6</ele>
        <time>2022-08-27T09:13:10Z</time>
      </trkpt>
      <trkpt lat="45.6489" lon="6.56494">
        <ele>1987.4</ele>
        <time>2022-08-27T09:13:16Z</time>
      </trkpt>
      <trkpt lat="45.64891" lon="6.56494">
        <ele>1987.4</ele>
        <time>2022-08-27T09:13:41Z</time>
      </trkpt>
      <trkpt lat="45.64892" lon="6.56494">
        <ele>1987.6</ele>
        <time>2022-08-27T09:14:10Z</time>
      </trkpt>
      <trkpt lat="45.64893" lon="6.56495">
        <ele>1988</ele>
        <time>2022-08-27T09:14:18Z</time>
      </trkpt>
      <trkpt lat="45.64894" lon="6.56496">
        <ele>1988</ele>
        <time>2022-08-27T09:14:19Z</time>
      </trkpt>
      <trkpt lat="45.64897" lon="6.56498">
        <ele>1988</ele>
        <time>2022-08-27T09:14:20Z</time>
      </trkpt>
      <trkpt lat="45.649" lon="6.56499">
        <ele>1988</ele>
        <time>2022-08-27T09:14:21Z</time>
      </trkpt>
      <trkpt lat="45.64903" lon="6.56502">
        <ele>1987.8</ele>
        <time>2022-08-27T09:14:22Z</time>
      </trkpt>
      <trkpt lat="45.64919" lon="6.56513">
        <ele>1986.4</ele>
        <time>2022-08-27T09:14:28Z</time>
      </trkpt>
      <trkpt lat="45.64921" lon="6.56514">
        <ele>1985.8</ele>
        <time>2022-08-27T09:14:33Z</time>
      </trkpt>
      <trkpt lat="45.64919" lon="6.56519">
        <ele>1985.2</ele>
        <time>2022-08-27T09:14:40Z</time>
      </trkpt>
      <trkpt lat="45.64919" lon="6.56523">
        <ele>1985</ele>
        <time>2022-08-27T09:14:46Z</time>
      </trkpt>
      <trkpt lat="45.64918" lon="6.56524">
        <ele>1985</ele>
        <time>2022-08-27T09:14:55Z</time>
      </trkpt>
      <trkpt lat="45.64917" lon="6.56526">
        <ele>1985.2</ele>
        <time>2022-08-27T09:15:11Z</time>
      </trkpt>
      <trkpt lat="45.64918" lon="6.56525">
        <ele>1985</ele>
        <time>2022-08-27T09:15:29Z</time>
      </trkpt>
      <trkpt lat="45.64923" lon="6.56522">
        <ele>1984.6</ele>
        <time>2022-08-27T09:15:36Z</time>
      </trkpt>
      <trkpt lat="45.64929" lon="6.56523">
        <ele>1983.2</ele>
        <time>2022-08-27T09:15:44Z</time>
      </trkpt>
      <trkpt lat="45.64933" lon="6.56522">
        <ele>1981</ele>
        <time>2022-08-27T09:15:53Z</time>
      </trkpt>
      <trkpt lat="45.64935" lon="6.56523">
        <ele>1979.8</ele>
        <time>2022-08-27T09:16:00Z</time>
      </trkpt>
      <trkpt lat="45.64936" lon="6.56523">
        <ele>1979.4</ele>
        <time>2022-08-27T09:16:01Z</time>
      </trkpt>
      <trkpt lat="45.6494" lon="6.56523">
        <ele>1978.6</ele>
        <time>2022-08-27T09:16:06Z</time>
      </trkpt>
      <trkpt lat="45.64941" lon="6.56523">
        <ele>1978.4</ele>
        <time>2022-08-27T09:16:07Z</time>
      </trkpt>
      <trkpt lat="45.64944" lon="6.5652">
        <ele>1978</ele>
        <time>2022-08-27T09:16:11Z</time>
      </trkpt>
      <trkpt lat="45.64945" lon="6.56519">
        <ele>1978</ele>
        <time>2022-08-27T09:16:12Z</time>
      </trkpt>
      <trkpt lat="45.64948" lon="6.56518">
        <ele>1977.8</ele>
        <time>2022-08-27T09:16:17Z</time>
      </trkpt>
      <trkpt lat="45.64949" lon="6.56517">
        <ele>1977.8</ele>
        <time>2022-08-27T09:16:18Z</time>
      </trkpt>
      <trkpt lat="45.64951" lon="6.56517">
        <ele>1977.8</ele>
        <time>2022-08-27T09:16:19Z</time>
      </trkpt>
      <trkpt lat="45.64954" lon="6.56516">
        <ele>1977.8</ele>
        <time>2022-08-27T09:16:20Z</time>
      </trkpt>
      <trkpt lat="45.64956" lon="6.56515">
        <ele>1977.8</ele>
        <time>2022-08-27T09:16:21Z</time>
      </trkpt>
      <trkpt lat="45.64959" lon="6.56512">
        <ele>1977.8</ele>
        <time>2022-08-27T09:16:22Z</time>
      </trkpt>
      <trkpt lat="45.64962" lon="6.56509">
        <ele>1977.6</ele>
        <time>2022-08-27T09:16:23Z</time>
      </trkpt>
      <trkpt lat="45.64974" lon="6.56489">
        <ele>1976.4</ele>
        <time>2022-08-27T09:16:29Z</time>
      </trkpt>
      <trkpt lat="45.64986" lon="6.56482">
        <ele>1975.4</ele>
        <time>2022-08-27T09:16:35Z</time>
      </trkpt>
      <trkpt lat="45.65" lon="6.5649">
        <ele>1974.6</ele>
        <time>2022-08-27T09:16:41Z</time>
      </trkpt>
      <trkpt lat="45.65016" lon="6.56483">
        <ele>1974.2</ele>
        <time>2022-08-27T09:16:49Z</time>
      </trkpt>
      <trkpt lat="45.65029" lon="6.56468">
        <ele>1974.2</ele>
        <time>2022-08-27T09:16:56Z</time>
      </trkpt>
      <trkpt lat="45.65032" lon="6.56464">
        <ele>1973.6</ele>
        <time>2022-08-27T09:17:01Z</time>
      </trkpt>
      <trkpt lat="45.65032" lon="6.56463">
        <ele>1973.6</ele>
        <time>2022-08-27T09:17:02Z</time>
      </trkpt>
      <trkpt lat="45.65042" lon="6.56459">
        <ele>1973.4</ele>
        <time>2022-08-27T09:17:07Z</time>
      </trkpt>
      <trkpt lat="45.65043" lon="6.56459">
        <ele>1973.2</ele>
        <time>2022-08-27T09:17:12Z</time>
      </trkpt>
      <trkpt lat="45.65042" lon="6.5646">
        <ele>1972.6</ele>
        <time>2022-08-27T09:17:28Z</time>
      </trkpt>
      <trkpt lat="45.65043" lon="6.56461">
        <ele>1972.6</ele>
        <time>2022-08-27T09:17:29Z</time>
      </trkpt>
      <trkpt lat="45.65045" lon="6.56469">
        <ele>1972.6</ele>
        <time>2022-08-27T09:17:32Z</time>
      </trkpt>
      <trkpt lat="45.65054" lon="6.56499">
        <ele>1971</ele>
        <time>2022-08-27T09:17:40Z</time>
      </trkpt>
      <trkpt lat="45.65067" lon="6.56516">
        <ele>1969.8</ele>
        <time>2022-08-27T09:17:47Z</time>
      </trkpt>
      <trkpt lat="45.65077" lon="6.56523">
        <ele>1968.4</ele>
        <time>2022-08-27T09:17:52Z</time>
      </trkpt>
      <trkpt lat="45.65077" lon="6.56523">
        <ele>1965.8</ele>
        <time>2022-08-27T09:18:01Z</time>
      </trkpt>
      <trkpt lat="45.65077" lon="6.56524">
        <ele>1965.6</ele>
        <time>2022-08-27T09:18:06Z</time>
      </trkpt>
      <trkpt lat="45.65091" lon="6.56526">
        <ele>1965</ele>
        <time>2022-08-27T09:18:12Z</time>
      </trkpt>
      <trkpt lat="45.65102" lon="6.5653">
        <ele>1962.4</ele>
        <time>2022-08-27T09:18:16Z</time>
      </trkpt>
      <trkpt lat="45.65107" lon="6.56531">
        <ele>1961.6</ele>
        <time>2022-08-27T09:18:17Z</time>
      </trkpt>
      <trkpt lat="45.65115" lon="6.56532">
        <ele>1959.8</ele>
        <time>2022-08-27T09:18:19Z</time>
      </trkpt>
      <trkpt lat="45.65119" lon="6.56535">
        <ele>1958.6</ele>
        <time>2022-08-27T09:18:20Z</time>
      </trkpt>
      <trkpt lat="45.65122" lon="6.56539">
        <ele>1957.4</ele>
        <time>2022-08-27T09:18:21Z</time>
      </trkpt>
      <trkpt lat="45.65129" lon="6.56549">
        <ele>1954.6</ele>
        <time>2022-08-27T09:18:23Z</time>
      </trkpt>
      <trkpt lat="45.65132" lon="6.56554">
        <ele>1953.2</ele>
        <time>2022-08-27T09:18:24Z</time>
      </trkpt>
      <trkpt lat="45.65137" lon="6.5656">
        <ele>1952</ele>
        <time>2022-08-27T09:18:25Z</time>
      </trkpt>
      <trkpt lat="45.65145" lon="6.5657">
        <ele>1949.8</ele>
        <time>2022-08-27T09:18:27Z</time>
      </trkpt>
      <trkpt lat="45.65147" lon="6.56575">
        <ele>1949</ele>
        <time>2022-08-27T09:18:28Z</time>
      </trkpt>
      <trkpt lat="45.65149" lon="6.56579">
        <ele>1948.4</ele>
        <time>2022-08-27T09:18:29Z</time>
      </trkpt>
      <trkpt lat="45.6515" lon="6.5658">
        <ele>1946.4</ele>
        <time>2022-08-27T09:18:33Z</time>
      </trkpt>
      <trkpt lat="45.65151" lon="6.56581">
        <ele>1946.4</ele>
        <time>2022-08-27T09:18:43Z</time>
      </trkpt>
      <trkpt lat="45.65151" lon="6.56584">
        <ele>1946</ele>
        <time>2022-08-27T09:18:49Z</time>
      </trkpt>
      <trkpt lat="45.65151" lon="6.56586">
        <ele>1946</ele>
        <time>2022-08-27T09:18:50Z</time>
      </trkpt>
      <trkpt lat="45.65152" lon="6.56589">
        <ele>1946</ele>
        <time>2022-08-27T09:18:51Z</time>
      </trkpt>
      <trkpt lat="45.65152" lon="6.56593">
        <ele>1946</ele>
        <time>2022-08-27T09:18:52Z</time>
      </trkpt>
      <trkpt lat="45.65153" lon="6.56597">
        <ele>1946</ele>
        <time>2022-08-27T09:18:53Z</time>
      </trkpt>
      <trkpt lat="45.65164" lon="6.56616">
        <ele>1944.6</ele>
        <time>2022-08-27T09:18:59Z</time>
      </trkpt>
      <trkpt lat="45.65176" lon="6.56619">
        <ele>1943</ele>
        <time>2022-08-27T09:19:03Z</time>
      </trkpt>
      <trkpt lat="45.65178" lon="6.56619">
        <ele>1941.6</ele>
        <time>2022-08-27T09:19:05Z</time>
      </trkpt>
      <trkpt lat="45.6518" lon="6.56619">
        <ele>1940.6</ele>
        <time>2022-08-27T09:19:06Z</time>
      </trkpt>
      <trkpt lat="45.65185" lon="6.56621">
        <ele>1940</ele>
        <time>2022-08-27T09:19:08Z</time>
      </trkpt>
      <trkpt lat="45.65199" lon="6.56631">
        <ele>1938.2</ele>
        <time>2022-08-27T09:19:16Z</time>
      </trkpt>
      <trkpt lat="45.65204" lon="6.56634">
        <ele>1937.2</ele>
        <time>2022-08-27T09:19:20Z</time>
      </trkpt>
      <trkpt lat="45.65206" lon="6.56635">
        <ele>1935.8</ele>
        <time>2022-08-27T09:19:31Z</time>
      </trkpt>
      <trkpt lat="45.6521" lon="6.56637">
        <ele>1936</ele>
        <time>2022-08-27T09:19:41Z</time>
      </trkpt>
      <trkpt lat="45.65218" lon="6.56642">
        <ele>1936.2</ele>
        <time>2022-08-27T09:19:52Z</time>
      </trkpt>
      <trkpt lat="45.65225" lon="6.56649">
        <ele>1935.8</ele>
        <time>2022-08-27T09:20:00Z</time>
      </trkpt>
      <trkpt lat="45.65231" lon="6.56657">
        <ele>1935.2</ele>
        <time>2022-08-27T09:20:08Z</time>
      </trkpt>
      <trkpt lat="45.65241" lon="6.56666">
        <ele>1935.4</ele>
        <time>2022-08-27T09:20:19Z</time>
      </trkpt>
      <trkpt lat="45.65245" lon="6.56672">
        <ele>1935.4</ele>
        <time>2022-08-27T09:20:25Z</time>
      </trkpt>
      <trkpt lat="45.65245" lon="6.56674">
        <ele>1935.4</ele>
        <time>2022-08-27T09:20:26Z</time>
      </trkpt>
      <trkpt lat="45.65249" lon="6.56679">
        <ele>1935.6</ele>
        <time>2022-08-27T09:20:34Z</time>
      </trkpt>
      <trkpt lat="45.6525" lon="6.5668">
        <ele>1936.2</ele>
        <time>2022-08-27T09:20:43Z</time>
      </trkpt>
      <trkpt lat="45.65253" lon="6.56681">
        <ele>1936.2</ele>
        <time>2022-08-27T09:20:45Z</time>
      </trkpt>
      <trkpt lat="45.65265" lon="6.56696">
        <ele>1936</ele>
        <time>2022-08-27T09:20:50Z</time>
      </trkpt>
      <trkpt lat="45.65277" lon="6.56704">
        <ele>1934</ele>
        <time>2022-08-27T09:20:55Z</time>
      </trkpt>
      <trkpt lat="45.65292" lon="6.5671">
        <ele>1932.2</ele>
        <time>2022-08-27T09:21:00Z</time>
      </trkpt>
      <trkpt lat="45.65296" lon="6.56712">
        <ele>1931.8</ele>
        <time>2022-08-27T09:21:01Z</time>
      </trkpt>
      <trkpt lat="45.653" lon="6.56715">
        <ele>1931.6</ele>
        <time>2022-08-27T09:21:02Z</time>
      </trkpt>
      <trkpt lat="45.65303" lon="6.56719">
        <ele>1931.2</ele>
        <time>2022-08-27T09:21:03Z</time>
      </trkpt>
      <trkpt lat="45.65307" lon="6.56721">
        <ele>1930.6</ele>
        <time>2022-08-27T09:21:04Z</time>
      </trkpt>
      <trkpt lat="45.6531" lon="6.56724">
        <ele>1930</ele>
        <time>2022-08-27T09:21:05Z</time>
      </trkpt>
      <trkpt lat="45.65313" lon="6.56725">
        <ele>1929.6</ele>
        <time>2022-08-27T09:21:06Z</time>
      </trkpt>
      <trkpt lat="45.65315" lon="6.56726">
        <ele>1929.2</ele>
        <time>2022-08-27T09:21:07Z</time>
      </trkpt>
      <trkpt lat="45.65317" lon="6.56727">
        <ele>1928.8</ele>
        <time>2022-08-27T09:21:08Z</time>
      </trkpt>
      <trkpt lat="45.65318" lon="6.56727">
        <ele>1927.8</ele>
        <time>2022-08-27T09:21:14Z</time>
      </trkpt>
      <trkpt lat="45.65318" lon="6.5673">
        <ele>1928.2</ele>
        <time>2022-08-27T09:21:22Z</time>
      </trkpt>
      <trkpt lat="45.65319" lon="6.56732">
        <ele>1928.2</ele>
        <time>2022-08-27T09:21:23Z</time>
      </trkpt>
      <trkpt lat="45.6532" lon="6.56733">
        <ele>1927.4</ele>
        <time>2022-08-27T09:21:28Z</time>
      </trkpt>
      <trkpt lat="45.65325" lon="6.56739">
        <ele>1927</ele>
        <time>2022-08-27T09:21:39Z</time>
      </trkpt>
      <trkpt lat="45.65343" lon="6.56744">
        <ele>1924.6</ele>
        <time>2022-08-27T09:21:44Z</time>
      </trkpt>
      <trkpt lat="45.65351" lon="6.56747">
        <ele>1923.4</ele>
        <time>2022-08-27T09:21:46Z</time>
      </trkpt>
      <trkpt lat="45.65369" lon="6.56761">
        <ele>1920.8</ele>
        <time>2022-08-27T09:21:51Z</time>
      </trkpt>
      <trkpt lat="45.65384" lon="6.56779">
        <ele>1917.8</ele>
        <time>2022-08-27T09:21:56Z</time>
      </trkpt>
      <trkpt lat="45.65396" lon="6.56793">
        <ele>1914.2</ele>
        <time>2022-08-27T09:22:00Z</time>
      </trkpt>
      <trkpt lat="45.65408" lon="6.56802">
        <ele>1911</ele>
        <time>2022-08-27T09:22:04Z</time>
      </trkpt>
      <trkpt lat="45.6542" lon="6.56807">
        <ele>1908.2</ele>
        <time>2022-08-27T09:22:08Z</time>
      </trkpt>
      <trkpt lat="45.65422" lon="6.56808">
        <ele>1904.8</ele>
        <time>2022-08-27T09:22:12Z</time>
      </trkpt>
      <trkpt lat="45.65428" lon="6.56814">
        <ele>1902.8</ele>
        <time>2022-08-27T09:22:22Z</time>
      </trkpt>
      <trkpt lat="45.65432" lon="6.56816">
        <ele>1902.8</ele>
        <time>2022-08-27T09:22:23Z</time>
      </trkpt>
      <trkpt lat="45.6544" lon="6.56822">
        <ele>1902.4</ele>
        <time>2022-08-27T09:22:25Z</time>
      </trkpt>
      <trkpt lat="45.65445" lon="6.56824">
        <ele>1902</ele>
        <time>2022-08-27T09:22:26Z</time>
      </trkpt>
      <trkpt lat="45.6545" lon="6.56826">
        <ele>1901.4</ele>
        <time>2022-08-27T09:22:27Z</time>
      </trkpt>
      <trkpt lat="45.65474" lon="6.56836">
        <ele>1898.2</ele>
        <time>2022-08-27T09:22:32Z</time>
      </trkpt>
      <trkpt lat="45.65481" lon="6.56836">
        <ele>1895.6</ele>
        <time>2022-08-27T09:22:37Z</time>
      </trkpt>
      <trkpt lat="45.6548" lon="6.56836">
        <ele>1895.2</ele>
        <time>2022-08-27T09:22:55Z</time>
      </trkpt>
      <trkpt lat="45.65479" lon="6.56836">
        <ele>1895</ele>
        <time>2022-08-27T09:23:16Z</time>
      </trkpt>
      <trkpt lat="45.65476" lon="6.56835">
        <ele>1895</ele>
        <time>2022-08-27T09:23:18Z</time>
      </trkpt>
      <trkpt lat="45.65475" lon="6.56834">
        <ele>1894.8</ele>
        <time>2022-08-27T09:23:19Z</time>
      </trkpt>
      <trkpt lat="45.65474" lon="6.56834">
        <ele>1894.8</ele>
        <time>2022-08-27T09:23:20Z</time>
      </trkpt>
      <trkpt lat="45.65467" lon="6.56831">
        <ele>1895</ele>
        <time>2022-08-27T09:23:29Z</time>
      </trkpt>
      <trkpt lat="45.65462" lon="6.5683">
        <ele>1895.2</ele>
        <time>2022-08-27T09:23:37Z</time>
      </trkpt>
      <trkpt lat="45.65457" lon="6.56828">
        <ele>1895.4</ele>
        <time>2022-08-27T09:23:42Z</time>
      </trkpt>
      <trkpt lat="45.65454" lon="6.56827">
        <ele>1895.8</ele>
        <time>2022-08-27T09:23:50Z</time>
      </trkpt>
      <trkpt lat="45.65445" lon="6.56821">
        <ele>1896.8</ele>
        <time>2022-08-27T09:24:02Z</time>
      </trkpt>
      <trkpt lat="45.65441" lon="6.56819">
        <ele>1897.8</ele>
        <time>2022-08-27T09:24:09Z</time>
      </trkpt>
      <trkpt lat="45.65432" lon="6.56813">
        <ele>1899</ele>
        <time>2022-08-27T09:24:20Z</time>
      </trkpt>
      <trkpt lat="45.65429" lon="6.56808">
        <ele>1900</ele>
        <time>2022-08-27T09:24:29Z</time>
      </trkpt>
      <trkpt lat="45.65427" lon="6.56807">
        <ele>1900.8</ele>
        <time>2022-08-27T09:24:38Z</time>
      </trkpt>
      <trkpt lat="45.6542" lon="6.56799">
        <ele>1902.2</ele>
        <time>2022-08-27T09:24:50Z</time>
      </trkpt>
      <trkpt lat="45.65418" lon="6.56792">
        <ele>1903.2</ele>
        <time>2022-08-27T09:24:56Z</time>
      </trkpt>
      <trkpt lat="45.65419" lon="6.56786">
        <ele>1904.2</ele>
        <time>2022-08-27T09:25:01Z</time>
      </trkpt>
      <trkpt lat="45.65429" lon="6.56779">
        <ele>1905</ele>
        <time>2022-08-27T09:25:12Z</time>
      </trkpt>
      <trkpt lat="45.65439" lon="6.56778">
        <ele>1905.4</ele>
        <time>2022-08-27T09:25:22Z</time>
      </trkpt>
      <trkpt lat="45.65448" lon="6.56776">
        <ele>1906.4</ele>
        <time>2022-08-27T09:25:32Z</time>
      </trkpt>
      <trkpt lat="45.65458" lon="6.56779">
        <ele>1906.8</ele>
        <time>2022-08-27T09:25:43Z</time>
      </trkpt>
      <trkpt lat="45.65466" lon="6.5678">
        <ele>1907.8</ele>
        <time>2022-08-27T09:25:54Z</time>
      </trkpt>
      <trkpt lat="45.65468" lon="6.56781">
        <ele>1908.8</ele>
        <time>2022-08-27T09:26:01Z</time>
      </trkpt>
      <trkpt lat="45.65468" lon="6.5678">
        <ele>1909.4</ele>
        <time>2022-08-27T09:26:18Z</time>
      </trkpt>
      <trkpt lat="45.65472" lon="6.56779">
        <ele>1909.6</ele>
        <time>2022-08-27T09:26:38Z</time>
      </trkpt>
      <trkpt lat="45.65476" lon="6.5678">
        <ele>1909.8</ele>
        <time>2022-08-27T09:26:43Z</time>
      </trkpt>
      <trkpt lat="45.65483" lon="6.56778">
        <ele>1911</ele>
        <time>2022-08-27T09:26:53Z</time>
      </trkpt>
      <trkpt lat="45.6549" lon="6.56779">
        <ele>1912.2</ele>
        <time>2022-08-27T09:27:03Z</time>
      </trkpt>
      <trkpt lat="45.65495" lon="6.5678">
        <ele>1913.6</ele>
        <time>2022-08-27T09:27:13Z</time>
      </trkpt>
      <trkpt lat="45.655" lon="6.56781">
        <ele>1915</ele>
        <time>2022-08-27T09:27:22Z</time>
      </trkpt>
      <trkpt lat="45.65503" lon="6.56779">
        <ele>1916.2</ele>
        <time>2022-08-27T09:27:30Z</time>
      </trkpt>
      <trkpt lat="45.65509" lon="6.5678">
        <ele>1917</ele>
        <time>2022-08-27T09:27:39Z</time>
      </trkpt>
      <trkpt lat="45.65513" lon="6.56783">
        <ele>1917</ele>
        <time>2022-08-27T09:27:46Z</time>
      </trkpt>
      <trkpt lat="45.65516" lon="6.56784">
        <ele>1916.8</ele>
        <time>2022-08-27T09:27:52Z</time>
      </trkpt>
      <trkpt lat="45.65518" lon="6.56785">
        <ele>1916.8</ele>
        <time>2022-08-27T09:27:53Z</time>
      </trkpt>
      <trkpt lat="45.65522" lon="6.56784">
        <ele>1916.8</ele>
        <time>2022-08-27T09:27:54Z</time>
      </trkpt>
      <trkpt lat="45.65525" lon="6.56783">
        <ele>1916.6</ele>
        <time>2022-08-27T09:27:55Z</time>
      </trkpt>
      <trkpt lat="45.65527" lon="6.56781">
        <ele>1916.2</ele>
        <time>2022-08-27T09:27:59Z</time>
      </trkpt>
      <trkpt lat="45.65529" lon="6.56779">
        <ele>1916.2</ele>
        <time>2022-08-27T09:28:06Z</time>
      </trkpt>
      <trkpt lat="45.65531" lon="6.56778">
        <ele>1915.6</ele>
        <time>2022-08-27T09:28:14Z</time>
      </trkpt>
      <trkpt lat="45.65534" lon="6.56776">
        <ele>1915.4</ele>
        <time>2022-08-27T09:28:39Z</time>
      </trkpt>
      <trkpt lat="45.65536" lon="6.56774">
        <ele>1915.4</ele>
        <time>2022-08-27T09:28:40Z</time>
      </trkpt>
      <trkpt lat="45.65539" lon="6.56772">
        <ele>1915.4</ele>
        <time>2022-08-27T09:28:41Z</time>
      </trkpt>
      <trkpt lat="45.65542" lon="6.56769">
        <ele>1915.4</ele>
        <time>2022-08-27T09:28:42Z</time>
      </trkpt>
      <trkpt lat="45.65545" lon="6.56766">
        <ele>1915.4</ele>
        <time>2022-08-27T09:28:43Z</time>
      </trkpt>
      <trkpt lat="45.65548" lon="6.56762">
        <ele>1915.2</ele>
        <time>2022-08-27T09:28:44Z</time>
      </trkpt>
      <trkpt lat="45.65551" lon="6.56759">
        <ele>1914.8</ele>
        <time>2022-08-27T09:28:45Z</time>
      </trkpt>
      <trkpt lat="45.65553" lon="6.56757">
        <ele>1914.6</ele>
        <time>2022-08-27T09:28:46Z</time>
      </trkpt>
      <trkpt lat="45.65564" lon="6.56741">
        <ele>1912.8</ele>
        <time>2022-08-27T09:28:50Z</time>
      </trkpt>
      <trkpt lat="45.65571" lon="6.56735">
        <ele>1910.6</ele>
        <time>2022-08-27T09:28:54Z</time>
      </trkpt>
      <trkpt lat="45.65575" lon="6.56731">
        <ele>1910.4</ele>
        <time>2022-08-27T09:29:01Z</time>
      </trkpt>
      <trkpt lat="45.6558" lon="6.56728">
        <ele>1911.6</ele>
        <time>2022-08-27T09:29:11Z</time>
      </trkpt>
      <trkpt lat="45.65583" lon="6.56726">
        <ele>1912</ele>
        <time>2022-08-27T09:29:14Z</time>
      </trkpt>
      <trkpt lat="45.65585" lon="6.56725">
        <ele>1912</ele>
        <time>2022-08-27T09:29:15Z</time>
      </trkpt>
      <trkpt lat="45.65586" lon="6.56723">
        <ele>1912.2</ele>
        <time>2022-08-27T09:29:16Z</time>
      </trkpt>
      <trkpt lat="45.65589" lon="6.56721">
        <ele>1912.2</ele>
        <time>2022-08-27T09:29:17Z</time>
      </trkpt>
      <trkpt lat="45.65591" lon="6.56719">
        <ele>1912.2</ele>
        <time>2022-08-27T09:29:18Z</time>
      </trkpt>
      <trkpt lat="45.65594" lon="6.56718">
        <ele>1912</ele>
        <time>2022-08-27T09:29:19Z</time>
      </trkpt>
      <trkpt lat="45.65596" lon="6.56718">
        <ele>1912</ele>
        <time>2022-08-27T09:29:20Z</time>
      </trkpt>
      <trkpt lat="45.65598" lon="6.56718">
        <ele>1911.8</ele>
        <time>2022-08-27T09:29:21Z</time>
      </trkpt>
      <trkpt lat="45.65603" lon="6.56719">
        <ele>1912</ele>
        <time>2022-08-27T09:29:27Z</time>
      </trkpt>
      <trkpt lat="45.65607" lon="6.56718">
        <ele>1913.2</ele>
        <time>2022-08-27T09:29:34Z</time>
      </trkpt>
      <trkpt lat="45.65608" lon="6.56717">
        <ele>1913.2</ele>
        <time>2022-08-27T09:29:37Z</time>
      </trkpt>
      <trkpt lat="45.65609" lon="6.56716">
        <ele>1913.2</ele>
        <time>2022-08-27T09:29:38Z</time>
      </trkpt>
      <trkpt lat="45.65619" lon="6.56707">
        <ele>1912.6</ele>
        <time>2022-08-27T09:29:44Z</time>
      </trkpt>
      <trkpt lat="45.65636" lon="6.56699">
        <ele>1913.4</ele>
        <time>2022-08-27T09:29:52Z</time>
      </trkpt>
      <trkpt lat="45.65636" lon="6.56697">
        <ele>1913.6</ele>
        <time>2022-08-27T09:29:53Z</time>
      </trkpt>
      <trkpt lat="45.65638" lon="6.56695">
        <ele>1914</ele>
        <time>2022-08-27T09:29:54Z</time>
      </trkpt>
      <trkpt lat="45.6564" lon="6.56693">
        <ele>1914.2</ele>
        <time>2022-08-27T09:29:55Z</time>
      </trkpt>
      <trkpt lat="45.65642" lon="6.56689">
        <ele>1914.4</ele>
        <time>2022-08-27T09:29:56Z</time>
      </trkpt>
      <trkpt lat="45.65645" lon="6.56685">
        <ele>1914.6</ele>
        <time>2022-08-27T09:29:57Z</time>
      </trkpt>
      <trkpt lat="45.65648" lon="6.56684">
        <ele>1914.6</ele>
        <time>2022-08-27T09:29:58Z</time>
      </trkpt>
      <trkpt lat="45.65651" lon="6.56683">
        <ele>1914.6</ele>
        <time>2022-08-27T09:29:59Z</time>
      </trkpt>
      <trkpt lat="45.65659" lon="6.56685">
        <ele>1914.6</ele>
        <time>2022-08-27T09:30:05Z</time>
      </trkpt>
      <trkpt lat="45.65665" lon="6.56688">
        <ele>1915.4</ele>
        <time>2022-08-27T09:30:10Z</time>
      </trkpt>
      <trkpt lat="45.65666" lon="6.56687">
        <ele>1915.6</ele>
        <time>2022-08-27T09:30:11Z</time>
      </trkpt>
      <trkpt lat="45.65667" lon="6.56687">
        <ele>1915.8</ele>
        <time>2022-08-27T09:30:12Z</time>
      </trkpt>
      <trkpt lat="45.65668" lon="6.56687">
        <ele>1916</ele>
        <time>2022-08-27T09:30:13Z</time>
      </trkpt>
      <trkpt lat="45.65669" lon="6.56688">
        <ele>1916.2</ele>
        <time>2022-08-27T09:30:14Z</time>
      </trkpt>
      <trkpt lat="45.65672" lon="6.56688">
        <ele>1916.8</ele>
        <time>2022-08-27T09:30:17Z</time>
      </trkpt>
      <trkpt lat="45.65673" lon="6.56689">
        <ele>1917</ele>
        <time>2022-08-27T09:30:18Z</time>
      </trkpt>
      <trkpt lat="45.65675" lon="6.5669">
        <ele>1917.2</ele>
        <time>2022-08-27T09:30:19Z</time>
      </trkpt>
      <trkpt lat="45.65676" lon="6.56691">
        <ele>1917.4</ele>
        <time>2022-08-27T09:30:20Z</time>
      </trkpt>
      <trkpt lat="45.65677" lon="6.56692">
        <ele>1917.6</ele>
        <time>2022-08-27T09:30:21Z</time>
      </trkpt>
      <trkpt lat="45.65679" lon="6.56693">
        <ele>1917.6</ele>
        <time>2022-08-27T09:30:22Z</time>
      </trkpt>
      <trkpt lat="45.65682" lon="6.56696">
        <ele>1918</ele>
        <time>2022-08-27T09:30:25Z</time>
      </trkpt>
      <trkpt lat="45.65683" lon="6.56697">
        <ele>1918</ele>
        <time>2022-08-27T09:30:26Z</time>
      </trkpt>
      <trkpt lat="45.65685" lon="6.56698">
        <ele>1918.8</ele>
        <time>2022-08-27T09:30:32Z</time>
      </trkpt>
      <trkpt lat="45.65686" lon="6.56701">
        <ele>1919.2</ele>
        <time>2022-08-27T09:30:37Z</time>
      </trkpt>
      <trkpt lat="45.65686" lon="6.56703">
        <ele>1918.8</ele>
        <time>2022-08-27T09:30:43Z</time>
      </trkpt>
      <trkpt lat="45.65686" lon="6.56705">
        <ele>1918.6</ele>
        <time>2022-08-27T09:30:55Z</time>
      </trkpt>
      <trkpt lat="45.65686" lon="6.56707">
        <ele>1918.6</ele>
        <time>2022-08-27T09:30:56Z</time>
      </trkpt>
      <trkpt lat="45.65687" lon="6.56709">
        <ele>1918.6</ele>
        <time>2022-08-27T09:30:57Z</time>
      </trkpt>
      <trkpt lat="45.65687" lon="6.56712">
        <ele>1918.4</ele>
        <time>2022-08-27T09:30:58Z</time>
      </trkpt>
      <trkpt lat="45.65687" lon="6.56714">
        <ele>1918.4</ele>
        <time>2022-08-27T09:30:59Z</time>
      </trkpt>
      <trkpt lat="45.65687" lon="6.56716">
        <ele>1918.2</ele>
        <time>2022-08-27T09:31:00Z</time>
      </trkpt>
      <trkpt lat="45.65688" lon="6.56719">
        <ele>1918</ele>
        <time>2022-08-27T09:31:01Z</time>
      </trkpt>
      <trkpt lat="45.65689" lon="6.56722">
        <ele>1917.8</ele>
        <time>2022-08-27T09:31:02Z</time>
      </trkpt>
      <trkpt lat="45.6569" lon="6.56724">
        <ele>1917.6</ele>
        <time>2022-08-27T09:31:03Z</time>
      </trkpt>
      <trkpt lat="45.65692" lon="6.56724">
        <ele>1917.4</ele>
        <time>2022-08-27T09:31:04Z</time>
      </trkpt>
      <trkpt lat="45.65693" lon="6.56726">
        <ele>1916.8</ele>
        <time>2022-08-27T09:31:06Z</time>
      </trkpt>
      <trkpt lat="45.65694" lon="6.56728">
        <ele>1916.4</ele>
        <time>2022-08-27T09:31:07Z</time>
      </trkpt>
      <trkpt lat="45.65696" lon="6.56729">
        <ele>1916.2</ele>
        <time>2022-08-27T09:31:08Z</time>
      </trkpt>
      <trkpt lat="45.65698" lon="6.5673">
        <ele>1916</ele>
        <time>2022-08-27T09:31:09Z</time>
      </trkpt>
      <trkpt lat="45.657" lon="6.5673">
        <ele>1915.8</ele>
        <time>2022-08-27T09:31:10Z</time>
      </trkpt>
      <trkpt lat="45.65712" lon="6.56732">
        <ele>1914.8</ele>
        <time>2022-08-27T09:31:17Z</time>
      </trkpt>
      <trkpt lat="45.65724" lon="6.56726">
        <ele>1914.6</ele>
        <time>2022-08-27T09:31:25Z</time>
      </trkpt>
      <trkpt lat="45.65733" lon="6.56712">
        <ele>1915.6</ele>
        <time>2022-08-27T09:31:33Z</time>
      </trkpt>
      <trkpt lat="45.65734" lon="6.56709">
        <ele>1915.8</ele>
        <time>2022-08-27T09:31:38Z</time>
      </trkpt>
      <trkpt lat="45.65736" lon="6.56706">
        <ele>1916</ele>
        <time>2022-08-27T09:31:45Z</time>
      </trkpt>
      <trkpt lat="45.65737" lon="6.56704">
        <ele>1916</ele>
        <time>2022-08-27T09:31:49Z</time>
      </trkpt>
      <trkpt lat="45.65738" lon="6.56702">
        <ele>1915.8</ele>
        <time>2022-08-27T09:31:50Z</time>
      </trkpt>
      <trkpt lat="45.65746" lon="6.56687">
        <ele>1915.8</ele>
        <time>2022-08-27T09:31:55Z</time>
      </trkpt>
      <trkpt lat="45.65757" lon="6.56676">
        <ele>1914.4</ele>
        <time>2022-08-27T09:32:00Z</time>
      </trkpt>
      <trkpt lat="45.65761" lon="6.56677">
        <ele>1914.6</ele>
        <time>2022-08-27T09:32:07Z</time>
      </trkpt>
      <trkpt lat="45.65762" lon="6.56677">
        <ele>1914.6</ele>
        <time>2022-08-27T09:32:08Z</time>
      </trkpt>
      <trkpt lat="45.65766" lon="6.56675">
        <ele>1914.6</ele>
        <time>2022-08-27T09:32:14Z</time>
      </trkpt>
      <trkpt lat="45.65772" lon="6.56673">
        <ele>1915.2</ele>
        <time>2022-08-27T09:32:23Z</time>
      </trkpt>
      <trkpt lat="45.65776" lon="6.56669">
        <ele>1915.6</ele>
        <time>2022-08-27T09:32:30Z</time>
      </trkpt>
      <trkpt lat="45.65781" lon="6.56666">
        <ele>1916.4</ele>
        <time>2022-08-27T09:32:37Z</time>
      </trkpt>
      <trkpt lat="45.65788" lon="6.56668">
        <ele>1916.4</ele>
        <time>2022-08-27T09:32:45Z</time>
      </trkpt>
      <trkpt lat="45.65795" lon="6.56665">
        <ele>1916.8</ele>
        <time>2022-08-27T09:32:55Z</time>
      </trkpt>
      <trkpt lat="45.65803" lon="6.56665">
        <ele>1917.4</ele>
        <time>2022-08-27T09:33:06Z</time>
      </trkpt>
      <trkpt lat="45.65808" lon="6.56665">
        <ele>1918.8</ele>
        <time>2022-08-27T09:33:14Z</time>
      </trkpt>
      <trkpt lat="45.65811" lon="6.56664">
        <ele>1919.2</ele>
        <time>2022-08-27T09:33:18Z</time>
      </trkpt>
      <trkpt lat="45.65812" lon="6.56663">
        <ele>1919.2</ele>
        <time>2022-08-27T09:33:19Z</time>
      </trkpt>
      <trkpt lat="45.65817" lon="6.56662">
        <ele>1920.2</ele>
        <time>2022-08-27T09:33:27Z</time>
      </trkpt>
      <trkpt lat="45.65819" lon="6.56662">
        <ele>1920.2</ele>
        <time>2022-08-27T09:33:28Z</time>
      </trkpt>
      <trkpt lat="45.65822" lon="6.56662">
        <ele>1920.2</ele>
        <time>2022-08-27T09:33:29Z</time>
      </trkpt>
      <trkpt lat="45.65833" lon="6.56657">
        <ele>1919.4</ele>
        <time>2022-08-27T09:33:34Z</time>
      </trkpt>
      <trkpt lat="45.65846" lon="6.5665">
        <ele>1920</ele>
        <time>2022-08-27T09:33:43Z</time>
      </trkpt>
      <trkpt lat="45.65854" lon="6.56649">
        <ele>1920.6</ele>
        <time>2022-08-27T09:33:49Z</time>
      </trkpt>
      <trkpt lat="45.65859" lon="6.5665">
        <ele>1921.6</ele>
        <time>2022-08-27T09:33:55Z</time>
      </trkpt>
      <trkpt lat="45.65862" lon="6.56651">
        <ele>1922.8</ele>
        <time>2022-08-27T09:34:07Z</time>
      </trkpt>
      <trkpt lat="45.65864" lon="6.56652">
        <ele>1924.2</ele>
        <time>2022-08-27T09:34:17Z</time>
      </trkpt>
      <trkpt lat="45.65866" lon="6.56653">
        <ele>1924.6</ele>
        <time>2022-08-27T09:34:31Z</time>
      </trkpt>
      <trkpt lat="45.65872" lon="6.56657">
        <ele>1924.8</ele>
        <time>2022-08-27T09:34:36Z</time>
      </trkpt>
      <trkpt lat="45.65879" lon="6.5666">
        <ele>1924.2</ele>
        <time>2022-08-27T09:34:45Z</time>
      </trkpt>
      <trkpt lat="45.65885" lon="6.56658">
        <ele>1925.2</ele>
        <time>2022-08-27T09:34:55Z</time>
      </trkpt>
      <trkpt lat="45.6589" lon="6.56651">
        <ele>1926.6</ele>
        <time>2022-08-27T09:35:04Z</time>
      </trkpt>
      <trkpt lat="45.65891" lon="6.56647">
        <ele>1927.8</ele>
        <time>2022-08-27T09:35:12Z</time>
      </trkpt>
      <trkpt lat="45.65891" lon="6.56647">
        <ele>1928.2</ele>
        <time>2022-08-27T09:35:36Z</time>
      </trkpt>
      <trkpt lat="45.65892" lon="6.56644">
        <ele>1928.2</ele>
        <time>2022-08-27T09:35:46Z</time>
      </trkpt>
      <trkpt lat="45.65888" lon="6.56644">
        <ele>1927.6</ele>
        <time>2022-08-27T09:36:48Z</time>
      </trkpt>
      <trkpt lat="45.65891" lon="6.5664">
        <ele>1927.8</ele>
        <time>2022-08-27T09:37:16Z</time>
      </trkpt>
      <trkpt lat="45.65892" lon="6.5664">
        <ele>1928.2</ele>
        <time>2022-08-27T09:37:32Z</time>
      </trkpt>
      <trkpt lat="45.65894" lon="6.56637">
        <ele>1928.2</ele>
        <time>2022-08-27T09:37:39Z</time>
      </trkpt>
      <trkpt lat="45.65896" lon="6.56636">
        <ele>1928.2</ele>
        <time>2022-08-27T09:37:40Z</time>
      </trkpt>
      <trkpt lat="45.65898" lon="6.56635">
        <ele>1928.2</ele>
        <time>2022-08-27T09:37:41Z</time>
      </trkpt>
      <trkpt lat="45.65912" lon="6.56631">
        <ele>1927.8</ele>
        <time>2022-08-27T09:37:48Z</time>
      </trkpt>
      <trkpt lat="45.65921" lon="6.56621">
        <ele>1927</ele>
        <time>2022-08-27T09:37:53Z</time>
      </trkpt>
      <trkpt lat="45.65923" lon="6.5662">
        <ele>1926</ele>
        <time>2022-08-27T09:37:58Z</time>
      </trkpt>
      <trkpt lat="45.65924" lon="6.56618">
        <ele>1925.8</ele>
        <time>2022-08-27T09:37:59Z</time>
      </trkpt>
      <trkpt lat="45.65925" lon="6.56617">
        <ele>1925.8</ele>
        <time>2022-08-27T09:38:00Z</time>
      </trkpt>
      <trkpt lat="45.65936" lon="6.56606">
        <ele>1925</ele>
        <time>2022-08-27T09:38:06Z</time>
      </trkpt>
      <trkpt lat="45.65938" lon="6.56603">
        <ele>1924.6</ele>
        <time>2022-08-27T09:38:12Z</time>
      </trkpt>
      <trkpt lat="45.6594" lon="6.56602">
        <ele>1924.6</ele>
        <time>2022-08-27T09:38:13Z</time>
      </trkpt>
      <trkpt lat="45.65943" lon="6.56599">
        <ele>1924.6</ele>
        <time>2022-08-27T09:38:14Z</time>
      </trkpt>
      <trkpt lat="45.65945" lon="6.56596">
        <ele>1924.6</ele>
        <time>2022-08-27T09:38:15Z</time>
      </trkpt>
      <trkpt lat="45.65948" lon="6.56594">
        <ele>1924.6</ele>
        <time>2022-08-27T09:38:16Z</time>
      </trkpt>
      <trkpt lat="45.65963" lon="6.56586">
        <ele>1923.8</ele>
        <time>2022-08-27T09:38:21Z</time>
      </trkpt>
      <trkpt lat="45.65979" lon="6.56583">
        <ele>1922</ele>
        <time>2022-08-27T09:38:27Z</time>
      </trkpt>
      <trkpt lat="45.65986" lon="6.56583">
        <ele>1921</ele>
        <time>2022-08-27T09:38:31Z</time>
      </trkpt>
      <trkpt lat="45.66013" lon="6.56586">
        <ele>1919.2</ele>
        <time>2022-08-27T09:38:36Z</time>
      </trkpt>
      <trkpt lat="45.66024" lon="6.56586">
        <ele>1915.8</ele>
        <time>2022-08-27T09:38:40Z</time>
      </trkpt>
      <trkpt lat="45.66026" lon="6.56584">
        <ele>1912.6</ele>
        <time>2022-08-27T09:38:44Z</time>
      </trkpt>
      <trkpt lat="45.66025" lon="6.56583">
        <ele>1910.6</ele>
        <time>2022-08-27T09:39:19Z</time>
      </trkpt>
      <trkpt lat="45.66027" lon="6.56579">
        <ele>1910.4</ele>
        <time>2022-08-27T09:39:36Z</time>
      </trkpt>
      <trkpt lat="45.66029" lon="6.56576">
        <ele>1910.4</ele>
        <time>2022-08-27T09:39:37Z</time>
      </trkpt>
      <trkpt lat="45.66032" lon="6.56574">
        <ele>1910.4</ele>
        <time>2022-08-27T09:39:38Z</time>
      </trkpt>
      <trkpt lat="45.66035" lon="6.56573">
        <ele>1910.2</ele>
        <time>2022-08-27T09:39:39Z</time>
      </trkpt>
      <trkpt lat="45.66038" lon="6.56571">
        <ele>1910</ele>
        <time>2022-08-27T09:39:40Z</time>
      </trkpt>
      <trkpt lat="45.6604" lon="6.56567">
        <ele>1909.4</ele>
        <time>2022-08-27T09:39:41Z</time>
      </trkpt>
      <trkpt lat="45.66043" lon="6.56563">
        <ele>1908.8</ele>
        <time>2022-08-27T09:39:42Z</time>
      </trkpt>
      <trkpt lat="45.66044" lon="6.56557">
        <ele>1908.2</ele>
        <time>2022-08-27T09:39:43Z</time>
      </trkpt>
      <trkpt lat="45.66046" lon="6.56553">
        <ele>1907.4</ele>
        <time>2022-08-27T09:39:44Z</time>
      </trkpt>
      <trkpt lat="45.66049" lon="6.56549">
        <ele>1906.6</ele>
        <time>2022-08-27T09:39:45Z</time>
      </trkpt>
      <trkpt lat="45.66052" lon="6.56548">
        <ele>1906</ele>
        <time>2022-08-27T09:39:46Z</time>
      </trkpt>
      <trkpt lat="45.66055" lon="6.56546">
        <ele>1905.4</ele>
        <time>2022-08-27T09:39:47Z</time>
      </trkpt>
      <trkpt lat="45.66073" lon="6.5654">
        <ele>1902.4</ele>
        <time>2022-08-27T09:39:53Z</time>
      </trkpt>
      <trkpt lat="45.66075" lon="6.56537">
        <ele>1901.8</ele>
        <time>2022-08-27T09:39:54Z</time>
      </trkpt>
      <trkpt lat="45.66076" lon="6.56534">
        <ele>1901</ele>
        <time>2022-08-27T09:39:56Z</time>
      </trkpt>
      <trkpt lat="45.66077" lon="6.56533">
        <ele>1900.8</ele>
        <time>2022-08-27T09:39:57Z</time>
      </trkpt>
      <trkpt lat="45.66081" lon="6.5653">
        <ele>1899.8</ele>
        <time>2022-08-27T09:40:01Z</time>
      </trkpt>
      <trkpt lat="45.66083" lon="6.56525">
        <ele>1899.6</ele>
        <time>2022-08-27T09:40:03Z</time>
      </trkpt>
      <trkpt lat="45.66084" lon="6.56522">
        <ele>1899.4</ele>
        <time>2022-08-27T09:40:04Z</time>
      </trkpt>
      <trkpt lat="45.66086" lon="6.5652">
        <ele>1898.6</ele>
        <time>2022-08-27T09:40:08Z</time>
      </trkpt>
      <trkpt lat="45.66088" lon="6.56521">
        <ele>1898.4</ele>
        <time>2022-08-27T09:40:09Z</time>
      </trkpt>
      <trkpt lat="45.6609" lon="6.56524">
        <ele>1898</ele>
        <time>2022-08-27T09:40:10Z</time>
      </trkpt>
      <trkpt lat="45.66091" lon="6.56527">
        <ele>1897.8</ele>
        <time>2022-08-27T09:40:11Z</time>
      </trkpt>
      <trkpt lat="45.66093" lon="6.56529">
        <ele>1897.6</ele>
        <time>2022-08-27T09:40:12Z</time>
      </trkpt>
      <trkpt lat="45.66096" lon="6.56529">
        <ele>1897.2</ele>
        <time>2022-08-27T09:40:13Z</time>
      </trkpt>
      <trkpt lat="45.66099" lon="6.5653">
        <ele>1896.8</ele>
        <time>2022-08-27T09:40:14Z</time>
      </trkpt>
      <trkpt lat="45.66106" lon="6.5653">
        <ele>1894.4</ele>
        <time>2022-08-27T09:40:18Z</time>
      </trkpt>
      <trkpt lat="45.66107" lon="6.56529">
        <ele>1892.6</ele>
        <time>2022-08-27T09:40:22Z</time>
      </trkpt>
      <trkpt lat="45.66108" lon="6.56529">
        <ele>1891.6</ele>
        <time>2022-08-27T09:40:37Z</time>
      </trkpt>
      <trkpt lat="45.66111" lon="6.56529">
        <ele>1891.2</ele>
        <time>2022-08-27T09:40:45Z</time>
      </trkpt>
      <trkpt lat="45.66113" lon="6.56526">
        <ele>1890.6</ele>
        <time>2022-08-27T09:40:51Z</time>
      </trkpt>
      <trkpt lat="45.66114" lon="6.56526">
        <ele>1889.2</ele>
        <time>2022-08-27T09:41:01Z</time>
      </trkpt>
      <trkpt lat="45.66117" lon="6.56525">
        <ele>1889</ele>
        <time>2022-08-27T09:41:05Z</time>
      </trkpt>
      <trkpt lat="45.66118" lon="6.56525">
        <ele>1889</ele>
        <time>2022-08-27T09:41:06Z</time>
      </trkpt>
      <trkpt lat="45.66119" lon="6.56524">
        <ele>1888.6</ele>
        <time>2022-08-27T09:41:07Z</time>
      </trkpt>
      <trkpt lat="45.66121" lon="6.56523">
        <ele>1888.4</ele>
        <time>2022-08-27T09:41:08Z</time>
      </trkpt>
      <trkpt lat="45.66122" lon="6.56522">
        <ele>1888.2</ele>
        <time>2022-08-27T09:41:09Z</time>
      </trkpt>
      <trkpt lat="45.66123" lon="6.5652">
        <ele>1887.8</ele>
        <time>2022-08-27T09:41:10Z</time>
      </trkpt>
      <trkpt lat="45.66123" lon="6.56519">
        <ele>1887.6</ele>
        <time>2022-08-27T09:41:11Z</time>
      </trkpt>
      <trkpt lat="45.66124" lon="6.56517">
        <ele>1887.2</ele>
        <time>2022-08-27T09:41:12Z</time>
      </trkpt>
      <trkpt lat="45.66125" lon="6.56516">
        <ele>1886.8</ele>
        <time>2022-08-27T09:41:13Z</time>
      </trkpt>
      <trkpt lat="45.66127" lon="6.56516">
        <ele>1886.4</ele>
        <time>2022-08-27T09:41:14Z</time>
      </trkpt>
      <trkpt lat="45.66128" lon="6.56515">
        <ele>1886</ele>
        <time>2022-08-27T09:41:15Z</time>
      </trkpt>
      <trkpt lat="45.66129" lon="6.56513">
        <ele>1883.6</ele>
        <time>2022-08-27T09:41:21Z</time>
      </trkpt>
      <trkpt lat="45.6613" lon="6.56513">
        <ele>1882.8</ele>
        <time>2022-08-27T09:41:54Z</time>
      </trkpt>
      <trkpt lat="45.66132" lon="6.56511">
        <ele>1882.8</ele>
        <time>2022-08-27T09:41:55Z</time>
      </trkpt>
      <trkpt lat="45.66136" lon="6.56509">
        <ele>1882.8</ele>
        <time>2022-08-27T09:41:56Z</time>
      </trkpt>
      <trkpt lat="45.6614" lon="6.56507">
        <ele>1882.8</ele>
        <time>2022-08-27T09:41:57Z</time>
      </trkpt>
      <trkpt lat="45.66144" lon="6.56505">
        <ele>1882.6</ele>
        <time>2022-08-27T09:41:58Z</time>
      </trkpt>
      <trkpt lat="45.66148" lon="6.56505">
        <ele>1882.4</ele>
        <time>2022-08-27T09:41:59Z</time>
      </trkpt>
      <trkpt lat="45.6615" lon="6.56505">
        <ele>1882</ele>
        <time>2022-08-27T09:42:00Z</time>
      </trkpt>
      <trkpt lat="45.66153" lon="6.56507">
        <ele>1881.8</ele>
        <time>2022-08-27T09:42:01Z</time>
      </trkpt>
      <trkpt lat="45.66154" lon="6.5651">
        <ele>1881.2</ele>
        <time>2022-08-27T09:42:02Z</time>
      </trkpt>
      <trkpt lat="45.66156" lon="6.56513">
        <ele>1880.8</ele>
        <time>2022-08-27T09:42:03Z</time>
      </trkpt>
      <trkpt lat="45.66167" lon="6.56527">
        <ele>1877.8</ele>
        <time>2022-08-27T09:42:07Z</time>
      </trkpt>
      <trkpt lat="45.6617" lon="6.56529">
        <ele>1877</ele>
        <time>2022-08-27T09:42:08Z</time>
      </trkpt>
      <trkpt lat="45.66172" lon="6.56528">
        <ele>1876.4</ele>
        <time>2022-08-27T09:42:09Z</time>
      </trkpt>
      <trkpt lat="45.66173" lon="6.56526">
        <ele>1875.8</ele>
        <time>2022-08-27T09:42:10Z</time>
      </trkpt>
      <trkpt lat="45.66174" lon="6.56522">
        <ele>1875.2</ele>
        <time>2022-08-27T09:42:11Z</time>
      </trkpt>
      <trkpt lat="45.66174" lon="6.56517">
        <ele>1874.6</ele>
        <time>2022-08-27T09:42:12Z</time>
      </trkpt>
      <trkpt lat="45.66174" lon="6.56511">
        <ele>1874.2</ele>
        <time>2022-08-27T09:42:13Z</time>
      </trkpt>
      <trkpt lat="45.66175" lon="6.56504">
        <ele>1873.6</ele>
        <time>2022-08-27T09:42:14Z</time>
      </trkpt>
      <trkpt lat="45.66175" lon="6.56496">
        <ele>1873.2</ele>
        <time>2022-08-27T09:42:15Z</time>
      </trkpt>
      <trkpt lat="45.66175" lon="6.56488">
        <ele>1872.4</ele>
        <time>2022-08-27T09:42:16Z</time>
      </trkpt>
      <trkpt lat="45.66174" lon="6.56479">
        <ele>1871.8</ele>
        <time>2022-08-27T09:42:17Z</time>
      </trkpt>
      <trkpt lat="45.66175" lon="6.56469">
        <ele>1870.8</ele>
        <time>2022-08-27T09:42:18Z</time>
      </trkpt>
      <trkpt lat="45.66176" lon="6.5646">
        <ele>1869.8</ele>
        <time>2022-08-27T09:42:19Z</time>
      </trkpt>
      <trkpt lat="45.66178" lon="6.56451">
        <ele>1868.6</ele>
        <time>2022-08-27T09:42:20Z</time>
      </trkpt>
      <trkpt lat="45.6618" lon="6.56443">
        <ele>1867.6</ele>
        <time>2022-08-27T09:42:21Z</time>
      </trkpt>
      <trkpt lat="45.66187" lon="6.5642">
        <ele>1864</ele>
        <time>2022-08-27T09:42:24Z</time>
      </trkpt>
      <trkpt lat="45.66189" lon="6.56413">
        <ele>1862.6</ele>
        <time>2022-08-27T09:42:25Z</time>
      </trkpt>
      <trkpt lat="45.66191" lon="6.56409">
        <ele>1861.4</ele>
        <time>2022-08-27T09:42:26Z</time>
      </trkpt>
      <trkpt lat="45.66193" lon="6.56407">
        <ele>1860.2</ele>
        <time>2022-08-27T09:42:27Z</time>
      </trkpt>
      <trkpt lat="45.66196" lon="6.56405">
        <ele>1859</ele>
        <time>2022-08-27T09:42:28Z</time>
      </trkpt>
      <trkpt lat="45.66199" lon="6.56405">
        <ele>1858</ele>
        <time>2022-08-27T09:42:29Z</time>
      </trkpt>
      <trkpt lat="45.66202" lon="6.56406">
        <ele>1857</ele>
        <time>2022-08-27T09:42:30Z</time>
      </trkpt>
      <trkpt lat="45.66209" lon="6.56415">
        <ele>1855.2</ele>
        <time>2022-08-27T09:42:32Z</time>
      </trkpt>
      <trkpt lat="45.6622" lon="6.56434">
        <ele>1852.8</ele>
        <time>2022-08-27T09:42:35Z</time>
      </trkpt>
      <trkpt lat="45.66224" lon="6.56437">
        <ele>1852.2</ele>
        <time>2022-08-27T09:42:36Z</time>
      </trkpt>
      <trkpt lat="45.66226" lon="6.56437">
        <ele>1851.6</ele>
        <time>2022-08-27T09:42:37Z</time>
      </trkpt>
      <trkpt lat="45.66229" lon="6.56435">
        <ele>1848.8</ele>
        <time>2022-08-27T09:42:41Z</time>
      </trkpt>
      <trkpt lat="45.66231" lon="6.56434">
        <ele>1846.4</ele>
        <time>2022-08-27T09:42:50Z</time>
      </trkpt>
      <trkpt lat="45.66233" lon="6.56433">
        <ele>1846.4</ele>
        <time>2022-08-27T09:42:51Z</time>
      </trkpt>
      <trkpt lat="45.66238" lon="6.5643">
        <ele>1846.4</ele>
        <time>2022-08-27T09:42:52Z</time>
      </trkpt>
      <trkpt lat="45.66242" lon="6.56426">
        <ele>1846.4</ele>
        <time>2022-08-27T09:42:53Z</time>
      </trkpt>
      <trkpt lat="45.66245" lon="6.5642">
        <ele>1846</ele>
        <time>2022-08-27T09:42:54Z</time>
      </trkpt>
      <trkpt lat="45.66246" lon="6.56413">
        <ele>1845.6</ele>
        <time>2022-08-27T09:42:55Z</time>
      </trkpt>
      <trkpt lat="45.66245" lon="6.56406">
        <ele>1845</ele>
        <time>2022-08-27T09:42:56Z</time>
      </trkpt>
      <trkpt lat="45.66243" lon="6.56398">
        <ele>1844</ele>
        <time>2022-08-27T09:42:57Z</time>
      </trkpt>
      <trkpt lat="45.66241" lon="6.56388">
        <ele>1842.8</ele>
        <time>2022-08-27T09:42:58Z</time>
      </trkpt>
      <trkpt lat="45.66236" lon="6.56356">
        <ele>1839.8</ele>
        <time>2022-08-27T09:43:01Z</time>
      </trkpt>
      <trkpt lat="45.66236" lon="6.56349">
        <ele>1838.6</ele>
        <time>2022-08-27T09:43:02Z</time>
      </trkpt>
      <trkpt lat="45.66236" lon="6.56344">
        <ele>1835.8</ele>
        <time>2022-08-27T09:43:03Z</time>
      </trkpt>
      <trkpt lat="45.66238" lon="6.56341">
        <ele>1834.4</ele>
        <time>2022-08-27T09:43:04Z</time>
      </trkpt>
      <trkpt lat="45.66241" lon="6.56337">
        <ele>1833</ele>
        <time>2022-08-27T09:43:05Z</time>
      </trkpt>
      <trkpt lat="45.66245" lon="6.56335">
        <ele>1831.8</ele>
        <time>2022-08-27T09:43:06Z</time>
      </trkpt>
      <trkpt lat="45.66248" lon="6.56333">
        <ele>1830.6</ele>
        <time>2022-08-27T09:43:07Z</time>
      </trkpt>
      <trkpt lat="45.66257" lon="6.56328">
        <ele>1828.8</ele>
        <time>2022-08-27T09:43:09Z</time>
      </trkpt>
      <trkpt lat="45.66262" lon="6.56327">
        <ele>1827.8</ele>
        <time>2022-08-27T09:43:10Z</time>
      </trkpt>
      <trkpt lat="45.66266" lon="6.56327">
        <ele>1827</ele>
        <time>2022-08-27T09:43:11Z</time>
      </trkpt>
      <trkpt lat="45.66271" lon="6.56328">
        <ele>1826.2</ele>
        <time>2022-08-27T09:43:12Z</time>
      </trkpt>
      <trkpt lat="45.66275" lon="6.56329">
        <ele>1825</ele>
        <time>2022-08-27T09:43:13Z</time>
      </trkpt>
      <trkpt lat="45.66286" lon="6.56332">
        <ele>1822.6</ele>
        <time>2022-08-27T09:43:15Z</time>
      </trkpt>
      <trkpt lat="45.66291" lon="6.56335">
        <ele>1821.6</ele>
        <time>2022-08-27T09:43:16Z</time>
      </trkpt>
      <trkpt lat="45.66309" lon="6.5635">
        <ele>1817.8</ele>
        <time>2022-08-27T09:43:19Z</time>
      </trkpt>
      <trkpt lat="45.66316" lon="6.56357">
        <ele>1816.4</ele>
        <time>2022-08-27T09:43:20Z</time>
      </trkpt>
      <trkpt lat="45.66322" lon="6.56366">
        <ele>1815</ele>
        <time>2022-08-27T09:43:21Z</time>
      </trkpt>
      <trkpt lat="45.6634" lon="6.56392">
        <ele>1810.8</ele>
        <time>2022-08-27T09:43:24Z</time>
      </trkpt>
      <trkpt lat="45.66355" lon="6.56408">
        <ele>1807.2</ele>
        <time>2022-08-27T09:43:27Z</time>
      </trkpt>
      <trkpt lat="45.66359" lon="6.56411">
        <ele>1806.4</ele>
        <time>2022-08-27T09:43:28Z</time>
      </trkpt>
      <trkpt lat="45.66373" lon="6.56418">
        <ele>1803.6</ele>
        <time>2022-08-27T09:43:33Z</time>
      </trkpt>
      <trkpt lat="45.66388" lon="6.5643">
        <ele>1802.2</ele>
        <time>2022-08-27T09:43:38Z</time>
      </trkpt>
      <trkpt lat="45.66404" lon="6.5644">
        <ele>1799.6</ele>
        <time>2022-08-27T09:43:43Z</time>
      </trkpt>
      <trkpt lat="45.66416" lon="6.56446">
        <ele>1797.4</ele>
        <time>2022-08-27T09:43:46Z</time>
      </trkpt>
      <trkpt lat="45.66429" lon="6.56454">
        <ele>1794.8</ele>
        <time>2022-08-27T09:43:49Z</time>
      </trkpt>
      <trkpt lat="45.66444" lon="6.56464">
        <ele>1790.8</ele>
        <time>2022-08-27T09:43:53Z</time>
      </trkpt>
      <trkpt lat="45.66448" lon="6.56467">
        <ele>1789.6</ele>
        <time>2022-08-27T09:43:54Z</time>
      </trkpt>
      <trkpt lat="45.66451" lon="6.56471">
        <ele>1788.6</ele>
        <time>2022-08-27T09:43:55Z</time>
      </trkpt>
      <trkpt lat="45.66458" lon="6.56479">
        <ele>1785.6</ele>
        <time>2022-08-27T09:43:57Z</time>
      </trkpt>
      <trkpt lat="45.66462" lon="6.56484">
        <ele>1784.6</ele>
        <time>2022-08-27T09:43:58Z</time>
      </trkpt>
      <trkpt lat="45.66465" lon="6.5649">
        <ele>1783.6</ele>
        <time>2022-08-27T09:43:59Z</time>
      </trkpt>
      <trkpt lat="45.66467" lon="6.56496">
        <ele>1782.8</ele>
        <time>2022-08-27T09:44:00Z</time>
      </trkpt>
      <trkpt lat="45.66469" lon="6.56501">
        <ele>1781.8</ele>
        <time>2022-08-27T09:44:01Z</time>
      </trkpt>
      <trkpt lat="45.66471" lon="6.56507">
        <ele>1781</ele>
        <time>2022-08-27T09:44:02Z</time>
      </trkpt>
      <trkpt lat="45.66473" lon="6.56512">
        <ele>1780.2</ele>
        <time>2022-08-27T09:44:03Z</time>
      </trkpt>
      <trkpt lat="45.66479" lon="6.5653">
        <ele>1777</ele>
        <time>2022-08-27T09:44:07Z</time>
      </trkpt>
      <trkpt lat="45.66485" lon="6.56535">
        <ele>1773.8</ele>
        <time>2022-08-27T09:44:11Z</time>
      </trkpt>
      <trkpt lat="45.66486" lon="6.56534">
        <ele>1773.2</ele>
        <time>2022-08-27T09:44:12Z</time>
      </trkpt>
      <trkpt lat="45.66487" lon="6.56533">
        <ele>1772.8</ele>
        <time>2022-08-27T09:44:13Z</time>
      </trkpt>
      <trkpt lat="45.66488" lon="6.56532">
        <ele>1772.4</ele>
        <time>2022-08-27T09:44:14Z</time>
      </trkpt>
      <trkpt lat="45.66488" lon="6.5653">
        <ele>1772</ele>
        <time>2022-08-27T09:44:15Z</time>
      </trkpt>
      <trkpt lat="45.66489" lon="6.56527">
        <ele>1771.6</ele>
        <time>2022-08-27T09:44:16Z</time>
      </trkpt>
      <trkpt lat="45.6649" lon="6.56523">
        <ele>1771.4</ele>
        <time>2022-08-27T09:44:17Z</time>
      </trkpt>
      <trkpt lat="45.66499" lon="6.56507">
        <ele>1768</ele>
        <time>2022-08-27T09:44:22Z</time>
      </trkpt>
      <trkpt lat="45.66504" lon="6.56501">
        <ele>1764.2</ele>
        <time>2022-08-27T09:44:27Z</time>
      </trkpt>
      <trkpt lat="45.66509" lon="6.565">
        <ele>1761.4</ele>
        <time>2022-08-27T09:44:36Z</time>
      </trkpt>
      <trkpt lat="45.66519" lon="6.56492">
        <ele>1760.2</ele>
        <time>2022-08-27T09:44:40Z</time>
      </trkpt>
      <trkpt lat="45.66523" lon="6.56488">
        <ele>1760</ele>
        <time>2022-08-27T09:44:41Z</time>
      </trkpt>
      <trkpt lat="45.66529" lon="6.56486">
        <ele>1759.6</ele>
        <time>2022-08-27T09:44:42Z</time>
      </trkpt>
      <trkpt lat="45.66536" lon="6.56485">
        <ele>1759.2</ele>
        <time>2022-08-27T09:44:43Z</time>
      </trkpt>
      <trkpt lat="45.66545" lon="6.56486">
        <ele>1758.6</ele>
        <time>2022-08-27T09:44:44Z</time>
      </trkpt>
      <trkpt lat="45.66553" lon="6.56489">
        <ele>1757.8</ele>
        <time>2022-08-27T09:44:45Z</time>
      </trkpt>
      <trkpt lat="45.66561" lon="6.56492">
        <ele>1757</ele>
        <time>2022-08-27T09:44:46Z</time>
      </trkpt>
      <trkpt lat="45.66573" lon="6.56496">
        <ele>1754.2</ele>
        <time>2022-08-27T09:44:48Z</time>
      </trkpt>
      <trkpt lat="45.66585" lon="6.56498">
        <ele>1751</ele>
        <time>2022-08-27T09:44:50Z</time>
      </trkpt>
      <trkpt lat="45.66598" lon="6.565">
        <ele>1747.8</ele>
        <time>2022-08-27T09:44:52Z</time>
      </trkpt>
      <trkpt lat="45.66605" lon="6.56499">
        <ele>1746.2</ele>
        <time>2022-08-27T09:44:53Z</time>
      </trkpt>
      <trkpt lat="45.66619" lon="6.56498">
        <ele>1742.2</ele>
        <time>2022-08-27T09:44:55Z</time>
      </trkpt>
      <trkpt lat="45.66639" lon="6.56498">
        <ele>1739</ele>
        <time>2022-08-27T09:44:58Z</time>
      </trkpt>
      <trkpt lat="45.66665" lon="6.56506">
        <ele>1736</ele>
        <time>2022-08-27T09:45:02Z</time>
      </trkpt>
      <trkpt lat="45.6669" lon="6.56513">
        <ele>1732.8</ele>
        <time>2022-08-27T09:45:05Z</time>
      </trkpt>
      <trkpt lat="45.66715" lon="6.56521">
        <ele>1728.8</ele>
        <time>2022-08-27T09:45:08Z</time>
      </trkpt>
      <trkpt lat="45.66744" lon="6.56527">
        <ele>1724.8</ele>
        <time>2022-08-27T09:45:11Z</time>
      </trkpt>
      <trkpt lat="45.66773" lon="6.56532">
        <ele>1721.2</ele>
        <time>2022-08-27T09:45:14Z</time>
      </trkpt>
      <trkpt lat="45.66803" lon="6.56538">
        <ele>1718.2</ele>
        <time>2022-08-27T09:45:17Z</time>
      </trkpt>
      <trkpt lat="45.6683" lon="6.56546">
        <ele>1714.8</ele>
        <time>2022-08-27T09:45:20Z</time>
      </trkpt>
      <trkpt lat="45.66853" lon="6.56556">
        <ele>1711.2</ele>
        <time>2022-08-27T09:45:23Z</time>
      </trkpt>
      <trkpt lat="45.66882" lon="6.56566">
        <ele>1707.8</ele>
        <time>2022-08-27T09:45:28Z</time>
      </trkpt>
      <trkpt lat="45.66894" lon="6.56568">
        <ele>1706.8</ele>
        <time>2022-08-27T09:45:33Z</time>
      </trkpt>
      <trkpt lat="45.66903" lon="6.56553">
        <ele>1706.4</ele>
        <time>2022-08-27T09:45:39Z</time>
      </trkpt>
      <trkpt lat="45.66922" lon="6.56533">
        <ele>1704</ele>
        <time>2022-08-27T09:45:46Z</time>
      </trkpt>
      <trkpt lat="45.66941" lon="6.56527">
        <ele>1701.4</ele>
        <time>2022-08-27T09:45:50Z</time>
      </trkpt>
      <trkpt lat="45.66948" lon="6.56527">
        <ele>1700.2</ele>
        <time>2022-08-27T09:45:51Z</time>
      </trkpt>
      <trkpt lat="45.66954" lon="6.56528">
        <ele>1699.4</ele>
        <time>2022-08-27T09:45:52Z</time>
      </trkpt>
      <trkpt lat="45.66959" lon="6.5653">
        <ele>1698.6</ele>
        <time>2022-08-27T09:45:53Z</time>
      </trkpt>
      <trkpt lat="45.66964" lon="6.56533">
        <ele>1697.6</ele>
        <time>2022-08-27T09:45:54Z</time>
      </trkpt>
      <trkpt lat="45.66969" lon="6.56536">
        <ele>1696.6</ele>
        <time>2022-08-27T09:45:55Z</time>
      </trkpt>
      <trkpt lat="45.6698" lon="6.56542">
        <ele>1694.2</ele>
        <time>2022-08-27T09:45:58Z</time>
      </trkpt>
      <trkpt lat="45.66985" lon="6.56543">
        <ele>1693.8</ele>
        <time>2022-08-27T09:45:59Z</time>
      </trkpt>
      <trkpt lat="45.66989" lon="6.56544">
        <ele>1693.4</ele>
        <time>2022-08-27T09:46:00Z</time>
      </trkpt>
      <trkpt lat="45.67012" lon="6.5655">
        <ele>1690.2</ele>
        <time>2022-08-27T09:46:07Z</time>
      </trkpt>
      <trkpt lat="45.67013" lon="6.5655">
        <ele>1687.4</ele>
        <time>2022-08-27T09:46:12Z</time>
      </trkpt>
      <trkpt lat="45.67014" lon="6.56549">
        <ele>1686.4</ele>
        <time>2022-08-27T09:46:16Z</time>
      </trkpt>
      <trkpt lat="45.67014" lon="6.56546">
        <ele>1686.2</ele>
        <time>2022-08-27T09:46:17Z</time>
      </trkpt>
      <trkpt lat="45.67013" lon="6.56543">
        <ele>1686.2</ele>
        <time>2022-08-27T09:46:18Z</time>
      </trkpt>
      <trkpt lat="45.67012" lon="6.56541">
        <ele>1686.2</ele>
        <time>2022-08-27T09:46:19Z</time>
      </trkpt>
      <trkpt lat="45.6701" lon="6.5654">
        <ele>1686</ele>
        <time>2022-08-27T09:46:20Z</time>
      </trkpt>
      <trkpt lat="45.67008" lon="6.56539">
        <ele>1685.8</ele>
        <time>2022-08-27T09:46:21Z</time>
      </trkpt>
      <trkpt lat="45.66996" lon="6.56532">
        <ele>1685.8</ele>
        <time>2022-08-27T09:46:26Z</time>
      </trkpt>
      <trkpt lat="45.66995" lon="6.5653">
        <ele>1685.8</ele>
        <time>2022-08-27T09:46:27Z</time>
      </trkpt>
      <trkpt lat="45.66995" lon="6.56528">
        <ele>1685.8</ele>
        <time>2022-08-27T09:46:28Z</time>
      </trkpt>
      <trkpt lat="45.66997" lon="6.56527">
        <ele>1685.8</ele>
        <time>2022-08-27T09:46:29Z</time>
      </trkpt>
      <trkpt lat="45.66999" lon="6.56527">
        <ele>1685.8</ele>
        <time>2022-08-27T09:46:30Z</time>
      </trkpt>
      <trkpt lat="45.67002" lon="6.56528">
        <ele>1685.8</ele>
        <time>2022-08-27T09:46:31Z</time>
      </trkpt>
      <trkpt lat="45.67005" lon="6.5653">
        <ele>1685.8</ele>
        <time>2022-08-27T09:46:32Z</time>
      </trkpt>
      <trkpt lat="45.67009" lon="6.56531">
        <ele>1685.8</ele>
        <time>2022-08-27T09:46:33Z</time>
      </trkpt>
      <trkpt lat="45.67019" lon="6.56536">
        <ele>1685.4</ele>
        <time>2022-08-27T09:46:35Z</time>
      </trkpt>
      <trkpt lat="45.67023" lon="6.5654">
        <ele>1685</ele>
        <time>2022-08-27T09:46:36Z</time>
      </trkpt>
      <trkpt lat="45.67031" lon="6.56547">
        <ele>1684</ele>
        <time>2022-08-27T09:46:38Z</time>
      </trkpt>
      <trkpt lat="45.67042" lon="6.56554">
        <ele>1681.8</ele>
        <time>2022-08-27T09:46:41Z</time>
      </trkpt>
      <trkpt lat="45.67046" lon="6.56555">
        <ele>1681.2</ele>
        <time>2022-08-27T09:46:42Z</time>
      </trkpt>
      <trkpt lat="45.67057" lon="6.56552">
        <ele>1679.6</ele>
        <time>2022-08-27T09:46:45Z</time>
      </trkpt>
      <trkpt lat="45.67057" lon="6.56548">
        <ele>1679</ele>
        <time>2022-08-27T09:46:46Z</time>
      </trkpt>
      <trkpt lat="45.67056" lon="6.56542">
        <ele>1678.4</ele>
        <time>2022-08-27T09:46:47Z</time>
      </trkpt>
      <trkpt lat="45.67054" lon="6.56535">
        <ele>1677</ele>
        <time>2022-08-27T09:46:48Z</time>
      </trkpt>
      <trkpt lat="45.67051" lon="6.5653">
        <ele>1676.4</ele>
        <time>2022-08-27T09:46:49Z</time>
      </trkpt>
      <trkpt lat="45.67047" lon="6.56524">
        <ele>1675.6</ele>
        <time>2022-08-27T09:46:50Z</time>
      </trkpt>
      <trkpt lat="45.67043" lon="6.56518">
        <ele>1674.8</ele>
        <time>2022-08-27T09:46:51Z</time>
      </trkpt>
      <trkpt lat="45.67034" lon="6.56509">
        <ele>1673.4</ele>
        <time>2022-08-27T09:46:53Z</time>
      </trkpt>
      <trkpt lat="45.67031" lon="6.56505">
        <ele>1672.6</ele>
        <time>2022-08-27T09:46:54Z</time>
      </trkpt>
      <trkpt lat="45.67022" lon="6.56494">
        <ele>1670.8</ele>
        <time>2022-08-27T09:46:57Z</time>
      </trkpt>
      <trkpt lat="45.67028" lon="6.56489">
        <ele>1669.4</ele>
        <time>2022-08-27T09:47:01Z</time>
      </trkpt>
      <trkpt lat="45.6704" lon="6.56499">
        <ele>1667</ele>
        <time>2022-08-27T09:47:05Z</time>
      </trkpt>
      <trkpt lat="45.67047" lon="6.56504">
        <ele>1665.6</ele>
        <time>2022-08-27T09:47:07Z</time>
      </trkpt>
      <trkpt lat="45.67052" lon="6.56506">
        <ele>1665</ele>
        <time>2022-08-27T09:47:08Z</time>
      </trkpt>
      <trkpt lat="45.6707" lon="6.56509">
        <ele>1662.8</ele>
        <time>2022-08-27T09:47:12Z</time>
      </trkpt>
      <trkpt lat="45.67075" lon="6.5651">
        <ele>1661.6</ele>
        <time>2022-08-27T09:47:13Z</time>
      </trkpt>
      <trkpt lat="45.67079" lon="6.56512">
        <ele>1660.8</ele>
        <time>2022-08-27T09:47:14Z</time>
      </trkpt>
      <trkpt lat="45.67084" lon="6.56515">
        <ele>1660</ele>
        <time>2022-08-27T09:47:15Z</time>
      </trkpt>
      <trkpt lat="45.67104" lon="6.5653">
        <ele>1657</ele>
        <time>2022-08-27T09:47:19Z</time>
      </trkpt>
      <trkpt lat="45.67109" lon="6.56529">
        <ele>1656</ele>
        <time>2022-08-27T09:47:20Z</time>
      </trkpt>
      <trkpt lat="45.67113" lon="6.56525">
        <ele>1655.2</ele>
        <time>2022-08-27T09:47:21Z</time>
      </trkpt>
      <trkpt lat="45.67113" lon="6.56518">
        <ele>1654.4</ele>
        <time>2022-08-27T09:47:22Z</time>
      </trkpt>
      <trkpt lat="45.67111" lon="6.5651">
        <ele>1653.6</ele>
        <time>2022-08-27T09:47:23Z</time>
      </trkpt>
      <trkpt lat="45.67109" lon="6.56502">
        <ele>1653</ele>
        <time>2022-08-27T09:47:24Z</time>
      </trkpt>
      <trkpt lat="45.67107" lon="6.56497">
        <ele>1652.2</ele>
        <time>2022-08-27T09:47:25Z</time>
      </trkpt>
      <trkpt lat="45.67105" lon="6.56493">
        <ele>1651.4</ele>
        <time>2022-08-27T09:47:26Z</time>
      </trkpt>
      <trkpt lat="45.67097" lon="6.56481">
        <ele>1648.8</ele>
        <time>2022-08-27T09:47:30Z</time>
      </trkpt>
      <trkpt lat="45.67099" lon="6.5648">
        <ele>1648.4</ele>
        <time>2022-08-27T09:47:31Z</time>
      </trkpt>
      <trkpt lat="45.67101" lon="6.56479">
        <ele>1648.2</ele>
        <time>2022-08-27T09:47:32Z</time>
      </trkpt>
      <trkpt lat="45.67104" lon="6.5648">
        <ele>1647.8</ele>
        <time>2022-08-27T09:47:33Z</time>
      </trkpt>
      <trkpt lat="45.67106" lon="6.56482">
        <ele>1647.6</ele>
        <time>2022-08-27T09:47:34Z</time>
      </trkpt>
      <trkpt lat="45.67109" lon="6.56484">
        <ele>1647.2</ele>
        <time>2022-08-27T09:47:35Z</time>
      </trkpt>
      <trkpt lat="45.6711" lon="6.56486">
        <ele>1646.6</ele>
        <time>2022-08-27T09:47:36Z</time>
      </trkpt>
      <trkpt lat="45.67117" lon="6.56489">
        <ele>1645.4</ele>
        <time>2022-08-27T09:47:39Z</time>
      </trkpt>
      <trkpt lat="45.6712" lon="6.56489">
        <ele>1645.4</ele>
        <time>2022-08-27T09:47:40Z</time>
      </trkpt>
      <trkpt lat="45.67125" lon="6.56493">
        <ele>1644.8</ele>
        <time>2022-08-27T09:47:42Z</time>
      </trkpt>
      <trkpt lat="45.67128" lon="6.56495">
        <ele>1644.6</ele>
        <time>2022-08-27T09:47:43Z</time>
      </trkpt>
      <trkpt lat="45.67141" lon="6.56502">
        <ele>1642.4</ele>
        <time>2022-08-27T09:47:48Z</time>
      </trkpt>
      <trkpt lat="45.67142" lon="6.56503">
        <ele>1639.2</ele>
        <time>2022-08-27T09:47:55Z</time>
      </trkpt>
      <trkpt lat="45.6715" lon="6.56508">
        <ele>1638.8</ele>
        <time>2022-08-27T09:48:15Z</time>
      </trkpt>
      <trkpt lat="45.67153" lon="6.56509">
        <ele>1638.8</ele>
        <time>2022-08-27T09:48:16Z</time>
      </trkpt>
      <trkpt lat="45.67155" lon="6.56508">
        <ele>1638.8</ele>
        <time>2022-08-27T09:48:17Z</time>
      </trkpt>
      <trkpt lat="45.67157" lon="6.56507">
        <ele>1637.8</ele>
        <time>2022-08-27T09:48:23Z</time>
      </trkpt>
      <trkpt lat="45.67158" lon="6.56502">
        <ele>1637</ele>
        <time>2022-08-27T09:48:35Z</time>
      </trkpt>
      <trkpt lat="45.67158" lon="6.56497">
        <ele>1637</ele>
        <time>2022-08-27T09:48:36Z</time>
      </trkpt>
      <trkpt lat="45.67156" lon="6.56491">
        <ele>1637</ele>
        <time>2022-08-27T09:48:37Z</time>
      </trkpt>
      <trkpt lat="45.67154" lon="6.56486">
        <ele>1637</ele>
        <time>2022-08-27T09:48:38Z</time>
      </trkpt>
      <trkpt lat="45.67151" lon="6.56484">
        <ele>1637</ele>
        <time>2022-08-27T09:48:39Z</time>
      </trkpt>
      <trkpt lat="45.67149" lon="6.5648">
        <ele>1636.8</ele>
        <time>2022-08-27T09:48:40Z</time>
      </trkpt>
      <trkpt lat="45.67148" lon="6.56476">
        <ele>1636.4</ele>
        <time>2022-08-27T09:48:41Z</time>
      </trkpt>
      <trkpt lat="45.67149" lon="6.56474">
        <ele>1635.6</ele>
        <time>2022-08-27T09:48:42Z</time>
      </trkpt>
      <trkpt lat="45.67152" lon="6.56473">
        <ele>1635.4</ele>
        <time>2022-08-27T09:48:43Z</time>
      </trkpt>
      <trkpt lat="45.67155" lon="6.56475">
        <ele>1635.2</ele>
        <time>2022-08-27T09:48:44Z</time>
      </trkpt>
      <trkpt lat="45.67158" lon="6.5648">
        <ele>1634.8</ele>
        <time>2022-08-27T09:48:45Z</time>
      </trkpt>
      <trkpt lat="45.6716" lon="6.56486">
        <ele>1634.4</ele>
        <time>2022-08-27T09:48:46Z</time>
      </trkpt>
      <trkpt lat="45.67161" lon="6.56488">
        <ele>1633.8</ele>
        <time>2022-08-27T09:48:47Z</time>
      </trkpt>
      <trkpt lat="45.67164" lon="6.56486">
        <ele>1633.4</ele>
        <time>2022-08-27T09:48:48Z</time>
      </trkpt>
      <trkpt lat="45.67165" lon="6.56482">
        <ele>1633</ele>
        <time>2022-08-27T09:48:49Z</time>
      </trkpt>
      <trkpt lat="45.67166" lon="6.56479">
        <ele>1632.6</ele>
        <time>2022-08-27T09:48:50Z</time>
      </trkpt>
      <trkpt lat="45.67166" lon="6.56476">
        <ele>1630.6</ele>
        <time>2022-08-27T09:48:54Z</time>
      </trkpt>
      <trkpt lat="45.67168" lon="6.56474">
        <ele>1629</ele>
        <time>2022-08-27T09:49:10Z</time>
      </trkpt>
      <trkpt lat="45.67169" lon="6.56472">
        <ele>1628.8</ele>
        <time>2022-08-27T09:49:20Z</time>
      </trkpt>
      <trkpt lat="45.67168" lon="6.56469">
        <ele>1628.8</ele>
        <time>2022-08-27T09:49:21Z</time>
      </trkpt>
      <trkpt lat="45.67167" lon="6.56466">
        <ele>1628.8</ele>
        <time>2022-08-27T09:49:22Z</time>
      </trkpt>
      <trkpt lat="45.67165" lon="6.56462">
        <ele>1628.8</ele>
        <time>2022-08-27T09:49:23Z</time>
      </trkpt>
      <trkpt lat="45.67163" lon="6.56459">
        <ele>1628.6</ele>
        <time>2022-08-27T09:49:24Z</time>
      </trkpt>
      <trkpt lat="45.67164" lon="6.56457">
        <ele>1628.4</ele>
        <time>2022-08-27T09:49:25Z</time>
      </trkpt>
      <trkpt lat="45.67166" lon="6.56457">
        <ele>1628.2</ele>
        <time>2022-08-27T09:49:26Z</time>
      </trkpt>
      <trkpt lat="45.6717" lon="6.56457">
        <ele>1627.6</ele>
        <time>2022-08-27T09:49:27Z</time>
      </trkpt>
      <trkpt lat="45.67173" lon="6.56459">
        <ele>1627.2</ele>
        <time>2022-08-27T09:49:28Z</time>
      </trkpt>
      <trkpt lat="45.67175" lon="6.56461">
        <ele>1626.8</ele>
        <time>2022-08-27T09:49:29Z</time>
      </trkpt>
      <trkpt lat="45.67178" lon="6.56462">
        <ele>1626.4</ele>
        <time>2022-08-27T09:49:30Z</time>
      </trkpt>
      <trkpt lat="45.6718" lon="6.56461">
        <ele>1626</ele>
        <time>2022-08-27T09:49:31Z</time>
      </trkpt>
      <trkpt lat="45.6718" lon="6.56458">
        <ele>1625.2</ele>
        <time>2022-08-27T09:49:32Z</time>
      </trkpt>
      <trkpt lat="45.6718" lon="6.56456">
        <ele>1624.6</ele>
        <time>2022-08-27T09:49:33Z</time>
      </trkpt>
      <trkpt lat="45.6718" lon="6.56455">
        <ele>1624</ele>
        <time>2022-08-27T09:49:34Z</time>
      </trkpt>
      <trkpt lat="45.67179" lon="6.56453">
        <ele>1620.8</ele>
        <time>2022-08-27T09:49:39Z</time>
      </trkpt>
      <trkpt lat="45.67179" lon="6.56453">
        <ele>1620.8</ele>
        <time>2022-08-27T09:49:40Z</time>
      </trkpt>
      <trkpt lat="45.67181" lon="6.56452">
        <ele>1619.6</ele>
        <time>2022-08-27T09:49:58Z</time>
      </trkpt>
      <trkpt lat="45.67178" lon="6.56454">
        <ele>1619.8</ele>
        <time>2022-08-27T09:50:15Z</time>
      </trkpt>
      <trkpt lat="45.67173" lon="6.56454">
        <ele>1619.8</ele>
        <time>2022-08-27T09:50:31Z</time>
      </trkpt>
      <trkpt lat="45.67172" lon="6.56453">
        <ele>1619.8</ele>
        <time>2022-08-27T09:50:32Z</time>
      </trkpt>
      <trkpt lat="45.67177" lon="6.56447">
        <ele>1620</ele>
        <time>2022-08-27T09:50:37Z</time>
      </trkpt>
      <trkpt lat="45.67187" lon="6.56458">
        <ele>1618.8</ele>
        <time>2022-08-27T09:50:42Z</time>
      </trkpt>
      <trkpt lat="45.67197" lon="6.56467">
        <ele>1616.6</ele>
        <time>2022-08-27T09:50:46Z</time>
      </trkpt>
      <trkpt lat="45.672" lon="6.56469">
        <ele>1616.4</ele>
        <time>2022-08-27T09:50:47Z</time>
      </trkpt>
      <trkpt lat="45.67212" lon="6.56478">
        <ele>1615.6</ele>
        <time>2022-08-27T09:50:50Z</time>
      </trkpt>
      <trkpt lat="45.67215" lon="6.56484">
        <ele>1615</ele>
        <time>2022-08-27T09:50:51Z</time>
      </trkpt>
      <trkpt lat="45.6723" lon="6.56505">
        <ele>1612</ele>
        <time>2022-08-27T09:50:55Z</time>
      </trkpt>
      <trkpt lat="45.67232" lon="6.56502">
        <ele>1611.4</ele>
        <time>2022-08-27T09:50:56Z</time>
      </trkpt>
      <trkpt lat="45.6724" lon="6.56472">
        <ele>1608.2</ele>
        <time>2022-08-27T09:51:00Z</time>
      </trkpt>
      <trkpt lat="45.67242" lon="6.56462">
        <ele>1605.6</ele>
        <time>2022-08-27T09:51:03Z</time>
      </trkpt>
      <trkpt lat="45.67243" lon="6.56463">
        <ele>1604.6</ele>
        <time>2022-08-27T09:51:04Z</time>
      </trkpt>
      <trkpt lat="45.67255" lon="6.56494">
        <ele>1598.4</ele>
        <time>2022-08-27T09:51:09Z</time>
      </trkpt>
      <trkpt lat="45.67258" lon="6.56499">
        <ele>1597.4</ele>
        <time>2022-08-27T09:51:10Z</time>
      </trkpt>
      <trkpt lat="45.67265" lon="6.56484">
        <ele>1594.2</ele>
        <time>2022-08-27T09:51:14Z</time>
      </trkpt>
      <trkpt lat="45.67265" lon="6.56472">
        <ele>1592.6</ele>
        <time>2022-08-27T09:51:16Z</time>
      </trkpt>
      <trkpt lat="45.67274" lon="6.5648">
        <ele>1590.4</ele>
        <time>2022-08-27T09:51:20Z</time>
      </trkpt>
      <trkpt lat="45.67275" lon="6.56487">
        <ele>1589.8</ele>
        <time>2022-08-27T09:51:21Z</time>
      </trkpt>
      <trkpt lat="45.67277" lon="6.56494">
        <ele>1589.2</ele>
        <time>2022-08-27T09:51:22Z</time>
      </trkpt>
      <trkpt lat="45.67279" lon="6.56499">
        <ele>1588.4</ele>
        <time>2022-08-27T09:51:23Z</time>
      </trkpt>
      <trkpt lat="45.67281" lon="6.565">
        <ele>1587.8</ele>
        <time>2022-08-27T09:51:24Z</time>
      </trkpt>
      <trkpt lat="45.67282" lon="6.56498">
        <ele>1587.2</ele>
        <time>2022-08-27T09:51:25Z</time>
      </trkpt>
      <trkpt lat="45.67283" lon="6.56495">
        <ele>1586.6</ele>
        <time>2022-08-27T09:51:26Z</time>
      </trkpt>
      <trkpt lat="45.67283" lon="6.5649">
        <ele>1585.8</ele>
        <time>2022-08-27T09:51:27Z</time>
      </trkpt>
      <trkpt lat="45.67283" lon="6.56482">
        <ele>1585</ele>
        <time>2022-08-27T09:51:28Z</time>
      </trkpt>
      <trkpt lat="45.67284" lon="6.56474">
        <ele>1584.2</ele>
        <time>2022-08-27T09:51:29Z</time>
      </trkpt>
      <trkpt lat="45.67285" lon="6.56467">
        <ele>1583.6</ele>
        <time>2022-08-27T09:51:30Z</time>
      </trkpt>
      <trkpt lat="45.67286" lon="6.56461">
        <ele>1582.8</ele>
        <time>2022-08-27T09:51:31Z</time>
      </trkpt>
      <trkpt lat="45.67286" lon="6.56453">
        <ele>1582</ele>
        <time>2022-08-27T09:51:32Z</time>
      </trkpt>
      <trkpt lat="45.67286" lon="6.56447">
        <ele>1581</ele>
        <time>2022-08-27T09:51:33Z</time>
      </trkpt>
      <trkpt lat="45.67284" lon="6.56442">
        <ele>1580.2</ele>
        <time>2022-08-27T09:51:34Z</time>
      </trkpt>
      <trkpt lat="45.67284" lon="6.56439">
        <ele>1579.4</ele>
        <time>2022-08-27T09:51:35Z</time>
      </trkpt>
      <trkpt lat="45.67287" lon="6.56436">
        <ele>1576.8</ele>
        <time>2022-08-27T09:51:37Z</time>
      </trkpt>
      <trkpt lat="45.67289" lon="6.56435">
        <ele>1576</ele>
        <time>2022-08-27T09:51:38Z</time>
      </trkpt>
      <trkpt lat="45.6729" lon="6.56432">
        <ele>1575.2</ele>
        <time>2022-08-27T09:51:39Z</time>
      </trkpt>
      <trkpt lat="45.67291" lon="6.5643">
        <ele>1574.4</ele>
        <time>2022-08-27T09:51:40Z</time>
      </trkpt>
      <trkpt lat="45.67295" lon="6.56429">
        <ele>1573.6</ele>
        <time>2022-08-27T09:51:41Z</time>
      </trkpt>
      <trkpt lat="45.67299" lon="6.5643">
        <ele>1573</ele>
        <time>2022-08-27T09:51:42Z</time>
      </trkpt>
      <trkpt lat="45.67303" lon="6.56432">
        <ele>1572.4</ele>
        <time>2022-08-27T09:51:43Z</time>
      </trkpt>
      <trkpt lat="45.67307" lon="6.56433">
        <ele>1571.8</ele>
        <time>2022-08-27T09:51:44Z</time>
      </trkpt>
      <trkpt lat="45.67311" lon="6.5643">
        <ele>1571</ele>
        <time>2022-08-27T09:51:45Z</time>
      </trkpt>
      <trkpt lat="45.67313" lon="6.56425">
        <ele>1570.2</ele>
        <time>2022-08-27T09:51:46Z</time>
      </trkpt>
      <trkpt lat="45.67312" lon="6.5642">
        <ele>1569.2</ele>
        <time>2022-08-27T09:51:47Z</time>
      </trkpt>
      <trkpt lat="45.67312" lon="6.56416">
        <ele>1568.2</ele>
        <time>2022-08-27T09:51:48Z</time>
      </trkpt>
      <trkpt lat="45.67314" lon="6.56414">
        <ele>1567.2</ele>
        <time>2022-08-27T09:51:49Z</time>
      </trkpt>
      <trkpt lat="45.67316" lon="6.56414">
        <ele>1566</ele>
        <time>2022-08-27T09:51:50Z</time>
      </trkpt>
      <trkpt lat="45.67317" lon="6.56416">
        <ele>1564.8</ele>
        <time>2022-08-27T09:51:51Z</time>
      </trkpt>
      <trkpt lat="45.67319" lon="6.56418">
        <ele>1563.8</ele>
        <time>2022-08-27T09:51:52Z</time>
      </trkpt>
      <trkpt lat="45.67321" lon="6.5642">
        <ele>1562.8</ele>
        <time>2022-08-27T09:51:53Z</time>
      </trkpt>
      <trkpt lat="45.67324" lon="6.56421">
        <ele>1561.8</ele>
        <time>2022-08-27T09:51:54Z</time>
      </trkpt>
      <trkpt lat="45.67326" lon="6.56419">
        <ele>1560.8</ele>
        <time>2022-08-27T09:51:55Z</time>
      </trkpt>
      <trkpt lat="45.67326" lon="6.56417">
        <ele>1560.2</ele>
        <time>2022-08-27T09:51:56Z</time>
      </trkpt>
      <trkpt lat="45.67326" lon="6.56415">
        <ele>1559.6</ele>
        <time>2022-08-27T09:51:57Z</time>
      </trkpt>
      <trkpt lat="45.67326" lon="6.56412">
        <ele>1559</ele>
        <time>2022-08-27T09:51:58Z</time>
      </trkpt>
      <trkpt lat="45.67325" lon="6.56409">
        <ele>1558.6</ele>
        <time>2022-08-27T09:51:59Z</time>
      </trkpt>
      <trkpt lat="45.67327" lon="6.56407">
        <ele>1556.8</ele>
        <time>2022-08-27T09:52:01Z</time>
      </trkpt>
      <trkpt lat="45.67329" lon="6.56409">
        <ele>1556</ele>
        <time>2022-08-27T09:52:02Z</time>
      </trkpt>
      <trkpt lat="45.67333" lon="6.56408">
        <ele>1554.4</ele>
        <time>2022-08-27T09:52:04Z</time>
      </trkpt>
      <trkpt lat="45.67334" lon="6.56406">
        <ele>1553.6</ele>
        <time>2022-08-27T09:52:05Z</time>
      </trkpt>
      <trkpt lat="45.67334" lon="6.56402">
        <ele>1550</ele>
        <time>2022-08-27T09:52:10Z</time>
      </trkpt>
      <trkpt lat="45.67334" lon="6.564">
        <ele>1548</ele>
        <time>2022-08-27T09:52:27Z</time>
      </trkpt>
      <trkpt lat="45.67337" lon="6.564">
        <ele>1547.8</ele>
        <time>2022-08-27T09:52:48Z</time>
      </trkpt>
      <trkpt lat="45.67337" lon="6.56397">
        <ele>1547.8</ele>
        <time>2022-08-27T09:52:56Z</time>
      </trkpt>
      <trkpt lat="45.67336" lon="6.56395">
        <ele>1547.8</ele>
        <time>2022-08-27T09:52:57Z</time>
      </trkpt>
      <trkpt lat="45.67335" lon="6.56392">
        <ele>1547.8</ele>
        <time>2022-08-27T09:52:58Z</time>
      </trkpt>
      <trkpt lat="45.67337" lon="6.5639">
        <ele>1547</ele>
        <time>2022-08-27T09:53:02Z</time>
      </trkpt>
      <trkpt lat="45.67336" lon="6.56383">
        <ele>1544.6</ele>
        <time>2022-08-27T09:53:08Z</time>
      </trkpt>
      <trkpt lat="45.67349" lon="6.56391">
        <ele>1542.4</ele>
        <time>2022-08-27T09:53:13Z</time>
      </trkpt>
      <trkpt lat="45.67356" lon="6.56382">
        <ele>1540.2</ele>
        <time>2022-08-27T09:53:17Z</time>
      </trkpt>
      <trkpt lat="45.67351" lon="6.56372">
        <ele>1538.2</ele>
        <time>2022-08-27T09:53:20Z</time>
      </trkpt>
      <trkpt lat="45.67342" lon="6.56357">
        <ele>1533.8</ele>
        <time>2022-08-27T09:53:24Z</time>
      </trkpt>
      <trkpt lat="45.67333" lon="6.56348">
        <ele>1531.6</ele>
        <time>2022-08-27T09:53:27Z</time>
      </trkpt>
      <trkpt lat="45.67335" lon="6.5634">
        <ele>1525.8</ele>
        <time>2022-08-27T09:53:31Z</time>
      </trkpt>
      <trkpt lat="45.67342" lon="6.56341">
        <ele>1523.8</ele>
        <time>2022-08-27T09:53:33Z</time>
      </trkpt>
      <trkpt lat="45.67349" lon="6.56344">
        <ele>1521.6</ele>
        <time>2022-08-27T09:53:35Z</time>
      </trkpt>
      <trkpt lat="45.67364" lon="6.56341">
        <ele>1517.6</ele>
        <time>2022-08-27T09:53:39Z</time>
      </trkpt>
      <trkpt lat="45.67376" lon="6.56329">
        <ele>1514.6</ele>
        <time>2022-08-27T09:53:42Z</time>
      </trkpt>
      <trkpt lat="45.67387" lon="6.56324">
        <ele>1512.4</ele>
        <time>2022-08-27T09:53:44Z</time>
      </trkpt>
      <trkpt lat="45.67399" lon="6.56333">
        <ele>1507.6</ele>
        <time>2022-08-27T09:53:48Z</time>
      </trkpt>
      <trkpt lat="45.6741" lon="6.56353">
        <ele>1503.6</ele>
        <time>2022-08-27T09:53:52Z</time>
      </trkpt>
      <trkpt lat="45.67419" lon="6.56344">
        <ele>1499.8</ele>
        <time>2022-08-27T09:53:56Z</time>
      </trkpt>
      <trkpt lat="45.67423" lon="6.56334">
        <ele>1496.8</ele>
        <time>2022-08-27T09:53:58Z</time>
      </trkpt>
      <trkpt lat="45.67427" lon="6.56312">
        <ele>1493.2</ele>
        <time>2022-08-27T09:54:02Z</time>
      </trkpt>
      <trkpt lat="45.67428" lon="6.56306">
        <ele>1491.2</ele>
        <time>2022-08-27T09:54:04Z</time>
      </trkpt>
      <trkpt lat="45.67434" lon="6.56321">
        <ele>1486.8</ele>
        <time>2022-08-27T09:54:08Z</time>
      </trkpt>
      <trkpt lat="45.67437" lon="6.56346">
        <ele>1483.2</ele>
        <time>2022-08-27T09:54:14Z</time>
      </trkpt>
      <trkpt lat="45.67448" lon="6.5633">
        <ele>1480.6</ele>
        <time>2022-08-27T09:54:18Z</time>
      </trkpt>
      <trkpt lat="45.67453" lon="6.56315">
        <ele>1478.6</ele>
        <time>2022-08-27T09:54:20Z</time>
      </trkpt>
      <trkpt lat="45.67456" lon="6.56295">
        <ele>1473.6</ele>
        <time>2022-08-27T09:54:23Z</time>
      </trkpt>
      <trkpt lat="45.67457" lon="6.56288">
        <ele>1470.8</ele>
        <time>2022-08-27T09:54:25Z</time>
      </trkpt>
      <trkpt lat="45.67461" lon="6.56288">
        <ele>1466.2</ele>
        <time>2022-08-27T09:54:29Z</time>
      </trkpt>
      <trkpt lat="45.67463" lon="6.56289">
        <ele>1463</ele>
        <time>2022-08-27T09:54:34Z</time>
      </trkpt>
      <trkpt lat="45.67471" lon="6.56301">
        <ele>1461.2</ele>
        <time>2022-08-27T09:54:39Z</time>
      </trkpt>
      <trkpt lat="45.67472" lon="6.56303">
        <ele>1459.6</ele>
        <time>2022-08-27T09:54:41Z</time>
      </trkpt>
      <trkpt lat="45.6748" lon="6.56319">
        <ele>1457</ele>
        <time>2022-08-27T09:54:47Z</time>
      </trkpt>
      <trkpt lat="45.67486" lon="6.56315">
        <ele>1455.2</ele>
        <time>2022-08-27T09:54:51Z</time>
      </trkpt>
      <trkpt lat="45.67488" lon="6.56312">
        <ele>1454.4</ele>
        <time>2022-08-27T09:54:53Z</time>
      </trkpt>
      <trkpt lat="45.67492" lon="6.56296">
        <ele>1452.2</ele>
        <time>2022-08-27T09:54:57Z</time>
      </trkpt>
      <trkpt lat="45.67494" lon="6.56268">
        <ele>1449.4</ele>
        <time>2022-08-27T09:55:01Z</time>
      </trkpt>
      <trkpt lat="45.675" lon="6.56272">
        <ele>1445.6</ele>
        <time>2022-08-27T09:55:05Z</time>
      </trkpt>
      <trkpt lat="45.67502" lon="6.56286">
        <ele>1442.8</ele>
        <time>2022-08-27T09:55:08Z</time>
      </trkpt>
      <trkpt lat="45.67507" lon="6.56289">
        <ele>1439.6</ele>
        <time>2022-08-27T09:55:11Z</time>
      </trkpt>
      <trkpt lat="45.6751" lon="6.56277">
        <ele>1437.8</ele>
        <time>2022-08-27T09:55:13Z</time>
      </trkpt>
      <trkpt lat="45.67512" lon="6.56263">
        <ele>1436.2</ele>
        <time>2022-08-27T09:55:15Z</time>
      </trkpt>
      <trkpt lat="45.67511" lon="6.56251">
        <ele>1434.2</ele>
        <time>2022-08-27T09:55:17Z</time>
      </trkpt>
      <trkpt lat="45.67517" lon="6.56259">
        <ele>1428.6</ele>
        <time>2022-08-27T09:55:21Z</time>
      </trkpt>
      <trkpt lat="45.67519" lon="6.56276">
        <ele>1425.2</ele>
        <time>2022-08-27T09:55:24Z</time>
      </trkpt>
      <trkpt lat="45.67526" lon="6.56264">
        <ele>1421</ele>
        <time>2022-08-27T09:55:28Z</time>
      </trkpt>
      <trkpt lat="45.67526" lon="6.56257">
        <ele>1420.2</ele>
        <time>2022-08-27T09:55:29Z</time>
      </trkpt>
      <trkpt lat="45.67528" lon="6.56235">
        <ele>1417.6</ele>
        <time>2022-08-27T09:55:32Z</time>
      </trkpt>
      <trkpt lat="45.67534" lon="6.56233">
        <ele>1413.8</ele>
        <time>2022-08-27T09:55:36Z</time>
      </trkpt>
      <trkpt lat="45.67537" lon="6.56244">
        <ele>1412</ele>
        <time>2022-08-27T09:55:38Z</time>
      </trkpt>
      <trkpt lat="45.67543" lon="6.56255">
        <ele>1409.8</ele>
        <time>2022-08-27T09:55:40Z</time>
      </trkpt>
      <trkpt lat="45.67549" lon="6.56247">
        <ele>1405.2</ele>
        <time>2022-08-27T09:55:43Z</time>
      </trkpt>
      <trkpt lat="45.67549" lon="6.56232">
        <ele>1401.2</ele>
        <time>2022-08-27T09:55:47Z</time>
      </trkpt>
      <trkpt lat="45.67556" lon="6.56236">
        <ele>1399</ele>
        <time>2022-08-27T09:55:50Z</time>
      </trkpt>
      <trkpt lat="45.67566" lon="6.56245">
        <ele>1396</ele>
        <time>2022-08-27T09:55:54Z</time>
      </trkpt>
      <trkpt lat="45.67565" lon="6.56236">
        <ele>1392.4</ele>
        <time>2022-08-27T09:55:57Z</time>
      </trkpt>
      <trkpt lat="45.67565" lon="6.56227">
        <ele>1389.8</ele>
        <time>2022-08-27T09:56:00Z</time>
      </trkpt>
      <trkpt lat="45.67566" lon="6.5622">
        <ele>1388.8</ele>
        <time>2022-08-27T09:56:02Z</time>
      </trkpt>
      <trkpt lat="45.67573" lon="6.56216">
        <ele>1386.8</ele>
        <time>2022-08-27T09:56:06Z</time>
      </trkpt>
      <trkpt lat="45.67585" lon="6.56231">
        <ele>1382.8</ele>
        <time>2022-08-27T09:56:09Z</time>
      </trkpt>
      <trkpt lat="45.67588" lon="6.56234">
        <ele>1381.4</ele>
        <time>2022-08-27T09:56:10Z</time>
      </trkpt>
      <trkpt lat="45.67591" lon="6.56237">
        <ele>1380</ele>
        <time>2022-08-27T09:56:11Z</time>
      </trkpt>
      <trkpt lat="45.67593" lon="6.56239">
        <ele>1378.6</ele>
        <time>2022-08-27T09:56:12Z</time>
      </trkpt>
      <trkpt lat="45.67593" lon="6.56239">
        <ele>1375.6</ele>
        <time>2022-08-27T09:56:17Z</time>
      </trkpt>
      <trkpt lat="45.67594" lon="6.56239">
        <ele>1375.6</ele>
        <time>2022-08-27T09:56:32Z</time>
      </trkpt>
      <trkpt lat="45.67596" lon="6.56243">
        <ele>1375.2</ele>
        <time>2022-08-27T09:56:49Z</time>
      </trkpt>
      <trkpt lat="45.67596" lon="6.56241">
        <ele>1375.2</ele>
        <time>2022-08-27T09:57:06Z</time>
      </trkpt>
      <trkpt lat="45.67594" lon="6.5625">
        <ele>1375.2</ele>
        <time>2022-08-27T09:57:10Z</time>
      </trkpt>
      <trkpt lat="45.67593" lon="6.56253">
        <ele>1375</ele>
        <time>2022-08-27T09:57:11Z</time>
      </trkpt>
      <trkpt lat="45.67588" lon="6.56279">
        <ele>1374.2</ele>
        <time>2022-08-27T09:57:16Z</time>
      </trkpt>
      <trkpt lat="45.67596" lon="6.56314">
        <ele>1371</ele>
        <time>2022-08-27T09:57:23Z</time>
      </trkpt>
      <trkpt lat="45.67592" lon="6.56344">
        <ele>1368</ele>
        <time>2022-08-27T09:57:29Z</time>
      </trkpt>
      <trkpt lat="45.67596" lon="6.56355">
        <ele>1366.2</ele>
        <time>2022-08-27T09:57:32Z</time>
      </trkpt>
      <trkpt lat="45.676" lon="6.56357">
        <ele>1365.6</ele>
        <time>2022-08-27T09:57:33Z</time>
      </trkpt>
      <trkpt lat="45.67622" lon="6.56364">
        <ele>1362.2</ele>
        <time>2022-08-27T09:57:38Z</time>
      </trkpt>
      <trkpt lat="45.67642" lon="6.56367">
        <ele>1359.6</ele>
        <time>2022-08-27T09:57:42Z</time>
      </trkpt>
      <trkpt lat="45.67648" lon="6.56366">
        <ele>1359.2</ele>
        <time>2022-08-27T09:57:43Z</time>
      </trkpt>
      <trkpt lat="45.67678" lon="6.56361">
        <ele>1355.8</ele>
        <time>2022-08-27T09:57:48Z</time>
      </trkpt>
      <trkpt lat="45.67684" lon="6.56359">
        <ele>1355</ele>
        <time>2022-08-27T09:57:49Z</time>
      </trkpt>
      <trkpt lat="45.6769" lon="6.56356">
        <ele>1354.2</ele>
        <time>2022-08-27T09:57:50Z</time>
      </trkpt>
      <trkpt lat="45.67696" lon="6.56353">
        <ele>1353.6</ele>
        <time>2022-08-27T09:57:51Z</time>
      </trkpt>
      <trkpt lat="45.67711" lon="6.5635">
        <ele>1350.4</ele>
        <time>2022-08-27T09:57:55Z</time>
      </trkpt>
      <trkpt lat="45.67714" lon="6.56354">
        <ele>1349.4</ele>
        <time>2022-08-27T09:57:56Z</time>
      </trkpt>
      <trkpt lat="45.67716" lon="6.5636">
        <ele>1348.6</ele>
        <time>2022-08-27T09:57:57Z</time>
      </trkpt>
      <trkpt lat="45.67725" lon="6.56394">
        <ele>1345.8</ele>
        <time>2022-08-27T09:58:01Z</time>
      </trkpt>
      <trkpt lat="45.67728" lon="6.56409">
        <ele>1344.2</ele>
        <time>2022-08-27T09:58:03Z</time>
      </trkpt>
      <trkpt lat="45.67733" lon="6.56422">
        <ele>1342.4</ele>
        <time>2022-08-27T09:58:05Z</time>
      </trkpt>
      <trkpt lat="45.67737" lon="6.56429">
        <ele>1341.2</ele>
        <time>2022-08-27T09:58:06Z</time>
      </trkpt>
      <trkpt lat="45.6774" lon="6.56434">
        <ele>1339.4</ele>
        <time>2022-08-27T09:58:07Z</time>
      </trkpt>
      <trkpt lat="45.67744" lon="6.56439">
        <ele>1338</ele>
        <time>2022-08-27T09:58:09Z</time>
      </trkpt>
      <trkpt lat="45.67748" lon="6.56441">
        <ele>1337.4</ele>
        <time>2022-08-27T09:58:10Z</time>
      </trkpt>
      <trkpt lat="45.67753" lon="6.56442">
        <ele>1336.8</ele>
        <time>2022-08-27T09:58:11Z</time>
      </trkpt>
      <trkpt lat="45.67757" lon="6.56442">
        <ele>1336.2</ele>
        <time>2022-08-27T09:58:12Z</time>
      </trkpt>
      <trkpt lat="45.67762" lon="6.56444">
        <ele>1335.8</ele>
        <time>2022-08-27T09:58:13Z</time>
      </trkpt>
      <trkpt lat="45.67767" lon="6.56446">
        <ele>1335.4</ele>
        <time>2022-08-27T09:58:14Z</time>
      </trkpt>
      <trkpt lat="45.6777" lon="6.56448">
        <ele>1334.8</ele>
        <time>2022-08-27T09:58:15Z</time>
      </trkpt>
      <trkpt lat="45.67773" lon="6.56451">
        <ele>1334.4</ele>
        <time>2022-08-27T09:58:16Z</time>
      </trkpt>
      <trkpt lat="45.67775" lon="6.56454">
        <ele>1333.8</ele>
        <time>2022-08-27T09:58:17Z</time>
      </trkpt>
      <trkpt lat="45.67782" lon="6.56463">
        <ele>1332.6</ele>
        <time>2022-08-27T09:58:19Z</time>
      </trkpt>
      <trkpt lat="45.67796" lon="6.56492">
        <ele>1329.2</ele>
        <time>2022-08-27T09:58:25Z</time>
      </trkpt>
      <trkpt lat="45.67803" lon="6.56523">
        <ele>1326.6</ele>
        <time>2022-08-27T09:58:30Z</time>
      </trkpt>
      <trkpt lat="45.67805" lon="6.5653">
        <ele>1326.2</ele>
        <time>2022-08-27T09:58:31Z</time>
      </trkpt>
      <trkpt lat="45.67808" lon="6.56537">
        <ele>1325.8</ele>
        <time>2022-08-27T09:58:32Z</time>
      </trkpt>
      <trkpt lat="45.67811" lon="6.56542">
        <ele>1325.4</ele>
        <time>2022-08-27T09:58:33Z</time>
      </trkpt>
      <trkpt lat="45.67814" lon="6.56546">
        <ele>1324.8</ele>
        <time>2022-08-27T09:58:34Z</time>
      </trkpt>
      <trkpt lat="45.67818" lon="6.56549">
        <ele>1323.6</ele>
        <time>2022-08-27T09:58:35Z</time>
      </trkpt>
      <trkpt lat="45.67822" lon="6.56551">
        <ele>1323</ele>
        <time>2022-08-27T09:58:36Z</time>
      </trkpt>
      <trkpt lat="45.67843" lon="6.56562">
        <ele>1320.2</ele>
        <time>2022-08-27T09:58:42Z</time>
      </trkpt>
      <trkpt lat="45.67854" lon="6.56581">
        <ele>1318.6</ele>
        <time>2022-08-27T09:58:47Z</time>
      </trkpt>
      <trkpt lat="45.67876" lon="6.56623">
        <ele>1315.4</ele>
        <time>2022-08-27T09:58:54Z</time>
      </trkpt>
      <trkpt lat="45.67882" lon="6.56634">
        <ele>1314.2</ele>
        <time>2022-08-27T09:58:56Z</time>
      </trkpt>
      <trkpt lat="45.67885" lon="6.56639">
        <ele>1313.4</ele>
        <time>2022-08-27T09:58:57Z</time>
      </trkpt>
      <trkpt lat="45.67893" lon="6.56647">
        <ele>1311</ele>
        <time>2022-08-27T09:59:01Z</time>
      </trkpt>
      <trkpt lat="45.67896" lon="6.56648">
        <ele>1309.4</ele>
        <time>2022-08-27T09:59:04Z</time>
      </trkpt>
      <trkpt lat="45.67897" lon="6.56647">
        <ele>1308.6</ele>
        <time>2022-08-27T09:59:07Z</time>
      </trkpt>
      <trkpt lat="45.67899" lon="6.56646">
        <ele>1308.6</ele>
        <time>2022-08-27T09:59:08Z</time>
      </trkpt>
      <trkpt lat="45.679" lon="6.56644">
        <ele>1308.4</ele>
        <time>2022-08-27T09:59:09Z</time>
      </trkpt>
      <trkpt lat="45.679" lon="6.56642">
        <ele>1308.4</ele>
        <time>2022-08-27T09:59:10Z</time>
      </trkpt>
      <trkpt lat="45.67899" lon="6.56639">
        <ele>1308.4</ele>
        <time>2022-08-27T09:59:11Z</time>
      </trkpt>
      <trkpt lat="45.67897" lon="6.56635">
        <ele>1308.2</ele>
        <time>2022-08-27T09:59:12Z</time>
      </trkpt>
      <trkpt lat="45.6789" lon="6.5661">
        <ele>1306.6</ele>
        <time>2022-08-27T09:59:17Z</time>
      </trkpt>
      <trkpt lat="45.67891" lon="6.56591">
        <ele>1304.6</ele>
        <time>2022-08-27T09:59:20Z</time>
      </trkpt>
      <trkpt lat="45.67891" lon="6.56579">
        <ele>1301.8</ele>
        <time>2022-08-27T09:59:23Z</time>
      </trkpt>
      <trkpt lat="45.67893" lon="6.5658">
        <ele>1298.8</ele>
        <time>2022-08-27T09:59:26Z</time>
      </trkpt>
      <trkpt lat="45.67899" lon="6.56587">
        <ele>1295.2</ele>
        <time>2022-08-27T09:59:30Z</time>
      </trkpt>
      <trkpt lat="45.679" lon="6.56585">
        <ele>1292.4</ele>
        <time>2022-08-27T09:59:32Z</time>
      </trkpt>
      <trkpt lat="45.67901" lon="6.56577">
        <ele>1290.2</ele>
        <time>2022-08-27T09:59:35Z</time>
      </trkpt>
      <trkpt lat="45.67902" lon="6.56576">
        <ele>1289.8</ele>
        <time>2022-08-27T09:59:36Z</time>
      </trkpt>
      <trkpt lat="45.67904" lon="6.56578">
        <ele>1289</ele>
        <time>2022-08-27T09:59:37Z</time>
      </trkpt>
      <trkpt lat="45.67905" lon="6.56582">
        <ele>1288.4</ele>
        <time>2022-08-27T09:59:38Z</time>
      </trkpt>
      <trkpt lat="45.67906" lon="6.56586">
        <ele>1287.8</ele>
        <time>2022-08-27T09:59:39Z</time>
      </trkpt>
      <trkpt lat="45.67907" lon="6.5659">
        <ele>1287</ele>
        <time>2022-08-27T09:59:40Z</time>
      </trkpt>
      <trkpt lat="45.67908" lon="6.56593">
        <ele>1286.4</ele>
        <time>2022-08-27T09:59:41Z</time>
      </trkpt>
      <trkpt lat="45.67921" lon="6.566">
        <ele>1283.8</ele>
        <time>2022-08-27T09:59:47Z</time>
      </trkpt>
      <trkpt lat="45.67929" lon="6.56602">
        <ele>1283.2</ele>
        <time>2022-08-27T09:59:49Z</time>
      </trkpt>
      <trkpt lat="45.67935" lon="6.56603">
        <ele>1283</ele>
        <time>2022-08-27T09:59:50Z</time>
      </trkpt>
      <trkpt lat="45.67941" lon="6.56602">
        <ele>1282.6</ele>
        <time>2022-08-27T09:59:51Z</time>
      </trkpt>
      <trkpt lat="45.67952" lon="6.56602">
        <ele>1282</ele>
        <time>2022-08-27T09:59:53Z</time>
      </trkpt>
      <trkpt lat="45.67957" lon="6.56603">
        <ele>1281.4</ele>
        <time>2022-08-27T09:59:54Z</time>
      </trkpt>
      <trkpt lat="45.67961" lon="6.56605">
        <ele>1280.6</ele>
        <time>2022-08-27T09:59:55Z</time>
      </trkpt>
      <trkpt lat="45.67977" lon="6.56615">
        <ele>1277</ele>
        <time>2022-08-27T09:59:59Z</time>
      </trkpt>
      <trkpt lat="45.67984" lon="6.56621">
        <ele>1273.4</ele>
        <time>2022-08-27T10:00:03Z</time>
      </trkpt>
      <trkpt lat="45.67985" lon="6.56623">
        <ele>1272.6</ele>
        <time>2022-08-27T10:00:04Z</time>
      </trkpt>
      <trkpt lat="45.67986" lon="6.56625">
        <ele>1272</ele>
        <time>2022-08-27T10:00:05Z</time>
      </trkpt>
      <trkpt lat="45.67989" lon="6.56626">
        <ele>1271.4</ele>
        <time>2022-08-27T10:00:06Z</time>
      </trkpt>
      <trkpt lat="45.67991" lon="6.56628">
        <ele>1270.6</ele>
        <time>2022-08-27T10:00:07Z</time>
      </trkpt>
      <trkpt lat="45.67997" lon="6.56633">
        <ele>1267.4</ele>
        <time>2022-08-27T10:00:11Z</time>
      </trkpt>
      <trkpt lat="45.67999" lon="6.56635">
        <ele>1264</ele>
        <time>2022-08-27T10:00:15Z</time>
      </trkpt>
      <trkpt lat="45.68" lon="6.56637">
        <ele>1262.2</ele>
        <time>2022-08-27T10:00:18Z</time>
      </trkpt>
      <trkpt lat="45.68003" lon="6.5664">
        <ele>1261.8</ele>
        <time>2022-08-27T10:00:19Z</time>
      </trkpt>
      <trkpt lat="45.68005" lon="6.56642">
        <ele>1261.6</ele>
        <time>2022-08-27T10:00:20Z</time>
      </trkpt>
      <trkpt lat="45.68007" lon="6.56644">
        <ele>1261.4</ele>
        <time>2022-08-27T10:00:21Z</time>
      </trkpt>
      <trkpt lat="45.6801" lon="6.56646">
        <ele>1261.2</ele>
        <time>2022-08-27T10:00:22Z</time>
      </trkpt>
      <trkpt lat="45.68012" lon="6.56648">
        <ele>1261</ele>
        <time>2022-08-27T10:00:23Z</time>
      </trkpt>
      <trkpt lat="45.68015" lon="6.56649">
        <ele>1260.6</ele>
        <time>2022-08-27T10:00:24Z</time>
      </trkpt>
      <trkpt lat="45.68017" lon="6.5665">
        <ele>1260</ele>
        <time>2022-08-27T10:00:25Z</time>
      </trkpt>
      <trkpt lat="45.68019" lon="6.56649">
        <ele>1259.6</ele>
        <time>2022-08-27T10:00:26Z</time>
      </trkpt>
      <trkpt lat="45.68019" lon="6.56647">
        <ele>1258.2</ele>
        <time>2022-08-27T10:00:27Z</time>
      </trkpt>
      <trkpt lat="45.68022" lon="6.56634">
        <ele>1255.4</ele>
        <time>2022-08-27T10:00:30Z</time>
      </trkpt>
      <trkpt lat="45.68024" lon="6.56628">
        <ele>1253.4</ele>
        <time>2022-08-27T10:00:32Z</time>
      </trkpt>
      <trkpt lat="45.68027" lon="6.56626">
        <ele>1252.4</ele>
        <time>2022-08-27T10:00:33Z</time>
      </trkpt>
      <trkpt lat="45.68029" lon="6.56625">
        <ele>1251.4</ele>
        <time>2022-08-27T10:00:34Z</time>
      </trkpt>
      <trkpt lat="45.6803" lon="6.56623">
        <ele>1250.6</ele>
        <time>2022-08-27T10:00:35Z</time>
      </trkpt>
      <trkpt lat="45.68031" lon="6.5662">
        <ele>1249.8</ele>
        <time>2022-08-27T10:00:36Z</time>
      </trkpt>
      <trkpt lat="45.68031" lon="6.56617">
        <ele>1249</ele>
        <time>2022-08-27T10:00:37Z</time>
      </trkpt>
      <trkpt lat="45.6803" lon="6.56614">
        <ele>1248.2</ele>
        <time>2022-08-27T10:00:38Z</time>
      </trkpt>
      <trkpt lat="45.6803" lon="6.56609">
        <ele>1247.4</ele>
        <time>2022-08-27T10:00:39Z</time>
      </trkpt>
      <trkpt lat="45.6803" lon="6.56605">
        <ele>1246.6</ele>
        <time>2022-08-27T10:00:40Z</time>
      </trkpt>
      <trkpt lat="45.68031" lon="6.56602">
        <ele>1245</ele>
        <time>2022-08-27T10:00:42Z</time>
      </trkpt>
      <trkpt lat="45.68033" lon="6.56603">
        <ele>1244.2</ele>
        <time>2022-08-27T10:00:43Z</time>
      </trkpt>
      <trkpt lat="45.68035" lon="6.56605">
        <ele>1243.4</ele>
        <time>2022-08-27T10:00:44Z</time>
      </trkpt>
      <trkpt lat="45.68044" lon="6.5661">
        <ele>1241.6</ele>
        <time>2022-08-27T10:00:47Z</time>
      </trkpt>
      <trkpt lat="45.68046" lon="6.56607">
        <ele>1241</ele>
        <time>2022-08-27T10:00:48Z</time>
      </trkpt>
      <trkpt lat="45.68046" lon="6.56603">
        <ele>1240.2</ele>
        <time>2022-08-27T10:00:49Z</time>
      </trkpt>
      <trkpt lat="45.68045" lon="6.56597">
        <ele>1239.6</ele>
        <time>2022-08-27T10:00:50Z</time>
      </trkpt>
      <trkpt lat="45.68045" lon="6.56592">
        <ele>1238.8</ele>
        <time>2022-08-27T10:00:51Z</time>
      </trkpt>
      <trkpt lat="45.68046" lon="6.56589">
        <ele>1238</ele>
        <time>2022-08-27T10:00:52Z</time>
      </trkpt>
      <trkpt lat="45.68049" lon="6.5659">
        <ele>1236.4</ele>
        <time>2022-08-27T10:00:53Z</time>
      </trkpt>
      <trkpt lat="45.68053" lon="6.56594">
        <ele>1235.4</ele>
        <time>2022-08-27T10:00:54Z</time>
      </trkpt>
      <trkpt lat="45.68058" lon="6.56598">
        <ele>1234.6</ele>
        <time>2022-08-27T10:00:55Z</time>
      </trkpt>
      <trkpt lat="45.68066" lon="6.56604">
        <ele>1232.6</ele>
        <time>2022-08-27T10:00:57Z</time>
      </trkpt>
      <trkpt lat="45.68071" lon="6.56599">
        <ele>1228.4</ele>
        <time>2022-08-27T10:01:01Z</time>
      </trkpt>
      <trkpt lat="45.6808" lon="6.56595">
        <ele>1225.4</ele>
        <time>2022-08-27T10:01:05Z</time>
      </trkpt>
      <trkpt lat="45.68093" lon="6.56586">
        <ele>1223.4</ele>
        <time>2022-08-27T10:01:08Z</time>
      </trkpt>
      <trkpt lat="45.68095" lon="6.56584">
        <ele>1222.6</ele>
        <time>2022-08-27T10:01:09Z</time>
      </trkpt>
      <trkpt lat="45.68097" lon="6.56584">
        <ele>1221.8</ele>
        <time>2022-08-27T10:01:10Z</time>
      </trkpt>
      <trkpt lat="45.68099" lon="6.56583">
        <ele>1221</ele>
        <time>2022-08-27T10:01:11Z</time>
      </trkpt>
      <trkpt lat="45.68101" lon="6.56583">
        <ele>1220.2</ele>
        <time>2022-08-27T10:01:12Z</time>
      </trkpt>
      <trkpt lat="45.68102" lon="6.56583">
        <ele>1219.6</ele>
        <time>2022-08-27T10:01:13Z</time>
      </trkpt>
      <trkpt lat="45.68104" lon="6.56582">
        <ele>1219</ele>
        <time>2022-08-27T10:01:14Z</time>
      </trkpt>
      <trkpt lat="45.68107" lon="6.56581">
        <ele>1218.4</ele>
        <time>2022-08-27T10:01:15Z</time>
      </trkpt>
      <trkpt lat="45.68108" lon="6.56579">
        <ele>1218</ele>
        <time>2022-08-27T10:01:16Z</time>
      </trkpt>
      <trkpt lat="45.68115" lon="6.56576">
        <ele>1214.4</ele>
        <time>2022-08-27T10:01:21Z</time>
      </trkpt>
      <trkpt lat="45.6812" lon="6.56572">
        <ele>1211.4</ele>
        <time>2022-08-27T10:01:26Z</time>
      </trkpt>
      <trkpt lat="45.6812" lon="6.56571">
        <ele>1208.4</ele>
        <time>2022-08-27T10:01:32Z</time>
      </trkpt>
      <trkpt lat="45.68122" lon="6.56567">
        <ele>1207.6</ele>
        <time>2022-08-27T10:01:43Z</time>
      </trkpt>
      <trkpt lat="45.68122" lon="6.56564">
        <ele>1207.6</ele>
        <time>2022-08-27T10:01:44Z</time>
      </trkpt>
      <trkpt lat="45.68123" lon="6.56562">
        <ele>1207.6</ele>
        <time>2022-08-27T10:01:45Z</time>
      </trkpt>
      <trkpt lat="45.68123" lon="6.5656">
        <ele>1207.4</ele>
        <time>2022-08-27T10:01:46Z</time>
      </trkpt>
      <trkpt lat="45.68124" lon="6.56558">
        <ele>1207.4</ele>
        <time>2022-08-27T10:01:47Z</time>
      </trkpt>
      <trkpt lat="45.68126" lon="6.56557">
        <ele>1207.2</ele>
        <time>2022-08-27T10:01:48Z</time>
      </trkpt>
      <trkpt lat="45.68134" lon="6.56551">
        <ele>1203.4</ele>
        <time>2022-08-27T10:01:54Z</time>
      </trkpt>
      <trkpt lat="45.68137" lon="6.56552">
        <ele>1201.2</ele>
        <time>2022-08-27T10:01:57Z</time>
      </trkpt>
      <trkpt lat="45.68139" lon="6.56553">
        <ele>1200.4</ele>
        <time>2022-08-27T10:01:58Z</time>
      </trkpt>
      <trkpt lat="45.68142" lon="6.56555">
        <ele>1199.8</ele>
        <time>2022-08-27T10:01:59Z</time>
      </trkpt>
      <trkpt lat="45.68144" lon="6.56557">
        <ele>1199.2</ele>
        <time>2022-08-27T10:02:00Z</time>
      </trkpt>
      <trkpt lat="45.68146" lon="6.5656">
        <ele>1198.4</ele>
        <time>2022-08-27T10:02:01Z</time>
      </trkpt>
      <trkpt lat="45.68148" lon="6.56563">
        <ele>1197.6</ele>
        <time>2022-08-27T10:02:02Z</time>
      </trkpt>
      <trkpt lat="45.68152" lon="6.56565">
        <ele>1194.4</ele>
        <time>2022-08-27T10:02:06Z</time>
      </trkpt>
      <trkpt lat="45.68154" lon="6.56567">
        <ele>1192.2</ele>
        <time>2022-08-27T10:02:10Z</time>
      </trkpt>
      <trkpt lat="45.68155" lon="6.56567">
        <ele>1191.8</ele>
        <time>2022-08-27T10:02:11Z</time>
      </trkpt>
      <trkpt lat="45.68158" lon="6.56564">
        <ele>1191</ele>
        <time>2022-08-27T10:02:14Z</time>
      </trkpt>
      <trkpt lat="45.68158" lon="6.56561">
        <ele>1191</ele>
        <time>2022-08-27T10:02:15Z</time>
      </trkpt>
      <trkpt lat="45.68158" lon="6.56558">
        <ele>1190.8</ele>
        <time>2022-08-27T10:02:16Z</time>
      </trkpt>
      <trkpt lat="45.68159" lon="6.56556">
        <ele>1190.4</ele>
        <time>2022-08-27T10:02:17Z</time>
      </trkpt>
      <trkpt lat="45.68161" lon="6.56556">
        <ele>1190.2</ele>
        <time>2022-08-27T10:02:18Z</time>
      </trkpt>
      <trkpt lat="45.68162" lon="6.56559">
        <ele>1187.4</ele>
        <time>2022-08-27T10:02:24Z</time>
      </trkpt>
      <trkpt lat="45.68162" lon="6.5656">
        <ele>1186.4</ele>
        <time>2022-08-27T10:02:38Z</time>
      </trkpt>
      <trkpt lat="45.68164" lon="6.5657">
        <ele>1187.2</ele>
        <time>2022-08-27T10:02:47Z</time>
      </trkpt>
      <trkpt lat="45.68167" lon="6.56571">
        <ele>1187.2</ele>
        <time>2022-08-27T10:02:56Z</time>
      </trkpt>
      <trkpt lat="45.68167" lon="6.56571">
        <ele>1187.2</ele>
        <time>2022-08-27T10:02:57Z</time>
      </trkpt>
      <trkpt lat="45.68169" lon="6.56571">
        <ele>1187.4</ele>
        <time>2022-08-27T10:02:58Z</time>
      </trkpt>
      <trkpt lat="45.6817" lon="6.56571">
        <ele>1187.4</ele>
        <time>2022-08-27T10:02:59Z</time>
      </trkpt>
      <trkpt lat="45.68172" lon="6.56571">
        <ele>1187.4</ele>
        <time>2022-08-27T10:03:00Z</time>
      </trkpt>
      <trkpt lat="45.68175" lon="6.56572">
        <ele>1187.4</ele>
        <time>2022-08-27T10:03:01Z</time>
      </trkpt>
      <trkpt lat="45.68177" lon="6.56573">
        <ele>1187.4</ele>
        <time>2022-08-27T10:03:02Z</time>
      </trkpt>
      <trkpt lat="45.6818" lon="6.56573">
        <ele>1187.2</ele>
        <time>2022-08-27T10:03:03Z</time>
      </trkpt>
      <trkpt lat="45.68194" lon="6.56582">
        <ele>1185.2</ele>
        <time>2022-08-27T10:03:08Z</time>
      </trkpt>
      <trkpt lat="45.68198" lon="6.56585">
        <ele>1184.4</ele>
        <time>2022-08-27T10:03:09Z</time>
      </trkpt>
      <trkpt lat="45.68201" lon="6.56587">
        <ele>1183.6</ele>
        <time>2022-08-27T10:03:10Z</time>
      </trkpt>
      <trkpt lat="45.68204" lon="6.5659">
        <ele>1182.6</ele>
        <time>2022-08-27T10:03:11Z</time>
      </trkpt>
      <trkpt lat="45.68208" lon="6.56592">
        <ele>1180.2</ele>
        <time>2022-08-27T10:03:12Z</time>
      </trkpt>
      <trkpt lat="45.68212" lon="6.56593">
        <ele>1179.2</ele>
        <time>2022-08-27T10:03:13Z</time>
      </trkpt>
      <trkpt lat="45.68214" lon="6.56595">
        <ele>1178.4</ele>
        <time>2022-08-27T10:03:14Z</time>
      </trkpt>
      <trkpt lat="45.68216" lon="6.56598">
        <ele>1177.6</ele>
        <time>2022-08-27T10:03:15Z</time>
      </trkpt>
      <trkpt lat="45.68218" lon="6.56601">
        <ele>1176.6</ele>
        <time>2022-08-27T10:03:16Z</time>
      </trkpt>
      <trkpt lat="45.68222" lon="6.56604">
        <ele>1175.8</ele>
        <time>2022-08-27T10:03:17Z</time>
      </trkpt>
      <trkpt lat="45.68225" lon="6.56609">
        <ele>1175</ele>
        <time>2022-08-27T10:03:18Z</time>
      </trkpt>
      <trkpt lat="45.68229" lon="6.56613">
        <ele>1174.2</ele>
        <time>2022-08-27T10:03:19Z</time>
      </trkpt>
      <trkpt lat="45.68233" lon="6.56618">
        <ele>1173.2</ele>
        <time>2022-08-27T10:03:20Z</time>
      </trkpt>
      <trkpt lat="45.6824" lon="6.56623">
        <ele>1172.4</ele>
        <time>2022-08-27T10:03:21Z</time>
      </trkpt>
      <trkpt lat="45.68267" lon="6.56642">
        <ele>1168</ele>
        <time>2022-08-27T10:03:25Z</time>
      </trkpt>
      <trkpt lat="45.68271" lon="6.56649">
        <ele>1166.4</ele>
        <time>2022-08-27T10:03:26Z</time>
      </trkpt>
      <trkpt lat="45.68274" lon="6.56656">
        <ele>1164.6</ele>
        <time>2022-08-27T10:03:27Z</time>
      </trkpt>
      <trkpt lat="45.6828" lon="6.5667">
        <ele>1161.4</ele>
        <time>2022-08-27T10:03:29Z</time>
      </trkpt>
      <trkpt lat="45.68282" lon="6.56677">
        <ele>1160.2</ele>
        <time>2022-08-27T10:03:30Z</time>
      </trkpt>
      <trkpt lat="45.68283" lon="6.56683">
        <ele>1158.8</ele>
        <time>2022-08-27T10:03:31Z</time>
      </trkpt>
      <trkpt lat="45.6828" lon="6.56697">
        <ele>1154.8</ele>
        <time>2022-08-27T10:03:34Z</time>
      </trkpt>
      <trkpt lat="45.6828" lon="6.56704">
        <ele>1150.6</ele>
        <time>2022-08-27T10:03:37Z</time>
      </trkpt>
      <trkpt lat="45.68281" lon="6.56713">
        <ele>1149.4</ele>
        <time>2022-08-27T10:03:40Z</time>
      </trkpt>
      <trkpt lat="45.68282" lon="6.56717">
        <ele>1149.2</ele>
        <time>2022-08-27T10:03:41Z</time>
      </trkpt>
      <trkpt lat="45.68284" lon="6.56721">
        <ele>1149</ele>
        <time>2022-08-27T10:03:42Z</time>
      </trkpt>
      <trkpt lat="45.68287" lon="6.56725">
        <ele>1148.6</ele>
        <time>2022-08-27T10:03:43Z</time>
      </trkpt>
      <trkpt lat="45.68288" lon="6.5673">
        <ele>1148.2</ele>
        <time>2022-08-27T10:03:44Z</time>
      </trkpt>
      <trkpt lat="45.68289" lon="6.56734">
        <ele>1148</ele>
        <time>2022-08-27T10:03:45Z</time>
      </trkpt>
      <trkpt lat="45.68291" lon="6.56738">
        <ele>1147.4</ele>
        <time>2022-08-27T10:03:46Z</time>
      </trkpt>
      <trkpt lat="45.68293" lon="6.56741">
        <ele>1146.8</ele>
        <time>2022-08-27T10:03:47Z</time>
      </trkpt>
      <trkpt lat="45.68294" lon="6.56745">
        <ele>1146.2</ele>
        <time>2022-08-27T10:03:48Z</time>
      </trkpt>
      <trkpt lat="45.68296" lon="6.56749">
        <ele>1145.4</ele>
        <time>2022-08-27T10:03:49Z</time>
      </trkpt>
      <trkpt lat="45.68297" lon="6.56753">
        <ele>1144.8</ele>
        <time>2022-08-27T10:03:50Z</time>
      </trkpt>
      <trkpt lat="45.68304" lon="6.56765">
        <ele>1141.6</ele>
        <time>2022-08-27T10:03:55Z</time>
      </trkpt>
      <trkpt lat="45.68307" lon="6.56769">
        <ele>1138.8</ele>
        <time>2022-08-27T10:04:05Z</time>
      </trkpt>
      <trkpt lat="45.68307" lon="6.56778">
        <ele>1136.6</ele>
        <time>2022-08-27T10:04:17Z</time>
      </trkpt>
      <trkpt lat="45.68311" lon="6.5679">
        <ele>1133.6</ele>
        <time>2022-08-27T10:04:23Z</time>
      </trkpt>
      <trkpt lat="45.68314" lon="6.56797">
        <ele>1131.6</ele>
        <time>2022-08-27T10:04:26Z</time>
      </trkpt>
      <trkpt lat="45.68315" lon="6.56799">
        <ele>1131</ele>
        <time>2022-08-27T10:04:27Z</time>
      </trkpt>
      <trkpt lat="45.6832" lon="6.56799">
        <ele>1127.6</ele>
        <time>2022-08-27T10:04:31Z</time>
      </trkpt>
      <trkpt lat="45.68322" lon="6.56803">
        <ele>1126</ele>
        <time>2022-08-27T10:04:34Z</time>
      </trkpt>
      <trkpt lat="45.6832" lon="6.5681">
        <ele>1124.8</ele>
        <time>2022-08-27T10:04:37Z</time>
      </trkpt>
      <trkpt lat="45.68323" lon="6.56812">
        <ele>1123.8</ele>
        <time>2022-08-27T10:04:40Z</time>
      </trkpt>
      <trkpt lat="45.68324" lon="6.56811">
        <ele>1123.4</ele>
        <time>2022-08-27T10:04:41Z</time>
      </trkpt>
      <trkpt lat="45.68326" lon="6.56809">
        <ele>1122.8</ele>
        <time>2022-08-27T10:04:42Z</time>
      </trkpt>
      <trkpt lat="45.68327" lon="6.56806">
        <ele>1122.4</ele>
        <time>2022-08-27T10:04:43Z</time>
      </trkpt>
      <trkpt lat="45.68329" lon="6.56803">
        <ele>1121.8</ele>
        <time>2022-08-27T10:04:44Z</time>
      </trkpt>
      <trkpt lat="45.6833" lon="6.568">
        <ele>1121.2</ele>
        <time>2022-08-27T10:04:45Z</time>
      </trkpt>
      <trkpt lat="45.68334" lon="6.56796">
        <ele>1118</ele>
        <time>2022-08-27T10:04:51Z</time>
      </trkpt>
      <trkpt lat="45.68336" lon="6.568">
        <ele>1117.2</ele>
        <time>2022-08-27T10:04:53Z</time>
      </trkpt>
      <trkpt lat="45.68336" lon="6.56802">
        <ele>1117</ele>
        <time>2022-08-27T10:04:54Z</time>
      </trkpt>
      <trkpt lat="45.68336" lon="6.56805">
        <ele>1116.6</ele>
        <time>2022-08-27T10:04:55Z</time>
      </trkpt>
      <trkpt lat="45.68335" lon="6.56808">
        <ele>1116.2</ele>
        <time>2022-08-27T10:04:56Z</time>
      </trkpt>
      <trkpt lat="45.68335" lon="6.56811">
        <ele>1115.2</ele>
        <time>2022-08-27T10:04:57Z</time>
      </trkpt>
      <trkpt lat="45.68334" lon="6.56815">
        <ele>1114.8</ele>
        <time>2022-08-27T10:04:58Z</time>
      </trkpt>
      <trkpt lat="45.68336" lon="6.56818">
        <ele>1114.4</ele>
        <time>2022-08-27T10:04:59Z</time>
      </trkpt>
      <trkpt lat="45.68337" lon="6.56821">
        <ele>1114</ele>
        <time>2022-08-27T10:05:00Z</time>
      </trkpt>
      <trkpt lat="45.68336" lon="6.56823">
        <ele>1113.6</ele>
        <time>2022-08-27T10:05:01Z</time>
      </trkpt>
      <trkpt lat="45.68335" lon="6.56825">
        <ele>1113.2</ele>
        <time>2022-08-27T10:05:02Z</time>
      </trkpt>
      <trkpt lat="45.68331" lon="6.56833">
        <ele>1111.6</ele>
        <time>2022-08-27T10:05:06Z</time>
      </trkpt>
      <trkpt lat="45.68332" lon="6.56835">
        <ele>1108.2</ele>
        <time>2022-08-27T10:05:11Z</time>
      </trkpt>
      <trkpt lat="45.68331" lon="6.56839">
        <ele>1106</ele>
        <time>2022-08-27T10:05:23Z</time>
      </trkpt>
      <trkpt lat="45.6833" lon="6.56843">
        <ele>1105.8</ele>
        <time>2022-08-27T10:05:41Z</time>
      </trkpt>
      <trkpt lat="45.68331" lon="6.56842">
        <ele>1105.6</ele>
        <time>2022-08-27T10:05:57Z</time>
      </trkpt>
      <trkpt lat="45.68328" lon="6.56839">
        <ele>1105.8</ele>
        <time>2022-08-27T10:06:09Z</time>
      </trkpt>
      <trkpt lat="45.68324" lon="6.56844">
        <ele>1105.8</ele>
        <time>2022-08-27T10:06:12Z</time>
      </trkpt>
      <trkpt lat="45.68323" lon="6.56847">
        <ele>1105.6</ele>
        <time>2022-08-27T10:06:13Z</time>
      </trkpt>
      <trkpt lat="45.68324" lon="6.56851">
        <ele>1105.6</ele>
        <time>2022-08-27T10:06:14Z</time>
      </trkpt>
      <trkpt lat="45.68326" lon="6.56858">
        <ele>1105.2</ele>
        <time>2022-08-27T10:06:16Z</time>
      </trkpt>
      <trkpt lat="45.68328" lon="6.56861">
        <ele>1104.6</ele>
        <time>2022-08-27T10:06:17Z</time>
      </trkpt>
      <trkpt lat="45.68329" lon="6.56864">
        <ele>1104.2</ele>
        <time>2022-08-27T10:06:18Z</time>
      </trkpt>
      <trkpt lat="45.68333" lon="6.5687">
        <ele>1101</ele>
        <time>2022-08-27T10:06:23Z</time>
      </trkpt>
      <trkpt lat="45.68335" lon="6.56873">
        <ele>1100.2</ele>
        <time>2022-08-27T10:06:24Z</time>
      </trkpt>
      <trkpt lat="45.68346" lon="6.56882">
        <ele>1097.8</ele>
        <time>2022-08-27T10:06:27Z</time>
      </trkpt>
      <trkpt lat="45.6835" lon="6.56884">
        <ele>1097</ele>
        <time>2022-08-27T10:06:28Z</time>
      </trkpt>
      <trkpt lat="45.68354" lon="6.56886">
        <ele>1096.2</ele>
        <time>2022-08-27T10:06:29Z</time>
      </trkpt>
      <trkpt lat="45.68358" lon="6.56889">
        <ele>1095.4</ele>
        <time>2022-08-27T10:06:30Z</time>
      </trkpt>
      <trkpt lat="45.6836" lon="6.56894">
        <ele>1094.4</ele>
        <time>2022-08-27T10:06:31Z</time>
      </trkpt>
      <trkpt lat="45.68363" lon="6.56899">
        <ele>1093.6</ele>
        <time>2022-08-27T10:06:32Z</time>
      </trkpt>
      <trkpt lat="45.68364" lon="6.56905">
        <ele>1092.8</ele>
        <time>2022-08-27T10:06:33Z</time>
      </trkpt>
      <trkpt lat="45.68366" lon="6.5691">
        <ele>1092</ele>
        <time>2022-08-27T10:06:34Z</time>
      </trkpt>
      <trkpt lat="45.68366" lon="6.56914">
        <ele>1091.2</ele>
        <time>2022-08-27T10:06:35Z</time>
      </trkpt>
      <trkpt lat="45.68367" lon="6.56917">
        <ele>1090.2</ele>
        <time>2022-08-27T10:06:36Z</time>
      </trkpt>
      <trkpt lat="45.6837" lon="6.56916">
        <ele>1088.6</ele>
        <time>2022-08-27T10:06:38Z</time>
      </trkpt>
      <trkpt lat="45.68372" lon="6.56915">
        <ele>1088.2</ele>
        <time>2022-08-27T10:06:39Z</time>
      </trkpt>
      <trkpt lat="45.68374" lon="6.56915">
        <ele>1088</ele>
        <time>2022-08-27T10:06:40Z</time>
      </trkpt>
      <trkpt lat="45.68376" lon="6.56915">
        <ele>1090</ele>
        <time>2022-08-27T10:06:45Z</time>
      </trkpt>
      <trkpt lat="45.68376" lon="6.56915">
        <ele>1086</ele>
        <time>2022-08-27T10:06:50Z</time>
      </trkpt>
      <trkpt lat="45.68376" lon="6.56915">
        <ele>1083.8</ele>
        <time>2022-08-27T10:06:54Z</time>
      </trkpt>
      <trkpt lat="45.68376" lon="6.56916">
        <ele>1083.2</ele>
        <time>2022-08-27T10:07:11Z</time>
      </trkpt>
      <trkpt lat="45.68377" lon="6.56917">
        <ele>1084.6</ele>
        <time>2022-08-27T10:07:21Z</time>
      </trkpt>
      <trkpt lat="45.68377" lon="6.5692">
        <ele>1085</ele>
        <time>2022-08-27T10:07:36Z</time>
      </trkpt>
      <trkpt lat="45.68377" lon="6.56919">
        <ele>1085.4</ele>
        <time>2022-08-27T10:07:44Z</time>
      </trkpt>
      <trkpt lat="45.68377" lon="6.5692">
        <ele>1085.6</ele>
        <time>2022-08-27T10:07:57Z</time>
      </trkpt>
      <trkpt lat="45.68377" lon="6.56923">
        <ele>1086.2</ele>
        <time>2022-08-27T10:08:10Z</time>
      </trkpt>
      <trkpt lat="45.68382" lon="6.56927">
        <ele>1086.2</ele>
        <time>2022-08-27T10:08:20Z</time>
      </trkpt>
      <trkpt lat="45.68384" lon="6.5693">
        <ele>1086.2</ele>
        <time>2022-08-27T10:08:21Z</time>
      </trkpt>
      <trkpt lat="45.68387" lon="6.56935">
        <ele>1086.2</ele>
        <time>2022-08-27T10:08:22Z</time>
      </trkpt>
      <trkpt lat="45.6839" lon="6.56941">
        <ele>1085.8</ele>
        <time>2022-08-27T10:08:23Z</time>
      </trkpt>
      <trkpt lat="45.68393" lon="6.56946">
        <ele>1085.4</ele>
        <time>2022-08-27T10:08:24Z</time>
      </trkpt>
      <trkpt lat="45.68396" lon="6.56953">
        <ele>1084.8</ele>
        <time>2022-08-27T10:08:25Z</time>
      </trkpt>
      <trkpt lat="45.68402" lon="6.56971">
        <ele>1081.4</ele>
        <time>2022-08-27T10:08:29Z</time>
      </trkpt>
      <trkpt lat="45.68409" lon="6.56981">
        <ele>1079</ele>
        <time>2022-08-27T10:08:32Z</time>
      </trkpt>
      <trkpt lat="45.68412" lon="6.56981">
        <ele>1078.2</ele>
        <time>2022-08-27T10:08:33Z</time>
      </trkpt>
      <trkpt lat="45.68415" lon="6.56979">
        <ele>1077.4</ele>
        <time>2022-08-27T10:08:34Z</time>
      </trkpt>
      <trkpt lat="45.68418" lon="6.56978">
        <ele>1076.6</ele>
        <time>2022-08-27T10:08:35Z</time>
      </trkpt>
      <trkpt lat="45.68422" lon="6.56978">
        <ele>1075.6</ele>
        <time>2022-08-27T10:08:36Z</time>
      </trkpt>
      <trkpt lat="45.68426" lon="6.56979">
        <ele>1074.6</ele>
        <time>2022-08-27T10:08:37Z</time>
      </trkpt>
      <trkpt lat="45.68429" lon="6.56979">
        <ele>1073.8</ele>
        <time>2022-08-27T10:08:38Z</time>
      </trkpt>
      <trkpt lat="45.68433" lon="6.56977">
        <ele>1073.2</ele>
        <time>2022-08-27T10:08:39Z</time>
      </trkpt>
      <trkpt lat="45.68436" lon="6.56975">
        <ele>1072.6</ele>
        <time>2022-08-27T10:08:40Z</time>
      </trkpt>
      <trkpt lat="45.68439" lon="6.56972">
        <ele>1072.2</ele>
        <time>2022-08-27T10:08:41Z</time>
      </trkpt>
      <trkpt lat="45.6844" lon="6.5697">
        <ele>1071.4</ele>
        <time>2022-08-27T10:08:45Z</time>
      </trkpt>
      <trkpt lat="45.68445" lon="6.56967">
        <ele>1071.8</ele>
        <time>2022-08-27T10:08:52Z</time>
      </trkpt>
      <trkpt lat="45.68445" lon="6.56967">
        <ele>1072.2</ele>
        <time>2022-08-27T10:09:00Z</time>
      </trkpt>
      <trkpt lat="45.68448" lon="6.56965">
        <ele>1072.2</ele>
        <time>2022-08-27T10:09:08Z</time>
      </trkpt>
      <trkpt lat="45.68453" lon="6.5696">
        <ele>1072.8</ele>
        <time>2022-08-27T10:09:18Z</time>
      </trkpt>
      <trkpt lat="45.68455" lon="6.56955">
        <ele>1074</ele>
        <time>2022-08-27T10:09:26Z</time>
      </trkpt>
      <trkpt lat="45.68456" lon="6.56954">
        <ele>1075</ele>
        <time>2022-08-27T10:09:35Z</time>
      </trkpt>
      <trkpt lat="45.68457" lon="6.5695">
        <ele>1075.4</ele>
        <time>2022-08-27T10:09:44Z</time>
      </trkpt>
      <trkpt lat="45.6846" lon="6.56946">
        <ele>1077</ele>
        <time>2022-08-27T10:09:56Z</time>
      </trkpt>
      <trkpt lat="45.68463" lon="6.56942">
        <ele>1078.2</ele>
        <time>2022-08-27T10:10:05Z</time>
      </trkpt>
      <trkpt lat="45.68467" lon="6.56944">
        <ele>1079.4</ele>
        <time>2022-08-27T10:10:14Z</time>
      </trkpt>
      <trkpt lat="45.68471" lon="6.56946">
        <ele>1080.6</ele>
        <time>2022-08-27T10:10:22Z</time>
      </trkpt>
      <trkpt lat="45.68472" lon="6.56946">
        <ele>1081.6</ele>
        <time>2022-08-27T10:10:35Z</time>
      </trkpt>
      <trkpt lat="45.68474" lon="6.56949">
        <ele>1082</ele>
        <time>2022-08-27T10:10:47Z</time>
      </trkpt>
      <trkpt lat="45.68476" lon="6.5695">
        <ele>1082</ele>
        <time>2022-08-27T10:10:49Z</time>
      </trkpt>
      <trkpt lat="45.68488" lon="6.56954">
        <ele>1082.4</ele>
        <time>2022-08-27T10:10:57Z</time>
      </trkpt>
      <trkpt lat="45.68495" lon="6.56957">
        <ele>1082</ele>
        <time>2022-08-27T10:11:03Z</time>
      </trkpt>
      <trkpt lat="45.68497" lon="6.56958">
        <ele>1082.8</ele>
        <time>2022-08-27T10:11:15Z</time>
      </trkpt>
      <trkpt lat="45.68502" lon="6.56957">
        <ele>1082.8</ele>
        <time>2022-08-27T10:11:18Z</time>
      </trkpt>
      <trkpt lat="45.68504" lon="6.56955">
        <ele>1082.8</ele>
        <time>2022-08-27T10:11:19Z</time>
      </trkpt>
      <trkpt lat="45.68505" lon="6.56953">
        <ele>1082.8</ele>
        <time>2022-08-27T10:11:20Z</time>
      </trkpt>
      <trkpt lat="45.68507" lon="6.56951">
        <ele>1082.8</ele>
        <time>2022-08-27T10:11:21Z</time>
      </trkpt>
      <trkpt lat="45.68509" lon="6.56949">
        <ele>1082.6</ele>
        <time>2022-08-27T10:11:22Z</time>
      </trkpt>
      <trkpt lat="45.68512" lon="6.56949">
        <ele>1082.4</ele>
        <time>2022-08-27T10:11:23Z</time>
      </trkpt>
      <trkpt lat="45.68518" lon="6.56948">
        <ele>1081.6</ele>
        <time>2022-08-27T10:11:27Z</time>
      </trkpt>
      <trkpt lat="45.68519" lon="6.56949">
        <ele>1081.4</ele>
        <time>2022-08-27T10:11:28Z</time>
      </trkpt>
      <trkpt lat="45.68521" lon="6.56951">
        <ele>1081.2</ele>
        <time>2022-08-27T10:11:29Z</time>
      </trkpt>
      <trkpt lat="45.68522" lon="6.56954">
        <ele>1081</ele>
        <time>2022-08-27T10:11:30Z</time>
      </trkpt>
      <trkpt lat="45.68525" lon="6.56955">
        <ele>1081</ele>
        <time>2022-08-27T10:11:31Z</time>
      </trkpt>
      <trkpt lat="45.68528" lon="6.56957">
        <ele>1080.8</ele>
        <time>2022-08-27T10:11:32Z</time>
      </trkpt>
      <trkpt lat="45.68532" lon="6.56957">
        <ele>1080.6</ele>
        <time>2022-08-27T10:11:33Z</time>
      </trkpt>
      <trkpt lat="45.68535" lon="6.56958">
        <ele>1080.4</ele>
        <time>2022-08-27T10:11:34Z</time>
      </trkpt>
      <trkpt lat="45.68537" lon="6.56957">
        <ele>1080</ele>
        <time>2022-08-27T10:11:35Z</time>
      </trkpt>
      <trkpt lat="45.68539" lon="6.56957">
        <ele>1079.8</ele>
        <time>2022-08-27T10:11:36Z</time>
      </trkpt>
      <trkpt lat="45.68542" lon="6.56956">
        <ele>1079.4</ele>
        <time>2022-08-27T10:11:37Z</time>
      </trkpt>
      <trkpt lat="45.68544" lon="6.56955">
        <ele>1079</ele>
        <time>2022-08-27T10:11:38Z</time>
      </trkpt>
      <trkpt lat="45.68545" lon="6.56952">
        <ele>1078.8</ele>
        <time>2022-08-27T10:11:39Z</time>
      </trkpt>
      <trkpt lat="45.68546" lon="6.5695">
        <ele>1078.4</ele>
        <time>2022-08-27T10:11:40Z</time>
      </trkpt>
      <trkpt lat="45.68547" lon="6.56947">
        <ele>1078.2</ele>
        <time>2022-08-27T10:11:41Z</time>
      </trkpt>
      <trkpt lat="45.68546" lon="6.56944">
        <ele>1078.2</ele>
        <time>2022-08-27T10:11:42Z</time>
      </trkpt>
      <trkpt lat="45.68546" lon="6.56941">
        <ele>1078</ele>
        <time>2022-08-27T10:11:43Z</time>
      </trkpt>
      <trkpt lat="45.6854" lon="6.56915">
        <ele>1076.8</ele>
        <time>2022-08-27T10:11:50Z</time>
      </trkpt>
      <trkpt lat="45.68539" lon="6.5689">
        <ele>1076</ele>
        <time>2022-08-27T10:11:56Z</time>
      </trkpt>
      <trkpt lat="45.68541" lon="6.56887">
        <ele>1075.8</ele>
        <time>2022-08-27T10:11:57Z</time>
      </trkpt>
      <trkpt lat="45.68543" lon="6.56884">
        <ele>1075.6</ele>
        <time>2022-08-27T10:11:58Z</time>
      </trkpt>
      <trkpt lat="45.68546" lon="6.56882">
        <ele>1075.2</ele>
        <time>2022-08-27T10:11:59Z</time>
      </trkpt>
      <trkpt lat="45.68549" lon="6.56882">
        <ele>1074.8</ele>
        <time>2022-08-27T10:12:00Z</time>
      </trkpt>
      <trkpt lat="45.68553" lon="6.56882">
        <ele>1074.6</ele>
        <time>2022-08-27T10:12:01Z</time>
      </trkpt>
      <trkpt lat="45.68557" lon="6.56883">
        <ele>1074.2</ele>
        <time>2022-08-27T10:12:02Z</time>
      </trkpt>
      <trkpt lat="45.6856" lon="6.56884">
        <ele>1074</ele>
        <time>2022-08-27T10:12:03Z</time>
      </trkpt>
      <trkpt lat="45.68563" lon="6.56886">
        <ele>1073.6</ele>
        <time>2022-08-27T10:12:04Z</time>
      </trkpt>
      <trkpt lat="45.68565" lon="6.56888">
        <ele>1073.2</ele>
        <time>2022-08-27T10:12:05Z</time>
      </trkpt>
      <trkpt lat="45.68568" lon="6.5689">
        <ele>1073</ele>
        <time>2022-08-27T10:12:06Z</time>
      </trkpt>
      <trkpt lat="45.68576" lon="6.56896">
        <ele>1071.6</ele>
        <time>2022-08-27T10:12:13Z</time>
      </trkpt>
      <trkpt lat="45.68589" lon="6.56892">
        <ele>1070.8</ele>
        <time>2022-08-27T10:12:21Z</time>
      </trkpt>
      <trkpt lat="45.68613" lon="6.56881">
        <ele>1069.6</ele>
        <time>2022-08-27T10:12:29Z</time>
      </trkpt>
      <trkpt lat="45.68621" lon="6.56882">
        <ele>1068.8</ele>
        <time>2022-08-27T10:12:33Z</time>
      </trkpt>
      <trkpt lat="45.68634" lon="6.56887">
        <ele>1067.6</ele>
        <time>2022-08-27T10:12:41Z</time>
      </trkpt>
      <trkpt lat="45.68644" lon="6.56886">
        <ele>1067.4</ele>
        <time>2022-08-27T10:12:48Z</time>
      </trkpt>
      <trkpt lat="45.68646" lon="6.56883">
        <ele>1067.2</ele>
        <time>2022-08-27T10:12:55Z</time>
      </trkpt>
      <trkpt lat="45.68646" lon="6.5688">
        <ele>1067.2</ele>
        <time>2022-08-27T10:12:56Z</time>
      </trkpt>
      <trkpt lat="45.68646" lon="6.56877">
        <ele>1067.2</ele>
        <time>2022-08-27T10:12:57Z</time>
      </trkpt>
      <trkpt lat="45.68646" lon="6.56874">
        <ele>1067.2</ele>
        <time>2022-08-27T10:12:58Z</time>
      </trkpt>
      <trkpt lat="45.68646" lon="6.56872">
        <ele>1067</ele>
        <time>2022-08-27T10:12:59Z</time>
      </trkpt>
      <trkpt lat="45.68646" lon="6.5687">
        <ele>1067</ele>
        <time>2022-08-27T10:13:00Z</time>
      </trkpt>
      <trkpt lat="45.68647" lon="6.56868">
        <ele>1066.8</ele>
        <time>2022-08-27T10:13:01Z</time>
      </trkpt>
      <trkpt lat="45.68647" lon="6.56866">
        <ele>1066.8</ele>
        <time>2022-08-27T10:13:02Z</time>
      </trkpt>
      <trkpt lat="45.68652" lon="6.5685">
        <ele>1066.2</ele>
        <time>2022-08-27T10:13:08Z</time>
      </trkpt>
      <trkpt lat="45.68652" lon="6.56847">
        <ele>1066</ele>
        <time>2022-08-27T10:13:09Z</time>
      </trkpt>
      <trkpt lat="45.68651" lon="6.56844">
        <ele>1066</ele>
        <time>2022-08-27T10:13:10Z</time>
      </trkpt>
      <trkpt lat="45.68651" lon="6.56841">
        <ele>1065.8</ele>
        <time>2022-08-27T10:13:11Z</time>
      </trkpt>
      <trkpt lat="45.68651" lon="6.56838">
        <ele>1065.6</ele>
        <time>2022-08-27T10:13:12Z</time>
      </trkpt>
      <trkpt lat="45.68652" lon="6.56835">
        <ele>1065.2</ele>
        <time>2022-08-27T10:13:14Z</time>
      </trkpt>
      <trkpt lat="45.68652" lon="6.56833">
        <ele>1065</ele>
        <time>2022-08-27T10:13:15Z</time>
      </trkpt>
      <trkpt lat="45.68653" lon="6.56831">
        <ele>1064.8</ele>
        <time>2022-08-27T10:13:16Z</time>
      </trkpt>
      <trkpt lat="45.68652" lon="6.56829">
        <ele>1063.6</ele>
        <time>2022-08-27T10:13:22Z</time>
      </trkpt>
      <trkpt lat="45.68655" lon="6.56821">
        <ele>1063.2</ele>
        <time>2022-08-27T10:13:33Z</time>
      </trkpt>
      <trkpt lat="45.68654" lon="6.5682">
        <ele>1062.8</ele>
        <time>2022-08-27T10:13:48Z</time>
      </trkpt>
      <trkpt lat="45.68653" lon="6.56821">
        <ele>1062.6</ele>
        <time>2022-08-27T10:13:56Z</time>
      </trkpt>
      <trkpt lat="45.68654" lon="6.56824">
        <ele>1063.2</ele>
        <time>2022-08-27T10:14:13Z</time>
      </trkpt>
      <trkpt lat="45.68648" lon="6.56824">
        <ele>1063.4</ele>
        <time>2022-08-27T10:14:22Z</time>
      </trkpt>
      <trkpt lat="45.68647" lon="6.56823">
        <ele>1062.8</ele>
        <time>2022-08-27T10:14:33Z</time>
      </trkpt>
      <trkpt lat="45.68647" lon="6.56821">
        <ele>1062.2</ele>
        <time>2022-08-27T10:14:52Z</time>
      </trkpt>
      <trkpt lat="45.68647" lon="6.56819">
        <ele>1062.4</ele>
        <time>2022-08-27T10:15:10Z</time>
      </trkpt>
      <trkpt lat="45.68648" lon="6.56817">
        <ele>1062.4</ele>
        <time>2022-08-27T10:15:28Z</time>
      </trkpt>
      <trkpt lat="45.68648" lon="6.56817">
        <ele>1062.4</ele>
        <time>2022-08-27T10:15:30Z</time>
      </trkpt>
    </trkseg>
  </trk>
</gpx>